Date StartTime U_cm/s V_cm/s W_cm/s Ustd_cm/s Vstd_cm/s Wstd_cm/s Uvar_(cm/s)^2 Vvar_(cm/s)^2 Wvar_(cm/s)^2 KE_(m/s)^2 TurbulentKE_(m/s)^2 HorizWindSpeed_cm/s FrictionSpeec_cm/s DragCoef SpeedOfSound_m/s SonicTemperature_C Pressure_mb 
12/09/2014  00:00:00        2.503        1.596        5.558        9.254        6.808        8.111       85.645       46.347       65.784        0.012        0.010        2.969        4.002        1.817      333.758        3.283      866.403
12/09/2014  00:01:00        1.062        5.151        6.293       12.558        8.124        7.388      157.708       66.006       54.576        0.017        0.014        5.259        7.682        2.133      333.886        3.495      866.359
12/09/2014  00:02:00      -18.363       -5.945        4.935        4.716        6.306        4.583       22.242       39.763       21.001        0.024        0.004       19.302        3.273        0.029      333.919        3.549      866.330
12/09/2014  00:03:00      -22.715       -3.197        2.667        7.275        6.561        3.920       52.932       43.049       15.365        0.032        0.006       22.939        3.663        0.025      333.774        3.311      866.332
12/09/2014  00:04:00      -43.407       -9.689       -6.522        8.397        6.838        4.403       70.516       46.764       19.389        0.108        0.007       44.475        3.781        0.007      333.758        3.281      866.348
12/09/2014  00:05:00      -58.847       -7.543      -10.175        6.706        6.374        5.396       44.965       40.626       29.122        0.187        0.006       59.328        4.992        0.007      333.715        3.211      866.358
12/09/2014  00:06:00      -28.399       -8.077       -4.286       13.313        4.732        3.292      177.231       22.390       10.839        0.055        0.011       29.525        4.187        0.020      333.630        3.073      866.365
12/09/2014  00:07:00      -19.922       -2.010       -6.317        5.761        5.062        5.683       33.189       25.623       32.299        0.027        0.005       20.023        4.167        0.043      333.614        3.045      866.366
12/09/2014  00:08:00      -38.462       -8.370       -4.543       10.347        7.018        4.978      107.069       49.247       24.777        0.088        0.009       39.362        4.756        0.015      333.688        3.167      866.363
12/09/2014  00:09:00      -54.446      -16.152       -8.386        8.966        6.513        5.976       80.386       42.416       35.709        0.173        0.008       56.792        3.533        0.004      333.713        3.211      866.353
12/09/2014  00:10:00      -73.094      -14.044      -10.467       12.233        8.910        7.730      149.637       79.387       59.748        0.297        0.014       74.431        7.359        0.010      333.751        3.271      866.348
12/09/2014  00:11:00      -56.770      -16.507       -1.562       19.658       10.279        9.534      386.442      105.649       90.901        0.204        0.029       59.121        9.000        0.023      333.639        3.084      866.342
12/09/2014  00:12:00      -66.446      -18.742       -1.671       14.937       12.634        7.168      223.109      159.622       51.383        0.260        0.022       69.039        6.679        0.009      333.615        3.046      866.336
12/09/2014  00:13:00      -85.526      -31.266       -3.624       14.687       15.470        9.026      215.696      239.319       81.475        0.442        0.027       91.062        6.674        0.005      333.557        2.949      866.316
12/09/2014  00:14:00     -105.397      -34.793      -11.875        9.996       13.311        8.745       99.929      177.189       76.470        0.641        0.018      110.991        8.119        0.005      333.512        2.874      866.291
12/09/2014  00:15:00     -110.202      -22.743      -12.081       16.111       12.455       12.278      259.554      155.119      150.740        0.669        0.028      112.524        5.861        0.003      333.442        2.758      866.273
12/09/2014  00:16:00     -106.646      -31.713      -15.654       20.734       32.865       14.932      429.918     1080.132      222.968        0.718        0.087      111.262        8.783        0.006      333.241        2.427      866.265
12/09/2014  00:17:00     -102.347      -22.834       -8.343       26.354       22.381       17.024      694.538      500.927      289.807        0.628        0.074      104.863       14.007        0.018      333.136        2.254      866.264
12/09/2014  00:18:00     -100.088      -25.168       -3.461       33.169       26.681       15.599     1100.151      711.874      243.340        0.636        0.103      103.204       15.346        0.022      333.106        2.204      866.267
12/09/2014  00:19:00      -79.492      -13.481        0.480       33.189       30.005       18.736     1101.533      900.283      351.046        0.443        0.118       80.627       16.489        0.042      333.085        2.169      866.270
12/09/2014  00:20:00     -133.040       31.932       -7.168       51.533       34.343       24.764     2655.660     1179.432      613.242        1.161        0.222      136.818       17.115        0.016      333.168        2.305      866.268
12/09/2014  00:21:00     -136.713       34.200      -17.440       31.569       32.380       18.798      996.625     1048.476      353.382        1.128        0.120      140.926       14.016        0.010      333.203        2.362      866.260
12/09/2014  00:22:00     -157.023       31.502      -11.486       24.320       30.517       16.383      591.455      931.285      268.399        1.379        0.090      160.152       10.640        0.004      333.243        2.429      866.264
12/09/2014  00:23:00     -134.403        0.647       -8.918       29.924       38.906       23.597      895.458     1513.708      556.812        1.055        0.148      134.405       13.578        0.010      333.213        2.379      866.267
12/09/2014  00:24:00     -145.836      -20.130      -13.566       41.349       35.995       24.301     1709.734     1295.673      590.550        1.273        0.180      147.218       19.975        0.018      333.196        2.352      866.267
12/09/2014  00:25:00     -114.450      -27.282      -16.709       37.982       42.322       23.063     1442.632     1791.142      531.895        0.894        0.188      117.657       13.290        0.013      333.170        2.309      866.254
12/09/2014  00:26:00     -159.452       22.791      -18.452       37.921       40.415       21.335     1437.997     1633.355      455.176        1.490        0.176      161.072       15.615        0.009      333.275        2.482      866.245
12/09/2014  00:27:00     -158.532        8.688      -16.492       32.521       48.670       26.560     1057.589     2368.755      705.437        1.481        0.207      158.770       16.575        0.011      333.339        2.589      866.235
12/09/2014  00:28:00     -172.446       50.952      -11.035       44.479       34.933       28.585     1978.362     1220.316      817.124        1.823        0.201      179.816       26.512        0.022      333.342        2.593      866.221
12/09/2014  00:29:00     -165.149       57.752      -12.855       42.979       30.805       25.343     1847.216      948.933      642.248        1.711        0.172      174.956       14.871        0.007      333.454        2.779      866.211
12/09/2014  00:30:00     -150.894       45.047      -10.702       48.114       27.256       17.168     2314.967      742.867      294.756        1.413        0.168      157.475       11.190        0.005      333.406        2.700      866.217
12/09/2014  00:31:00     -172.297       50.524       -9.688       28.663       26.545       16.602      821.540      704.661      275.641        1.707        0.090      179.552       12.662        0.005      333.376        2.650      866.226
12/09/2014  00:32:00     -159.151       50.768      -15.544       36.385       28.349       23.859     1323.850      803.650      569.266        1.542        0.135      167.053       16.219        0.009      333.304        2.531      866.236
12/09/2014  00:33:00     -167.146       51.063      -13.362       33.430       24.582       19.296     1117.573      604.250      372.355        1.641        0.105      174.772       14.150        0.007      333.376        2.650      866.234
12/09/2014  00:34:00     -143.980       40.055      -11.187       41.585       35.140       19.362     1729.319     1234.796      374.903        1.290        0.167      149.447       13.700        0.008      333.369        2.639      866.218
12/09/2014  00:35:00     -117.964       36.556       -4.402       30.363       32.379       21.374      921.916     1048.390      456.849        0.885        0.121      123.498       13.714        0.012      333.438        2.753      866.231
12/09/2014  00:36:00     -179.766       21.848      -17.564       28.129       31.517       19.940      791.266      993.353      397.623        1.764        0.109      181.089       15.923        0.008      333.368        2.638      866.243
12/09/2014  00:37:00     -184.623       13.832      -16.820       25.750       26.865       17.032      663.050      721.753      290.102        1.812        0.084      185.141       12.123        0.004      333.164        2.301      866.250
12/09/2014  00:38:00     -171.509        2.665      -19.441       38.993       31.005       19.252     1520.470      961.319      370.627        1.633        0.143      171.530       19.685        0.013      333.176        2.319      866.258
12/09/2014  00:39:00     -168.732       42.583      -15.112       36.497       29.047       23.314     1332.024      843.726      543.524        1.662        0.136      174.023       18.745        0.012      333.376        2.649      866.238
12/09/2014  00:40:00     -134.690       42.750      -10.506       34.576       23.374       21.507     1195.521      546.341      462.532        1.114        0.110      141.311       14.449        0.010      333.409        2.706      866.204
12/09/2014  00:41:00     -117.838       -5.794       -9.713       31.871       28.906       17.627     1015.758      835.545      310.724        0.809        0.108      117.980       12.679        0.012      333.426        2.731      866.194
12/09/2014  00:42:00     -135.196      -28.446      -14.293       45.054       23.383       17.091     2029.897      546.747      292.093        1.108        0.143      138.156       18.779        0.018      333.324        2.563      866.197
12/09/2014  00:43:00     -160.771        0.023      -15.610       39.625       23.283       18.665     1570.174      542.081      348.364        1.428        0.123      160.771       17.495        0.012      333.307        2.537      866.211
12/09/2014  00:44:00     -142.747       24.897      -12.316       29.389       35.896       21.051      863.701     1288.504      443.158        1.187        0.130      144.902       13.715        0.009      333.406        2.699      866.208
12/09/2014  00:45:00     -139.484       48.035      -13.191       40.020       21.299       16.089     1601.612      453.649      258.866        1.213        0.116      147.524       13.047        0.008      333.583        2.992      866.187
12/09/2014  00:46:00     -120.113       15.641       -5.539       39.840       32.314       15.937     1587.207     1044.201      253.980        0.879        0.144      121.127       19.191        0.025      333.615        3.046      866.162
12/09/2014  00:47:00      -89.045      -24.193       -8.071       23.518       22.490       14.173      553.076      505.818      200.882        0.492        0.063       92.273       13.137        0.020      333.492        2.841      866.140
12/09/2014  00:48:00      -97.810      -42.566       -6.941       17.141       24.253       12.750      293.829      588.196      162.563        0.624        0.052      106.671        5.111        0.002      333.460        2.788      866.135
12/09/2014  00:49:00     -117.308      -49.879       -5.795       21.976       18.779       14.704      482.948      352.636      216.206        0.867        0.053      127.472       10.140        0.006      333.389        2.672      866.133
12/09/2014  00:50:00     -128.056      -36.836       -6.539       37.665       30.342       18.425     1418.656      920.634      339.485        1.024        0.134      133.249       14.742        0.012      333.298        2.521      866.139
12/09/2014  00:51:00      -83.848      -25.654        0.877       51.672       39.384       23.932     2669.999     1551.107      572.755        0.624        0.240       87.684       26.151        0.089      333.229        2.408      866.155
12/09/2014  00:52:00     -157.906       18.661      -14.865       44.767       38.015       25.240     2004.129     1445.167      637.037        1.479        0.204      159.005       20.858        0.017      333.232        2.412      866.164
12/09/2014  00:53:00     -190.509        7.593      -20.925       40.663       34.696       25.279     1653.490     1203.800      639.028        2.014        0.175      190.660       25.166        0.017      333.270        2.471      866.188
12/09/2014  00:54:00     -153.858      -22.158       -6.797       52.888       39.424       28.623     2797.174     1554.289      819.285        1.469        0.259      155.445       25.716        0.027      333.157        2.287      866.216
12/09/2014  00:55:00     -127.485      -22.452       -6.351       40.493       29.658       21.190     1639.674      879.607      449.023        0.988        0.148      129.447       18.010        0.019      333.144        2.267      866.226
12/09/2014  00:56:00      -84.381      -24.531       -1.569       31.817       24.057       17.562     1012.348      578.733      308.441        0.481        0.095       87.875       14.284        0.026      333.150        2.276      866.206
12/09/2014  00:57:00      -81.247      -51.258       -0.451       35.482       37.046       17.942     1258.948     1372.375      321.919        0.609        0.148       96.065       19.792        0.042      333.214        2.383      866.197
12/09/2014  00:58:00      -85.188      -47.362        5.215       35.407       23.308       17.650     1253.683      543.281      311.527        0.582        0.105       97.468       15.322        0.025      333.247        2.434      866.180
12/09/2014  00:59:00      -33.839      -10.800        5.927       28.857       17.458       16.080      832.710      304.779      258.579        0.135        0.070       35.520       18.618        0.275      333.176        2.319      866.150
12/09/2014  01:00:00      -74.904      -23.036      -12.032       10.362        7.888        6.884      107.373       62.216       47.388        0.325        0.011       78.367        1.698        0.000      333.213        2.380      866.127
12/09/2014  01:01:00      -82.381      -28.142       -2.651       13.665       13.938        7.361      186.737      194.276       54.184        0.401        0.022       87.055        3.960        0.002      333.274        2.480      866.112
12/09/2014  01:02:00      -93.275      -40.614        3.852       29.509       18.987       16.499      870.757      360.503      272.223        0.593        0.075      101.733       13.588        0.018      333.278        2.488      866.119
12/09/2014  01:03:00     -101.293      -67.294       -0.075       43.692       30.594       24.340     1908.967      935.976      592.448        0.911        0.172      121.609       18.000        0.022      333.173        2.314      866.129
12/09/2014  01:04:00     -123.046      -74.259        3.230       38.485       33.866       24.744     1481.069     1146.902      612.264        1.195        0.162      143.717       21.471        0.022      333.122        2.229      866.129
12/09/2014  01:05:00     -131.285      -61.994       -0.887       32.024       26.929       15.211     1025.565      725.168      231.366        1.153        0.099      145.186       10.359        0.005      333.146        2.271      866.124
12/09/2014  01:06:00     -126.875      -59.362       -1.936       32.062       19.706       18.517     1027.946      388.336      342.870        1.069        0.088      140.076       17.623        0.016      333.135        2.251      866.128
12/09/2014  01:07:00     -117.903      -63.834       -9.059       26.230       21.553       17.632      687.992      464.511      310.875        0.976        0.073      134.075       10.464        0.006      333.146        2.270      866.126
12/09/2014  01:08:00      -85.657      -47.820        4.706       55.287       35.410       24.618     3056.641     1253.870      606.044        0.728        0.246       98.101       23.517        0.057      333.110        2.210      866.117
12/09/2014  01:09:00      -71.211      -35.556       10.332       56.173       37.968       29.391     3155.418     1441.585      863.837        0.595        0.273       79.594       28.423        0.128      333.164        2.300      866.109
12/09/2014  01:10:00      -88.499      -72.939       -3.022       47.705       38.275       22.240     2275.798     1464.969      494.613        0.870        0.212      114.683       23.643        0.043      333.165        2.301      866.093
12/09/2014  01:11:00     -126.081      -69.471       -5.514       39.409       34.645       24.820     1553.062     1200.266      616.039        1.206        0.168      143.954       24.454        0.029      333.190        2.343      866.071
12/09/2014  01:12:00     -141.614      -64.905       -7.254       34.755       24.202       19.221     1207.886      585.719      369.451        1.324        0.108      155.779       20.641        0.018      333.167        2.304      866.062
12/09/2014  01:13:00     -113.859      -74.781       -6.187       51.736       26.695       24.184     2676.650      712.635      584.872        1.128        0.199      136.221       22.898        0.028      333.166        2.303      866.079
12/09/2014  01:14:00      -78.053      -57.620        2.149       39.621       26.512       13.446     1569.819      702.870      180.783        0.593        0.123       97.017       14.903        0.024      333.152        2.279      866.088
12/09/2014  01:15:00      -84.859      -14.566       -9.252       26.939       24.724       19.932      725.717      611.282      397.289        0.462        0.087       86.100       13.640        0.025      333.302        2.527      866.059
12/09/2014  01:16:00      -92.089       -3.390      -12.808       16.253       26.736       12.934      264.166      714.822      167.301        0.490        0.057       92.151       12.575        0.019      333.402        2.693      866.042
12/09/2014  01:17:00      -64.971      -28.511        3.847       31.911       24.217       16.599     1018.280      586.459      275.542        0.346        0.094       70.951       17.129        0.058      333.226        2.401      866.044
12/09/2014  01:18:00       -8.190       -8.788       18.080       19.725       14.152       11.937      389.087      200.284      142.481        0.060        0.037       12.012        9.856        0.673      333.189        2.340      866.061
12/09/2014  01:19:00       26.789       30.156       10.775       17.729       19.664        8.025      314.309      386.681       64.401        0.125        0.038       40.336        3.233        0.006      333.178        2.321      866.055
12/09/2014  01:20:00       32.173       33.432       -1.332       20.792        9.990       10.479      432.289       99.794      109.818        0.140        0.032       46.398        8.596        0.034      333.278        2.487      866.065
12/09/2014  01:21:00      -33.071        7.029       -5.398       21.562        8.888        8.034      464.910       79.003       64.541        0.089        0.030       33.810        5.030        0.022      333.236        2.418      866.118
12/09/2014  01:22:00      -60.451       -6.831       -4.913       21.560       19.248       11.182      464.813      370.495      125.032        0.234        0.048       60.835       10.211        0.028      333.024        2.067      866.168
12/09/2014  01:23:00      -49.863        8.131        1.115       15.446       16.161       13.594      238.582      261.192      184.785        0.162        0.034       50.521       11.414        0.051      333.027        2.073      866.190
12/09/2014  01:24:00      -70.370        8.911       -5.749       15.332       12.628        8.320      235.057      159.464       69.226        0.276        0.023       70.932        6.261        0.008      333.124        2.234      866.192
12/09/2014  01:25:00      -78.014      -10.797      -11.361        9.718        8.763        5.772       94.436       76.789       33.320        0.327        0.010       78.757        3.762        0.002      333.201        2.359      866.208
12/09/2014  01:26:00      -57.699      -32.822       -0.261       18.362       12.403        8.683      337.174      153.839       75.395        0.249        0.028       66.381       10.089        0.023      333.174        2.315      866.230
12/09/2014  01:27:00      -43.433      -28.579       -0.596       18.345       14.003       14.592      336.522      196.084      212.914        0.172        0.037       51.993       10.949        0.044      333.170        2.310      866.241
12/09/2014  01:28:00      -71.992      -22.824       -5.020       10.609       11.600        7.534      112.559      134.559       56.762        0.302        0.015       75.523        4.531        0.004      333.120        2.228      866.240
12/09/2014  01:29:00      -55.456      -13.862       -8.332       16.159       14.051        9.204      261.107      197.440       84.707        0.194        0.027       57.162        7.091        0.015      333.128        2.239      866.251
12/09/2014  01:30:00      -51.864      -19.786       -7.184       12.060       10.996        6.584      145.439      120.916       43.345        0.172        0.015       55.511        2.745        0.002      333.143        2.268      866.271
12/09/2014  01:31:00      -56.746      -15.354       -2.944       13.137       10.665        6.663      172.580      113.732       44.389        0.190        0.017       58.787        6.550        0.012      333.173        2.315      866.288
12/09/2014  01:32:00      -38.486       -4.885        1.349       17.009       13.343        7.751      289.306      178.037       60.082        0.102        0.026       38.795        5.944        0.023      333.180        2.325      866.282
12/09/2014  01:33:00      -62.082       20.316       -7.368       12.104       14.977        7.728      146.506      224.307       59.718        0.238        0.022       65.321        6.796        0.011      333.294        2.516      866.278
12/09/2014  01:34:00      -59.400       43.801      -11.759       13.690       15.440       13.514      187.429      238.396      182.620        0.310        0.030       73.803       11.756        0.025      333.331        2.575      866.278
12/09/2014  01:35:00      -44.950       27.817      -10.236        8.989        7.492        6.382       80.800       56.136       40.736        0.154        0.009       52.861        3.618        0.005      333.381        2.657      866.301
12/09/2014  01:36:00      -51.457       25.977       -8.681       11.566       10.619        7.651      133.775      112.763       58.538        0.185        0.015       57.643        5.600        0.009      333.434        2.746      866.326
12/09/2014  01:37:00      -41.056       -0.844       -3.492        7.753        8.816        4.842       60.102       77.730       23.445        0.093        0.008       41.064        4.252        0.011      333.451        2.774      866.346
12/09/2014  01:38:00      -37.481        1.620        2.956       16.786       15.173        6.962      281.759      230.227       48.469        0.099        0.028       37.516        7.544        0.040      333.305        2.532      866.348
12/09/2014  01:39:00       20.186       28.426       11.054       15.540       15.074       14.383      241.496      227.238      206.867        0.101        0.034       34.864       11.678        0.112      333.142        2.263      866.335
12/09/2014  01:40:00       14.563       35.107       -7.207       10.865       12.572        7.272      118.057      158.063       52.882        0.091        0.016       38.008        3.598        0.009      332.991        2.015      866.324
12/09/2014  01:41:00        2.607       24.587        0.729       12.951       33.683       12.781      167.721     1134.551      163.365        0.104        0.073       24.725       18.064        0.534      332.932        1.917      866.348
12/09/2014  01:42:00        7.840       79.346       -7.610        6.760       13.702        7.846       45.702      187.739       61.567        0.336        0.015       79.732        4.843        0.004      332.951        1.948      866.374
12/09/2014  01:43:00       27.454       68.936       -6.042       14.788       28.422       15.751      218.688      807.829      248.100        0.341        0.064       74.202       13.092        0.031      332.878        1.826      866.390
12/09/2014  01:44:00       39.990       36.511        0.148       13.902       16.844       14.749      193.259      283.724      217.529        0.181        0.035       54.150       10.066        0.035      332.870        1.814      866.408
12/09/2014  01:45:00       21.441       14.475       -0.494       10.845       12.208        6.259      117.615      149.036       39.175        0.049        0.015       25.870        3.480        0.018      332.841        1.767      866.428
12/09/2014  01:46:00       23.473        7.360       -1.030       12.564        8.587        9.694      157.852       73.743       93.973        0.047        0.016       24.600        5.506        0.050      332.916        1.889      866.445
12/09/2014  01:47:00       -1.469       -9.093        1.962        8.546        9.360        8.038       73.034       87.613       64.605        0.016        0.011        9.211        4.947        0.288      332.970        1.979      866.461
12/09/2014  01:48:00        7.284       21.377       13.321       15.054       10.424       10.780      226.628      108.670      116.199        0.057        0.023       22.584        7.230        0.102      332.920        1.897      866.455
12/09/2014  01:49:00       64.572       45.903       19.562       22.675       13.723        9.865      514.169      188.322       97.313        0.373        0.040       79.225        9.089        0.013      333.027        2.074      866.403
12/09/2014  01:50:00       55.672       62.321       -3.365       30.171       27.884       23.657      910.276      777.496      559.641        0.462        0.112       83.566       20.820        0.062      332.887        1.843      866.346
12/09/2014  01:51:00       87.060       57.599        8.982       23.528       30.401       22.957      553.567      924.250      527.028        0.649        0.100      104.389       11.594        0.012      332.866        1.808      866.332
12/09/2014  01:52:00       53.458       34.719        8.200       30.704       30.774       20.511      942.713      947.060      420.712        0.322        0.116       63.743        8.757        0.019      332.935        1.921      866.353
12/09/2014  01:53:00       88.535       47.227       16.344       15.105       10.992       12.122      228.169      120.827      146.933        0.542        0.025      100.344        7.128        0.005      332.999        2.027      866.381
12/09/2014  01:54:00      107.003       48.786       10.867       23.755       15.652       16.387      564.280      244.992      268.534        0.751        0.054      117.600       15.145        0.017      332.994        2.018      866.371
12/09/2014  01:55:00       77.937       28.633        7.638       30.331       19.235       16.346      919.949      369.986      267.189        0.425        0.078       83.030       11.994        0.021      333.027        2.075      866.388
12/09/2014  01:56:00       60.249       34.400       40.522       21.650       19.000       22.505      468.704      361.011      506.497        0.390        0.067       69.378       12.091        0.030      333.039        2.093      866.419
12/09/2014  01:57:00       43.214       35.668       54.312       27.150       22.956       15.334      737.131      526.970      235.141        0.379        0.075       56.033       13.560        0.059      333.054        2.118      866.437
12/09/2014  01:58:00       42.210       52.329       53.371       40.035       26.156       22.494     1602.786      684.130      505.960        0.508        0.140       67.231       22.449        0.111      333.028        2.075      866.445
12/09/2014  01:59:00       60.020       38.383       39.198       43.460       28.955       25.167     1888.797      838.376      633.379        0.499        0.168       71.244       16.858        0.056      332.949        1.944      866.455
12/09/2014  02:00:00      111.049       67.499       16.148       21.688       22.736       32.379      470.378      516.911     1048.410        0.959        0.102      129.953       12.590        0.009      332.877        1.827      866.461
12/09/2014  02:01:00       51.093       47.309       59.579       37.734       31.692       32.247     1423.829     1004.354     1039.886        0.593        0.173       69.632       18.665        0.072      332.779        1.663      866.495
12/09/2014  02:02:00       32.480       48.209       65.904       40.763       34.736       29.725     1661.588     1206.556      883.546        0.574        0.188       58.129       27.210        0.219      332.811        1.717      866.529
12/09/2014  02:03:00       49.402       49.140       54.455       36.681       41.738       31.015     1345.524     1742.069      961.909        0.593        0.202       69.680       30.916        0.197      332.783        1.670      866.570
12/09/2014  02:04:00       46.764       29.651       34.512       25.514       23.965       24.089      650.978      574.298      580.290        0.303        0.090       55.372       20.520        0.137      332.803        1.704      866.613
12/09/2014  02:05:00       42.903       14.512       23.252       23.615       15.598       19.961      557.658      243.302      398.430        0.190        0.060       45.291       14.870        0.108      332.776        1.658      866.650
12/09/2014  02:06:00       32.880        9.028       18.946       22.277       12.623       12.927      496.280      159.334      167.114        0.117        0.041       34.097       14.402        0.178      332.776        1.660      866.689
12/09/2014  02:07:00       26.427       15.745       22.717       17.948       16.308       14.690      322.119      265.956      215.790        0.113        0.040       30.762       13.616        0.196      332.793        1.688      866.729
12/09/2014  02:08:00       25.264       27.787       45.050       29.667       26.908       15.887      880.114      724.044      252.401        0.265        0.093       37.555       14.350        0.146      332.856        1.793      866.732
12/09/2014  02:09:00       45.731       65.505       55.777       59.299       36.204       38.875     3516.420     1310.699     1511.245        0.791        0.317       79.889       43.306        0.294      332.831        1.750      866.675
12/09/2014  02:10:00      101.344       50.352       30.072       39.192       28.731       32.353     1536.009      825.476     1046.699        0.856        0.170      113.164       29.377        0.067      332.826        1.742      866.608
12/09/2014  02:11:00      121.735       61.334       15.472       30.558       25.076       25.250      933.795      628.809      637.548        1.051        0.110      136.314       18.436        0.018      332.768        1.646      866.581
12/09/2014  02:12:00      102.186       74.814       17.290       29.984       22.965       27.476      899.041      527.380      754.954        0.926        0.109      126.645       21.659        0.029      332.725        1.574      866.571
12/09/2014  02:13:00       92.833       40.112       10.731       28.694       22.507       13.567      823.319      506.567      184.064        0.593        0.076      101.128       12.382        0.015      332.703        1.538      866.588
12/09/2014  02:14:00       13.326      -21.821       11.370       22.103       34.974       16.348      488.536     1223.153      267.249        0.138        0.099       25.568       14.976        0.343      332.843        1.770      866.637
12/09/2014  02:15:00       22.620       -4.966       21.176       28.625       25.992       18.454      819.367      675.564      340.559        0.141        0.092       23.159       14.097        0.371      332.885        1.840      866.666
12/09/2014  02:16:00       68.785      -29.270        9.023       36.703       20.245       16.927     1347.101      409.874      286.507        0.386        0.102       74.753       14.543        0.038      332.941        1.931      866.652
12/09/2014  02:17:00       37.814       -3.824        1.902       15.365       25.293       11.545      236.078      639.746      133.285        0.123        0.050       38.007        8.192        0.046      332.939        1.930      866.612
12/09/2014  02:18:00       34.408       32.119        2.654       20.039       20.474       16.614      401.553      419.176      276.014        0.166        0.055       47.070        2.086        0.002      332.857        1.795      866.604
12/09/2014  02:19:00       63.755       24.622        9.625       18.197       10.838       15.258      331.123      117.472      232.804        0.272        0.034       68.344       11.623        0.029      332.825        1.742      866.610
12/09/2014  02:20:00       38.446       40.644       45.986       27.733       19.909       17.631      769.138      396.372      310.862        0.336        0.074       55.946       14.028        0.063      332.878        1.828      866.637
12/09/2014  02:21:00       -2.985       16.413       51.401       13.840       37.992       15.778      191.542     1443.410      248.944        0.240        0.094       16.683       18.240        1.195      332.934        1.921      866.691
12/09/2014  02:22:00       41.999      -52.404        0.585       35.349       43.831       26.413     1249.564     1921.172      697.665        0.419        0.193       67.157       26.625        0.157      332.991        2.014      866.744
12/09/2014  02:23:00       65.216      -64.394      -18.888       37.190       36.706       22.850     1383.101     1347.345      522.145        0.600        0.163       91.649       19.729        0.046      332.967        1.974      866.751
12/09/2014  02:24:00       59.292      -80.705       -5.337       24.332       23.839       16.731      592.032      568.278      279.913        0.575        0.072      100.144        8.148        0.007      333.038        2.091      866.762
12/09/2014  02:25:00       31.498      -36.916        1.014       19.458       28.879       18.736      378.617      833.983      351.042        0.196        0.078       48.527       18.554        0.146      333.106        2.205      866.749
12/09/2014  02:26:00       26.624        3.638       20.183       24.146       21.026       15.462      583.044      442.104      239.078        0.120        0.063       26.872       15.007        0.312      333.027        2.074      866.699
12/09/2014  02:27:00       62.796       22.096       18.675       28.368       28.213       18.365      804.733      795.966      337.264        0.336        0.097       66.570       14.885        0.050      333.142        2.262      866.660
12/09/2014  02:28:00       40.772      -16.572       10.161       15.815       17.015       15.024      250.120      289.525      225.717        0.140        0.038       44.011       11.214        0.065      333.212        2.379      866.649
12/09/2014  02:29:00       19.358      -14.593        9.230       20.942       14.510       14.572      438.563      210.537      212.334        0.077        0.043       24.243       13.522        0.311      333.202        2.361      866.634
12/09/2014  02:30:00       14.915      -17.351       -0.369       10.820       15.376        8.522      117.073      236.427       72.617        0.047        0.021       22.880        5.875        0.066      333.218        2.387      866.617
12/09/2014  02:31:00       11.890      -15.570       -1.162       12.886       14.005       12.650      166.054      196.151      160.025        0.045        0.026       19.591        9.254        0.223      333.194        2.350      866.607
12/09/2014  02:32:00      -14.541      -20.781       14.401       26.767       20.946       20.400      716.473      438.742      416.151        0.121        0.079       25.363       18.928        0.557      332.961        1.965      866.641
12/09/2014  02:33:00      -66.662      -41.269        5.417       38.716       23.856       19.888     1498.948      569.124      395.525        0.432        0.123       78.402       18.668        0.057      332.988        2.008      866.640
12/09/2014  02:34:00      -58.107       10.756        0.981       30.618       24.694       15.380      937.491      609.813      236.549        0.264        0.089       59.094       15.544        0.069      332.933        1.918      866.580
12/09/2014  02:35:00      -54.659       23.921       -9.022       13.052       15.323        7.013      170.343      234.784       49.179        0.205        0.023       59.664        6.802        0.013      332.998        2.026      866.512
12/09/2014  02:36:00      -61.921      -14.628       -5.112        8.157       13.791        7.816       66.532      190.193       61.088        0.220        0.016       63.626        4.251        0.004      333.050        2.111      866.493
12/09/2014  02:37:00      -76.451      -28.408      -12.556       10.411        8.746        7.798      108.390       76.499       60.815        0.353        0.012       81.558        6.336        0.006      333.000        2.029      866.483
12/09/2014  02:38:00      -70.039      -16.034       -6.571       22.220       14.172       14.509      493.733      200.833      210.500        0.306        0.045       71.851       11.340        0.025      332.930        1.912      866.474
12/09/2014  02:39:00      -52.446      -10.084       -3.640       17.780       23.377       10.040      316.112      546.507      100.805        0.191        0.048       53.407        4.896        0.008      332.916        1.891      866.466
12/09/2014  02:40:00      -62.637        6.483      -10.426       11.814       14.378        8.236      139.578      206.719       67.830        0.224        0.021       62.972        4.096        0.004      332.846        1.776      866.461
12/09/2014  02:41:00      -77.604      -14.276      -12.231       10.781        7.804        8.627      116.224       60.902       74.430        0.331        0.013       78.906        6.807        0.007      332.912        1.883      866.473
12/09/2014  02:42:00      -78.692      -33.650       -9.164        8.726       11.614        6.596       76.152      134.885       43.511        0.383        0.013       85.585        5.550        0.004      332.935        1.920      866.498
12/09/2014  02:43:00      -58.876      -31.459        0.265       13.519       15.381       12.795      182.769      236.583      163.703        0.252        0.029       66.753        6.772        0.010      332.904        1.870      866.512
12/09/2014  02:44:00        3.226      -27.694       -3.755       18.578       14.146       12.221      345.124      200.105      149.355        0.074        0.035       27.881        9.818        0.124      333.036        2.089      866.462
12/09/2014  02:45:00        5.674       20.550       37.485       19.831       19.804       21.301      393.266      392.199      453.720        0.155        0.062       21.319       11.336        0.283      333.074        2.151      866.384
12/09/2014  02:46:00       15.472      -67.424        2.656       39.842       44.704       25.885     1587.361     1998.471      670.057        0.452        0.213       69.176       28.991        0.176      333.227        2.404      866.366
12/09/2014  02:47:00      -70.502      -21.740        1.525       45.513       21.642       16.866     2071.400      468.358      284.447        0.413        0.141       73.778       14.597        0.039      332.993        2.018      866.405
12/09/2014  02:48:00      -27.088        5.206       14.277       32.312       19.657       13.357     1044.064      386.416      178.409        0.129        0.080       27.584       14.691        0.284      332.913        1.887      866.415
12/09/2014  02:49:00       20.899       24.565        4.452       21.793       13.571       15.586      474.936      184.161      242.930        0.098        0.045       32.252        8.013        0.062      333.036        2.090      866.384
12/09/2014  02:50:00        7.921       35.908       -4.841       20.231        9.521       10.302      409.276       90.654      106.136        0.099        0.030       36.771        8.121        0.049      333.267        2.470      866.339
12/09/2014  02:51:00       -6.282       24.580        7.449       19.084        9.965       10.133      364.216       99.311      102.681        0.063        0.028       25.370        6.543        0.067      333.315        2.548      866.311
12/09/2014  02:52:00      -24.340        3.336       -2.655       15.127        8.426        6.881      228.815       70.992       47.353        0.048        0.017       24.568        6.083        0.061      333.245        2.433      866.278
12/09/2014  02:53:00      -24.339       -1.082        1.321        6.655        5.268        2.991       44.291       27.750        8.945        0.034        0.004       24.363        2.177        0.008      333.144        2.264      866.250
12/09/2014  02:54:00      -10.220      -20.972        0.042       20.316       10.540       11.380      412.732      111.082      129.507        0.060        0.033       23.329        8.241        0.125      333.155        2.284      866.235
12/09/2014  02:55:00        1.267      -15.443        3.246        6.828        8.239        9.918       46.623       67.888       98.373        0.023        0.011       15.495        4.343        0.079      333.111        2.212      866.212
12/09/2014  02:56:00       -7.019      -13.218        0.897       10.145        7.553        8.688      102.930       57.041       75.478        0.023        0.012       14.966        7.484        0.250      332.954        1.951      866.187
12/09/2014  02:57:00       -0.616       -4.853        7.137        4.354        5.846        5.213       18.959       34.171       27.178        0.008        0.004        4.892        4.495        0.844      332.988        2.008      866.164
12/09/2014  02:58:00      -14.313      -11.391        1.469       15.000        9.730        7.263      224.992       94.670       52.750        0.035        0.019       18.292        3.769        0.042      332.892        1.850      866.158
12/09/2014  02:59:00      -14.941      -28.652       -8.527       12.502       12.934        8.465      156.309      167.284       71.653        0.076        0.020       32.314        5.288        0.027      332.810        1.716      866.185
12/09/2014  03:00:00      -46.264      -10.059        0.299       31.346       11.885       15.334      982.594      141.262      235.119        0.180        0.068       47.345       16.279        0.118      332.715        1.558      866.188
12/09/2014  03:01:00      -72.805        8.964       -8.134       13.830       12.575        8.181      191.261      158.130       66.930        0.293        0.021       73.355        6.893        0.009      332.668        1.481      866.161
12/09/2014  03:02:00      -73.321       21.284      -11.873       15.080       13.082        7.240      227.408      171.129       52.425        0.321        0.023       76.348        2.592        0.001      332.658        1.463      866.109
12/09/2014  03:03:00      -60.346      -19.388       -9.969        9.009       17.616        8.321       81.154      310.338       69.242        0.229        0.023       63.384        4.547        0.005      332.735        1.592      866.077
12/09/2014  03:04:00      -76.243      -29.835       -8.393       17.372       12.911       10.135      301.773      166.706      102.717        0.367        0.029       81.872        2.431        0.001      332.580        1.334      866.060
12/09/2014  03:05:00     -104.046      -12.070       -7.433       18.995       18.014       13.072      360.793      324.516      170.875        0.594        0.043      104.744       10.336        0.010      332.585        1.341      866.041
12/09/2014  03:06:00     -100.799       11.733       -9.468       36.696       19.944       16.892     1346.602      397.773      285.354        0.621        0.101      101.479       16.501        0.026      332.509        1.217      866.019
12/09/2014  03:07:00      -66.581       -6.599       -4.465       32.117       26.962       19.957     1031.515      726.942      398.292        0.333        0.108       66.908       20.811        0.097      332.489        1.185      866.001
12/09/2014  03:08:00      -71.455        0.286       -3.078       25.941       27.645       21.519      672.912      764.241      463.053        0.351        0.095       71.456       13.423        0.035      332.440        1.103      866.001
12/09/2014  03:09:00      -60.809       -3.848       -7.805       43.433       30.044       17.903     1886.409      902.642      320.528        0.344        0.155       60.930       14.033        0.053      332.483        1.176      865.994
12/09/2014  03:10:00      -63.566       16.472       -5.707       33.080       28.849       21.368     1094.284      832.282      456.601        0.336        0.119       65.665       14.622        0.050      332.514        1.227      865.978
12/09/2014  03:11:00      -88.916       14.604      -13.396       32.856       29.209       20.432     1079.519      853.193      417.485        0.532        0.118       90.108       17.113        0.036      332.541        1.271      865.963
12/09/2014  03:12:00      -64.393       17.334       -9.213       40.379       30.417       26.090     1630.499      925.172      680.667        0.388        0.162       66.686       18.525        0.077      332.555        1.293      865.943
12/09/2014  03:13:00      -95.589       21.979      -19.518       49.234       39.948       22.921     2423.999     1595.843      525.365        0.727        0.227       98.083       16.137        0.027      332.687        1.514      865.911
12/09/2014  03:14:00      -68.278       11.581        7.113       64.950       53.369       30.675     4218.513     2848.303      940.964        0.643        0.400       69.253       15.654        0.051      332.573        1.323      865.892
12/09/2014  03:15:00     -162.803      -27.242      -13.298       69.230       49.982       31.523     4792.820     2498.216      993.678        1.785        0.414      165.067       35.120        0.045      332.437        1.097      865.886
12/09/2014  03:16:00      -98.661       -6.988      -13.305       55.094       51.578       23.675     3035.333     2660.271      560.506        0.811        0.313       98.908       13.169        0.018      332.406        1.048      865.858
12/09/2014  03:17:00     -162.548       -9.652      -20.790       38.232       46.125       25.442     1461.706     2127.500      647.283        1.559        0.212      162.835       19.303        0.014      332.531        1.253      865.857
12/09/2014  03:18:00     -160.623      -54.722      -17.362       66.902       59.215       29.926     4475.913     3506.387      895.549        1.899        0.444      169.689       32.033        0.036      332.527        1.245      865.859
12/09/2014  03:19:00     -166.709      -78.456      -10.183       40.216       50.222       28.051     1617.347     2522.253      786.853        1.949        0.246      184.248       20.734        0.013      332.426        1.080      865.860
12/09/2014  03:20:00     -128.772       -4.927       -3.231       52.721       37.795       26.510     2779.547     1428.468      702.804        1.076        0.246      128.866       30.563        0.056      332.373        0.994      865.853
12/09/2014  03:21:00     -115.866       23.049      -15.478       39.699       23.046       19.014     1576.026      531.107      361.525        0.833        0.123      118.136       16.278        0.019      332.324        0.913      865.855
12/09/2014  03:22:00     -140.082       26.557       -9.803       42.550       28.285       18.711     1810.520      800.059      350.107        1.169        0.148      142.578       17.624        0.015      332.380        1.004      865.873
12/09/2014  03:23:00     -159.034       13.910      -13.940       16.249       16.899       11.460      264.037      285.571      131.321        1.318        0.034      159.642        8.240        0.003      332.408        1.051      865.882
12/09/2014  03:24:00     -144.565        6.615      -17.375       28.510       24.922       16.963      812.811      621.116      287.742        1.148        0.086      144.716       13.461        0.009      332.472        1.156      865.865
12/09/2014  03:25:00     -165.742       25.980      -11.100       41.351       28.323       16.947     1709.876      802.203      287.216        1.553        0.140      167.766       15.813        0.009      332.623        1.406      865.823
12/09/2014  03:26:00     -145.426       25.304       -5.082       32.699       35.313       18.408     1069.202     1247.004      338.839        1.223        0.133      147.611       19.057        0.017      332.643        1.438      865.757
12/09/2014  03:27:00      -85.362      -22.272       -1.429       36.659       25.976       20.105     1343.869      674.733      404.230        0.510        0.121       88.220       23.561        0.071      332.750        1.615      865.733
12/09/2014  03:28:00     -100.371      -41.802      -12.141       43.381       24.583       19.309     1881.936      604.309      372.846        0.741        0.143      108.728       14.429        0.018      332.728        1.580      865.746
12/09/2014  03:29:00     -149.634      -55.409       -7.432       30.969       27.509       17.782      959.084      756.764      316.209        1.377        0.102      159.564       15.853        0.010      332.627        1.413      865.757
12/09/2014  03:30:00     -158.536      -17.220      -12.134       36.661       26.865       21.012     1344.013      721.727      441.493        1.404        0.125      159.468       23.245        0.021      332.560        1.300      865.747
12/09/2014  03:31:00     -125.201      -19.087       -9.484       39.878       33.605       20.697     1590.243     1129.314      428.355        0.964        0.157      126.647       20.039        0.025      332.502        1.204      865.724
12/09/2014  03:32:00     -136.322       23.788       -9.287       59.283       46.032       31.032     3514.489     2118.978      963.001        1.291        0.330      138.382       23.840        0.030      332.651        1.452      865.702
12/09/2014  03:33:00     -216.799       49.763      -15.471       29.141       30.589       20.875      849.224      935.680      435.752        2.597        0.111      222.437       13.747        0.004      332.706        1.540      865.700
12/09/2014  03:34:00     -164.533        6.474      -16.423       48.506       36.882       18.893     2352.872     1360.288      356.952        1.573        0.204      164.660       21.223        0.017      332.630        1.417      865.698
12/09/2014  03:35:00     -176.323       29.127      -13.801       66.911       28.772       24.461     4477.147      827.827      598.350        1.901        0.295      178.712       29.206        0.027      332.682        1.502      865.707
12/09/2014  03:36:00     -184.154       17.001      -14.622       41.264       38.561       24.861     1702.699     1486.959      618.050        1.911        0.190      184.937       16.601        0.008      332.651        1.450      865.723
12/09/2014  03:37:00     -166.790       70.970      -13.501       57.912       34.934       25.510     3353.843     1220.360      650.762        1.913        0.261      181.261       19.518        0.012      332.801        1.700      865.744
12/09/2014  03:38:00     -212.497       78.654      -14.367       47.399       30.250       26.440     2246.680      915.065      699.053        2.770        0.193      226.586       17.910        0.006      332.952        1.946      865.745
12/09/2014  03:39:00     -157.507       -2.747       -7.618       67.058       59.222       34.773     4496.838     3507.222     1209.149        1.704        0.461      157.531       34.470        0.048      332.878        1.828      865.759
12/09/2014  03:40:00     -206.729      -40.797      -29.357       62.691       40.767       29.561     3930.168     1661.939      873.834        2.586        0.323      210.716       30.056        0.020      332.856        1.788      865.774
12/09/2014  03:41:00     -187.774        8.260      -16.450       53.266       60.472       33.805     2837.264     3656.901     1142.801        2.162        0.382      187.955       30.146        0.026      332.816        1.724      865.778
12/09/2014  03:42:00     -234.688       90.204      -24.322       72.063       39.736       34.661     5193.119     1578.915     1201.385        3.589        0.399      251.427       28.852        0.013      333.125        2.233      865.753
12/09/2014  03:43:00     -109.020       13.594        7.668       80.694       54.259       35.573     6511.490     2944.026     1265.431        1.142        0.536      109.864       41.954        0.146      332.940        1.930      865.753
12/09/2014  03:44:00      -77.481      -37.024        5.384       54.018       45.192       32.176     2917.991     2042.331     1035.290        0.670        0.300       85.873       28.448        0.110      332.975        1.988      865.779
12/09/2014  03:45:00     -111.244      -41.163      -14.842       28.969       31.922       27.821      839.181     1019.026      774.027        0.846        0.132      118.615       19.278        0.026      333.043        2.100      865.799
12/09/2014  03:46:00     -140.634        6.689      -15.026       55.449       49.760       29.073     3074.626     2476.079      845.226        1.322        0.320      140.793       29.846        0.045      333.132        2.248      865.789
12/09/2014  03:47:00     -154.692       -2.378      -18.282       34.700       45.202       28.922     1204.060     2043.221      836.499        1.418        0.204      154.711       22.689        0.022      333.051        2.113      865.771
12/09/2014  03:48:00     -150.459      -10.325      -18.990       47.000       56.088       32.564     2209.045     3145.911     1060.435        1.476        0.321      150.813       26.924        0.032      332.953        1.950      865.772
12/09/2014  03:49:00     -139.775      -61.581      -20.969       54.815       47.689       36.713     3004.657     2274.246     1347.868        1.520        0.331      152.740       29.158        0.036      332.918        1.893      865.763
12/09/2014  03:50:00     -144.555       26.923      -21.702       48.774       51.340       29.603     2378.908     2635.825      876.339        1.399        0.295      147.041       27.343        0.035      332.959        1.959      865.763
12/09/2014  03:51:00     -125.882        1.321      -20.099       40.812       49.647       25.675     1665.600     2464.838      659.211        1.052        0.239      125.889       13.789        0.012      332.989        2.011      865.778
12/09/2014  03:52:00      -89.989      -10.238       -5.674       27.796       38.627       23.652      772.597     1492.023      559.432        0.553        0.141       90.570       20.125        0.049      333.046        2.105      865.791
12/09/2014  03:53:00       -1.111      -30.762       20.806       22.190       21.690       14.578      492.400      470.473      212.527        0.128        0.059       30.782        8.893        0.083      333.096        2.186      865.791
12/09/2014  03:54:00        7.565      -30.822       16.045       37.850       20.943       21.975     1432.638      438.589      482.920        0.181        0.118       31.737        7.318        0.053      333.082        2.164      865.785
12/09/2014  03:55:00      -33.062      -15.497        3.907       37.389       21.397       16.238     1397.927      457.817      263.687        0.173        0.106       36.514       13.738        0.142      333.050        2.112      865.781
12/09/2014  03:56:00       31.616       18.088       -5.061       29.798       20.945       22.706      887.891      438.691      515.581        0.160        0.092       36.425       18.565        0.260      333.049        2.110      865.792
12/09/2014  03:57:00       26.767       -5.203       10.896       20.346       22.375       17.738      413.948      500.657      314.624        0.105        0.061       27.268       14.129        0.268      333.136        2.253      865.802
12/09/2014  03:58:00      -17.981      -25.056       -6.755       36.642       12.423        8.642     1342.607      154.332       74.681        0.128        0.079       30.841        8.931        0.084      333.262        2.461      865.829
12/09/2014  03:59:00       -4.565       -8.681        2.038       25.663       24.374       17.123      658.596      594.087      293.205        0.082        0.077        9.809       10.282        1.099      333.180        2.327      865.851
12/09/2014  04:00:00      -47.350      -33.682       -0.146       35.746       20.974       12.279     1277.810      439.927      150.771        0.262        0.093       58.108       14.414        0.062      333.041        2.095      865.870
12/09/2014  04:01:00      -39.923      -13.395       -1.855       15.419       15.943        9.567      237.757      254.177       91.530        0.118        0.029       42.110        6.975        0.027      332.950        1.946      865.876
12/09/2014  04:02:00      -76.012      -21.057       -4.570       15.091       12.572       11.603      227.743      158.045      134.633        0.338        0.026       78.875        8.796        0.012      332.982        1.999      865.884
12/09/2014  04:03:00     -101.528      -29.215       -6.922       22.609       15.407       12.058      511.153      237.385      145.389        0.605        0.045      105.648        5.361        0.003      332.962        1.967      865.904
12/09/2014  04:04:00     -107.135      -49.759        0.564       17.063       13.544       11.446      291.130      183.450      131.000        0.728        0.030      118.127        8.651        0.005      333.064        2.135      865.924
12/09/2014  04:05:00      -99.848      -44.748        7.478       34.253       18.522       16.608     1173.247      343.070      275.834        0.691        0.090      109.417       16.322        0.022      333.067        2.141      865.939
12/09/2014  04:06:00      -39.264      -30.175        7.602       41.320       23.425       17.525     1707.303      548.743      307.122        0.254        0.128       49.520       16.170        0.107      333.054        2.120      865.948
12/09/2014  04:07:00      -45.591      -71.502        6.230       34.286       35.406       20.637     1175.507     1253.581      425.871        0.504        0.143       84.800       19.689        0.054      333.135        2.252      865.959
12/09/2014  04:08:00      -52.958      -65.344        2.297       45.267       43.181       19.339     2049.136     1864.628      373.980        0.568        0.214       84.109       17.550        0.044      333.207        2.369      865.960
12/09/2014  04:09:00      -91.237      -64.591       -3.432       45.571       33.328       22.831     2076.699     1110.768      521.238        0.811        0.185      111.786       18.582        0.028      333.238        2.421      865.972
12/09/2014  04:10:00      -63.019      -65.640        3.383       60.054       48.358       32.537     3606.455     2338.525     1058.632        0.765        0.350       90.994       33.288        0.134      333.172        2.313      865.995
12/09/2014  04:11:00      -26.498      -62.965        2.364       58.817       46.168       23.718     3459.409     2131.460      562.542        0.541        0.308       68.313       28.883        0.179      333.076        2.155      866.042
12/09/2014  04:12:00     -102.950      -62.936       -3.186       59.449       34.931       31.649     3534.166     1220.172     1001.681        1.016        0.288      120.663       17.029        0.020      333.012        2.048      866.094
12/09/2014  04:13:00     -120.545      -69.089      -11.640       46.110       42.188       33.863     2126.102     1779.852     1146.714        1.225        0.253      138.941       22.765        0.027      332.951        1.949      866.135
12/09/2014  04:14:00     -130.934      -95.789        1.385       56.275       40.710       33.260     3166.822     1657.325     1106.236        1.612        0.297      162.232       27.092        0.028      332.898        1.860      866.173
12/09/2014  04:15:00      -70.937      -56.277        1.129       63.202       38.499       28.967     3994.489     1482.196      839.097        0.726        0.316       90.549       21.539        0.057      332.899        1.862      866.193
12/09/2014  04:16:00      -25.565      -25.228        3.720       37.314       29.151       24.065     1392.342      849.765      579.116        0.206        0.141       35.917       18.358        0.261      332.957        1.958      866.200
12/09/2014  04:17:00      -32.447      -24.172        2.638       32.574       30.615       20.794     1061.038      937.301      432.392        0.204        0.122       40.461       21.358        0.279      333.001        2.032      866.214
12/09/2014  04:18:00      -72.720      -38.750        1.917       45.718       33.053       26.688     2090.181     1092.504      712.244        0.534        0.195       82.400       21.555        0.068      332.961        1.962      866.236
12/09/2014  04:19:00      -46.200      -28.128        2.668       26.992       38.139       18.022      728.561     1454.612      324.786        0.272        0.125       54.089       13.367        0.061      332.941        1.932      866.252
12/09/2014  04:20:00      -43.492        1.613        2.899       20.324       24.650       16.403      413.077      607.641      269.071        0.160        0.064       43.522       14.075        0.105      332.927        1.907      866.256
12/09/2014  04:21:00      -31.852      -15.924       -0.094       20.996       27.400       13.959      440.818      750.781      194.865        0.133        0.069       35.611        9.944        0.078      332.947        1.942      866.254
12/09/2014  04:22:00      -61.814      -26.511        1.564       31.989       25.211       18.475     1023.311      635.581      341.340        0.326        0.100       67.259       11.810        0.031      333.016        2.055      866.259
12/09/2014  04:23:00      -36.506      -36.734        8.103       50.972       32.199       21.171     2598.126     1036.749      448.196        0.341        0.204       51.789       22.610        0.191      332.972        1.982      866.267
12/09/2014  04:24:00      -24.671      -25.361        9.232       24.581       19.533       14.677      604.207      381.551      215.411        0.127        0.060       35.381       12.386        0.123      332.959        1.960      866.268
12/09/2014  04:25:00      -18.764      -11.783        7.263       21.230       15.982       12.817      450.726      255.420      164.264        0.071        0.044       22.157       11.699        0.279      332.974        1.984      866.265
12/09/2014  04:26:00      -37.463       -9.804        0.738       13.785       13.805        9.767      190.015      190.568       95.387        0.099        0.024       38.725        5.982        0.024      332.975        1.987      866.265
12/09/2014  04:27:00      -60.340      -48.483        3.854       33.602       27.002       19.263     1129.102      729.113      371.063        0.412        0.111       77.405       15.119        0.038      333.000        2.028      866.288
12/09/2014  04:28:00      -93.070      -61.302        0.039       69.261       30.468       32.348     4797.126      928.288     1046.363        0.959        0.339      111.445       36.981        0.110      332.934        1.921      866.312
12/09/2014  04:29:00     -114.549      -68.787        6.276       49.957       43.072       26.663     2495.750     1855.240      710.937        1.148        0.253      133.615       28.022        0.044      332.913        1.885      866.324
12/09/2014  04:30:00     -123.871      -52.363       -6.104       34.593       27.023       19.343     1196.643      730.252      374.149        1.021        0.115      134.484       14.144        0.011      332.864        1.804      866.327
12/09/2014  04:31:00     -122.023      -39.681       -7.872       21.743       22.583       17.647      472.740      509.975      311.418        0.891        0.065      128.313       11.504        0.008      332.786        1.677      866.347
12/09/2014  04:32:00      -96.043      -38.774       -1.992       34.626       28.618       15.573     1198.952      818.995      242.531        0.650        0.113      103.575       14.001        0.018      332.826        1.743      866.353
12/09/2014  04:33:00      -54.672      -55.555        1.143       22.913       29.468       13.587      525.026      868.378      184.610        0.383        0.079       77.944       10.678        0.019      332.895        1.856      866.331
12/09/2014  04:34:00      -40.624      -38.538        4.508       28.284       18.183       13.913      799.968      330.608      193.584        0.224        0.066       55.995       13.290        0.056      332.908        1.878      866.314
12/09/2014  04:35:00      -37.311      -33.675       10.084       43.460       22.080       21.638     1888.796      487.532      468.202        0.274        0.142       50.261       22.772        0.205      332.893        1.854      866.331
12/09/2014  04:36:00      -36.171      -35.509       10.663       24.263       28.131       21.886      588.694      791.348      479.016        0.227        0.093       50.688       17.772        0.123      332.857        1.795      866.338
12/09/2014  04:37:00      -43.026      -28.172        3.318       28.877       24.718       13.967      833.892      610.961      195.087        0.215        0.082       51.429        8.338        0.026      332.814        1.723      866.330
12/09/2014  04:38:00      -46.434      -24.248       -6.403       22.350       15.798       13.655      499.537      249.587      186.464        0.186        0.047       52.384       12.249        0.055      332.803        1.705      866.349
12/09/2014  04:39:00      -26.943      -27.731        3.694       16.879       12.964       15.563      284.896      168.075      242.198        0.110        0.035       38.665        8.653        0.050      332.869        1.813      866.396
12/09/2014  04:40:00      -36.879      -28.914       -8.475       19.597       18.674       12.679      384.056      348.736      160.764        0.158        0.045       46.862        7.161        0.023      332.972        1.982      866.448
12/09/2014  04:41:00      -55.066      -14.602       -0.931       18.346       12.731        7.664      336.591      162.086       58.735        0.190        0.028       56.969        5.936        0.011      332.849        1.779      866.499
12/09/2014  04:42:00       -6.998       11.044        5.994       18.959       20.529       13.720      359.437      421.423      188.249        0.059        0.048       13.074       12.646        0.935      332.808        1.712      866.528
12/09/2014  04:43:00       44.547       47.108       -1.652       36.431       25.646       14.503     1327.208      657.732      210.342        0.320        0.110       64.836        9.539        0.022      332.752        1.620      866.515
12/09/2014  04:44:00       72.813       47.737        5.373       25.157       23.283       23.509      632.889      542.077      552.677        0.467        0.086       87.066       15.592        0.032      332.595        1.359      866.503
12/09/2014  04:45:00       33.419       21.069        4.070       19.255       15.415       14.798      370.752      237.631      218.974        0.120        0.041       39.506        8.964        0.051      332.600        1.367      866.487
12/09/2014  04:46:00       18.648       43.679       -3.673       10.102       18.744        8.266      102.058      351.349       68.323        0.140        0.026       47.493        8.652        0.033      332.665        1.475      866.464
12/09/2014  04:47:00       18.839       26.793       -5.971       12.880       22.364        9.512      165.889      500.148       90.475        0.093        0.038       32.753        9.904        0.091      332.687        1.513      866.457
12/09/2014  04:48:00        2.854       22.910       -2.151        7.832        8.825        6.132       61.343       77.879       37.605        0.036        0.009       23.087        6.039        0.068      332.742        1.604      866.479
12/09/2014  04:49:00       -9.882        6.566        2.208       19.195       18.649       11.661      368.444      347.793      135.981        0.050        0.043       11.864       10.583        0.796      332.726        1.578      866.478
12/09/2014  04:50:00      -58.607       53.397      -13.357       16.737       21.030       14.628      280.136      442.264      213.970        0.370        0.047       79.284        6.072        0.006      333.098        2.190      866.463
12/09/2014  04:51:00      -49.479       14.626       -7.158       20.408       25.915       14.454      416.472      671.577      208.912        0.200        0.065       51.595        9.608        0.035      333.004        2.036      866.479
12/09/2014  04:52:00      -15.737       20.877        0.846       17.360       28.689       16.473      301.358      823.056      271.345        0.104        0.070       26.144       15.770        0.364      333.016        2.055      866.484
12/09/2014  04:53:00       15.731       60.259       -3.881       19.072       20.768       17.138      363.758      431.317      293.718        0.249        0.054       62.278       15.599        0.063      332.941        1.931      866.469
12/09/2014  04:54:00       58.751       37.684       -1.057       25.724       17.717       15.163      661.726      313.897      229.910        0.304        0.060       69.798       10.727        0.024      332.755        1.625      866.456
12/09/2014  04:55:00       65.781       38.904       13.073       19.420       26.701       26.445      377.120      712.940      699.327        0.390        0.089       76.424       12.550        0.027      332.637        1.428      866.444
12/09/2014  04:56:00       53.501       35.231        7.842       24.267       19.654       19.308      588.877      386.269      372.781        0.276        0.067       64.059       15.323        0.057      332.574        1.325      866.438
12/09/2014  04:57:00       43.874       38.732       -7.295       15.105       10.637       12.026      228.165      113.147      144.636        0.198        0.024       58.524        8.610        0.022      332.580        1.336      866.446
12/09/2014  04:58:00       55.624       33.037       -0.929       20.928       12.375        9.516      437.987      153.131       90.546        0.243        0.034       64.695        6.444        0.010      332.562        1.307      866.477
12/09/2014  04:59:00       78.632       42.926        6.365       26.804       20.808       17.881      718.466      432.991      319.718        0.477        0.074       89.586       11.024        0.015      332.606        1.377      866.515
12/09/2014  05:00:00       33.169       46.598       40.584       27.283       28.074       20.400      744.341      788.142      416.169        0.343        0.097       57.198       16.646        0.085      332.547        1.279      866.534
12/09/2014  05:01:00       74.579       32.846        8.392       15.776       18.517       16.043      248.873      342.888      257.389        0.378        0.042       81.491        8.794        0.012      332.619        1.399      866.547
12/09/2014  05:02:00       72.836       50.089       22.514       16.200       15.305       11.535      262.437      234.247      133.060        0.448        0.031       88.397        7.428        0.007      332.654        1.456      866.554
12/09/2014  05:03:00       70.896       49.860       14.462       14.059       16.571       15.854      197.650      274.598      251.345        0.422        0.036       86.673       11.673        0.018      332.681        1.502      866.566
12/09/2014  05:04:00       54.479       37.583       14.986       19.604       13.064       13.699      384.319      170.660      187.664        0.267        0.037       66.185        5.488        0.007      332.714        1.556      866.578
12/09/2014  05:05:00       77.284       44.975       14.630        9.680        8.567       10.909       93.703       73.395      118.997        0.425        0.014       89.418        5.664        0.004      332.790        1.684      866.589
12/09/2014  05:06:00       95.428       50.312       14.978       14.407       14.660       18.203      207.567      214.919      331.359        0.631        0.038      107.879        9.957        0.009      332.726        1.575      866.587
12/09/2014  05:07:00       87.036       42.754       31.185       34.070       31.047       30.486     1160.771      963.935      929.384        0.671        0.153       96.970       15.433        0.025      332.722        1.569      866.602
12/09/2014  05:08:00       52.116       47.350       46.514       23.954       25.101       26.800      573.790      630.083      718.231        0.452        0.096       70.414       10.652        0.023      332.718        1.562      866.659
12/09/2014  05:09:00       67.101       39.142       32.197       29.526       25.794       25.825      871.757      665.327      666.907        0.464        0.110       77.683       17.356        0.050      332.704        1.539      866.696
12/09/2014  05:10:00       71.529       48.288       21.246       41.804       29.220       32.672     1747.580      853.785     1067.458        0.578        0.183       86.302       24.888        0.083      332.681        1.500      866.681
12/09/2014  05:11:00       81.030       67.543       46.909       48.521       35.310       36.079     2354.315     1246.765     1301.718        0.911        0.245      105.489       35.582        0.114      332.698        1.529      866.645
12/09/2014  05:12:00       68.042       47.440       44.471       47.485       37.463       34.084     2254.810     1403.448     1161.735        0.684        0.241       82.948       31.330        0.143      332.627        1.413      866.669
12/09/2014  05:13:00       53.191       46.165       58.974       42.037       29.063       26.568     1767.146      844.681      705.857        0.588        0.166       70.431       21.401        0.092      332.572        1.321      866.738
12/09/2014  05:14:00       71.224       51.720       61.204       42.159       34.161       40.403     1777.412     1166.988     1632.385        0.803        0.229       88.022       24.670        0.079      332.585        1.342      866.790
12/09/2014  05:15:00       44.868       60.650       74.261       40.963       43.715       22.764     1677.996     1911.021      518.187        0.766        0.205       75.443       17.617        0.055      332.586        1.345      866.813
12/09/2014  05:16:00       21.198       22.151       58.212       31.587       83.765       41.707      997.750     7016.584     1739.472        0.704        0.488       30.660       54.064        3.109      332.666        1.477      866.840
12/09/2014  05:17:00       24.191      -98.921      -17.994       38.441       37.361       24.246     1477.695     1395.846      587.852        0.708        0.173      101.836       18.472        0.033      332.784        1.673      866.906
12/09/2014  05:18:00        7.115      -33.521       -4.355       35.524       34.458       32.523     1261.949     1187.366     1057.775        0.235        0.175       34.268       24.044        0.492      332.827        1.744      866.959
12/09/2014  05:19:00       65.395       -6.224       14.326       28.003       22.156       18.716      784.154      490.897      350.270        0.307        0.081       65.691       14.559        0.049      332.716        1.560      866.956
12/09/2014  05:20:00       16.779       18.031       23.590       22.119       25.194       20.830      489.253      634.754      433.879        0.136        0.078       24.630       16.047        0.424      332.669        1.483      866.941
12/09/2014  05:21:00       50.885       43.461       10.208       33.945       26.275       24.353     1152.292      690.396      593.046        0.351        0.122       66.919       21.185        0.100      332.609        1.383      866.939
12/09/2014  05:22:00       85.261       58.049        9.933       26.651       19.584       21.215      710.278      383.524      450.063        0.614        0.077      103.146       14.517        0.020      332.495        1.194      866.970
12/09/2014  05:23:00       59.308       21.526       -3.815       26.513       25.905       13.371      702.917      671.056      178.785        0.277        0.078       63.093        7.915        0.016      332.540        1.269      867.016
12/09/2014  05:24:00      -13.655      -19.368        3.175       21.048       15.657       14.598      443.002      245.149      213.109        0.074        0.045       23.697        8.233        0.121      332.688        1.514      867.044
12/09/2014  05:25:00       23.581        9.900       11.039       13.234        8.746       12.843      175.136       76.496      164.935        0.060        0.021       25.575        6.670        0.068      332.702        1.538      867.020
12/09/2014  05:26:00       58.442       36.021       17.333       18.241       13.450       12.783      332.720      180.912      163.408        0.285        0.034       68.651       10.175        0.022      332.596        1.363      866.977
12/09/2014  05:27:00       16.014       20.923       18.442       20.791       12.602       13.968      432.264      158.803      195.104        0.091        0.039       26.348       14.540        0.305      332.614        1.392      866.930
12/09/2014  05:28:00       14.514       23.956       20.492       15.614       10.194        9.183      243.784      103.911       84.327        0.082        0.022       28.010        9.449        0.114      332.553        1.289      866.881
12/09/2014  05:29:00       36.884       34.688        5.845       25.258       17.796       13.118      637.976      316.702      172.069        0.186        0.056       50.633        6.815        0.018      332.552        1.286      866.821
12/09/2014  05:30:00       10.584       48.974       -7.414       17.480       18.391       10.561      305.546      338.230      111.539        0.166        0.038       50.105        9.539        0.036      332.555        1.294      866.815
12/09/2014  05:31:00      -30.219       22.931      -10.955       32.878       27.008        8.173     1080.977      729.446       66.799        0.172        0.094       37.935       11.200        0.087      332.635        1.425      866.881
12/09/2014  05:32:00      -71.055        4.217       -9.412       12.100       15.659       11.521      146.403      245.216      132.735        0.284        0.026       71.180        6.690        0.009      332.529        1.253      866.918
12/09/2014  05:33:00      -33.498       37.752      -12.674       25.137       20.462       10.162      631.861      418.713      103.258        0.193        0.058       50.471        6.598        0.017      332.889        1.845      866.912
12/09/2014  05:34:00      -10.555       27.040       -1.757       13.903       17.792       11.039      193.293      316.553      121.868        0.074        0.032       29.027        8.875        0.093      332.968        1.975      866.894
12/09/2014  05:35:00       -9.223      -17.732       -6.352       10.654        9.643        7.672      113.511       92.982       58.853        0.035        0.013       19.987        5.566        0.078      332.877        1.828      866.864
12/09/2014  05:36:00       -9.972        5.801        3.600        9.978       10.880        5.246       99.569      118.384       27.524        0.020        0.012       11.536        3.627        0.099      332.839        1.764      866.817
12/09/2014  05:37:00      -13.350       63.433       -8.490       16.917       25.005       11.077      286.168      625.269      122.693        0.265        0.052       64.823        6.345        0.010      332.984        2.002      866.757
12/09/2014  05:38:00      -42.720       83.924      -18.247       23.932       15.658        9.896      572.760      245.162       97.940        0.506        0.046       94.172        7.267        0.006      333.000        2.030      866.727
12/09/2014  05:39:00      -71.708       74.874      -19.199       13.969       18.437       13.446      195.124      339.940      180.804        0.592        0.036      103.674        7.178        0.005      332.989        2.010      866.722
12/09/2014  05:40:00      -41.699       56.203       -8.430       24.120       28.557       14.597      581.769      815.512      213.062        0.329        0.081       69.983       14.362        0.042      333.060        2.128      866.730
12/09/2014  05:41:00       22.631       11.352        8.959       17.517       13.612        9.569      306.845      185.282       91.562        0.065        0.029       25.318        6.487        0.066      333.010        2.045      866.741
12/09/2014  05:42:00        2.842       -3.172        1.974        8.979        9.678       12.126       80.614       93.658      147.030        0.017        0.016        4.259        5.212        1.497      332.948        1.943      866.733
12/09/2014  05:43:00        8.064        9.864        5.503       16.602       12.750       11.877      275.642      162.562      141.067        0.039        0.029       12.741       11.040        0.751      332.802        1.702      866.714
12/09/2014  05:44:00       13.283       22.690       13.743       19.943       13.320       19.701      397.707      177.412      388.142        0.092        0.048       26.292       17.884        0.463      332.797        1.695      866.710
12/09/2014  05:45:00       -0.305       15.363        2.996        7.889        9.231       11.344       62.242       85.208      128.687        0.026        0.014       15.366        8.751        0.324      332.816        1.726      866.731
12/09/2014  05:46:00      -16.027       20.314       -2.272       11.613        9.597        4.976      134.873       92.105       24.760        0.046        0.013       25.875        3.903        0.023      332.941        1.930      866.763
12/09/2014  05:47:00      -13.972       -0.895        8.909       18.935       11.559        8.494      358.531      133.607       72.141        0.042        0.028       14.001        3.371        0.058      332.943        1.934      866.780
12/09/2014  05:48:00       12.098       18.762        4.378       13.474       11.739        8.478      181.548      137.793       71.873        0.045        0.020       22.324        7.176        0.103      332.881        1.834      866.806
12/09/2014  05:49:00       52.261       28.827       -0.907       20.900       14.887       11.266      436.814      221.624      126.912        0.217        0.039       59.684        7.211        0.015      332.717        1.563      866.839
12/09/2014  05:50:00      105.087       51.785       11.417       22.238       17.307       24.205      494.509      299.533      585.859        0.762        0.069      117.153        7.279        0.004      332.596        1.361      866.878
12/09/2014  05:51:00       27.405       29.162       33.437       22.620       18.372       16.926      511.649      337.537      286.505        0.193        0.057       40.018       13.856        0.120      332.526        1.243      866.914
12/09/2014  05:52:00        1.945       17.443       34.821       12.037       12.283        8.139      144.895      150.870       66.236        0.094        0.018       17.551        6.757        0.148      332.536        1.262      866.943
12/09/2014  05:53:00        9.820       34.271       21.421       15.402       15.275       11.049      237.215      233.327      122.085        0.116        0.030       35.650        4.562        0.016      332.572        1.320      866.934
12/09/2014  05:54:00       13.245       32.422       20.507       10.734        7.166       11.510      115.212       51.354      132.477        0.097        0.015       35.024        7.853        0.050      332.622        1.404      866.888
12/09/2014  05:55:00        9.301       28.696       -2.320        4.336        4.789        3.066       18.798       22.937        9.398        0.048        0.003       30.166        2.044        0.005      332.632        1.425      866.842
12/09/2014  05:56:00       -1.597       25.908       -3.903       14.043        6.118        3.383      197.203       37.436       11.441        0.047        0.012       25.957        3.702        0.020      332.712        1.550      866.846
12/09/2014  05:57:00     -109.140       11.404      -13.852       37.364       17.481       11.025     1396.046      305.590      121.556        0.703        0.091      109.735       10.538        0.009      332.745        1.608      866.907
12/09/2014  05:58:00     -107.727      -29.145       -6.014       42.956       36.797       26.879     1845.180     1354.006      722.457        0.821        0.196      111.600       22.508        0.041      332.544        1.275      866.985
12/09/2014  05:59:00     -126.620      -60.426       -1.274       42.392       46.951       22.029     1797.095     2204.395      485.263        1.209        0.224      140.300       22.580        0.026      332.556        1.295      867.005
12/09/2014  06:00:00     -101.141      -33.461      -10.201       39.068       16.620       13.039     1526.292      276.218      170.016        0.671        0.099      106.532       13.043        0.015      332.635        1.426      866.944
12/09/2014  06:01:00      -81.360        9.885      -11.265       34.250       26.294       11.196     1173.034      691.372      125.342        0.442        0.099       81.958       11.971        0.021      332.650        1.451      866.861
12/09/2014  06:02:00     -128.588       33.241      -11.248       24.283       16.243       12.419      589.664      263.850      154.233        0.939        0.050      132.815        7.668        0.003      332.644        1.442      866.807
12/09/2014  06:03:00      -90.102       -4.002       -1.300       49.503       45.362       27.651     2450.549     2057.728      764.597        0.670        0.264       90.191       29.582        0.108      332.550        1.284      866.783
12/09/2014  06:04:00      -38.067       -7.271       -3.103       45.795       37.202       22.193     2097.137     1384.004      492.536        0.274        0.199       38.755       11.402        0.087      332.594        1.358      866.782
12/09/2014  06:05:00      -60.131       13.596      -14.697       26.794       31.589       17.816      717.912      997.889      317.410        0.302        0.102       61.649       14.118        0.052      332.644        1.441      866.796
12/09/2014  06:06:00      -91.899       19.204       -7.998       32.562       22.246       18.955     1060.262      494.890      359.293        0.540        0.096       93.884       16.721        0.032      332.690        1.519      866.826
12/09/2014  06:07:00     -123.234       45.998      -22.054       39.515       45.834       24.633     1561.474     2100.711      606.793        1.103        0.213      131.539       16.326        0.015      332.852        1.784      866.842
12/09/2014  06:08:00     -147.440       24.874      -13.847       59.048       38.297       25.419     3486.610     1466.653      646.113        1.407        0.280      149.523       29.849        0.040      332.919        1.894      866.845
12/09/2014  06:09:00     -124.792       -1.920      -10.422       64.490       31.337       29.917     4158.980      981.994      895.024        1.086        0.302      124.806       35.454        0.081      332.754        1.623      866.831
12/09/2014  06:10:00      -55.565       -2.421        2.916       33.465       31.577       22.373     1119.887      997.092      500.533        0.286        0.131       55.618       13.905        0.063      332.842        1.769      866.796
12/09/2014  06:11:00      -71.271       -4.707        5.108       47.246       31.750       24.121     2232.174     1008.081      581.841        0.447        0.191       71.426       25.188        0.124      332.835        1.756      866.762
12/09/2014  06:12:00     -114.281      -33.927       -8.230       23.107       19.800       14.100      533.923      392.046      198.813        0.770        0.056      119.211        5.019        0.002      332.742        1.602      866.753
12/09/2014  06:13:00     -101.271      -15.013      -14.647       39.446       23.530       21.581     1555.995      553.656      465.747        0.664        0.129      102.377       24.651        0.058      332.854        1.788      866.771
12/09/2014  06:14:00      -84.861        7.067       -4.363       52.783       30.903       23.847     2786.094      955.026      568.700        0.579        0.215       85.155       26.095        0.094      332.802        1.702      866.804
12/09/2014  06:15:00     -121.091       37.412      -14.406       45.846       25.229       21.590     2101.835      636.504      466.123        0.974        0.160      126.738       17.611        0.019      332.849        1.780      866.828
12/09/2014  06:16:00      -56.066       27.940       -9.591       27.498       40.540       18.693      756.162     1643.470      349.434        0.338        0.137       62.642       22.120        0.125      332.781        1.667      866.842
12/09/2014  06:17:00        0.816      -12.430       17.772       16.161       17.770        9.093      261.193      315.791       82.690        0.057        0.033       12.456        5.401        0.188      332.834        1.757      866.840
12/09/2014  06:18:00       -0.185      -10.650        3.505       21.219       17.862       18.608      450.243      319.044      346.244        0.062        0.056       10.651       15.165        2.027      332.866        1.808      866.834
12/09/2014  06:19:00        5.456        4.007        5.286        9.052        5.264       10.194       81.934       27.711      103.920        0.014        0.011        6.769        5.409        0.638      332.790        1.680      866.838
12/09/2014  06:20:00      -14.054        4.163        0.631       14.191       10.735        4.654      201.378      115.244       21.661        0.028        0.017       14.657        3.920        0.072      332.783        1.671      866.843
12/09/2014  06:21:00      -25.066        8.176        1.922       12.748       16.648        7.808      162.517      277.153       60.957        0.060        0.025       26.366        8.780        0.111      332.746        1.609      866.855
12/09/2014  06:22:00       -3.302       34.342       -3.188       16.727       20.121        6.553      279.793      404.872       42.940        0.096        0.036       34.500        6.721        0.038      332.767        1.644      866.881
12/09/2014  06:23:00      -27.796       32.796       -1.568       20.977       25.628        8.909      440.034      656.794       79.370        0.151        0.059       42.990        5.318        0.015      332.769        1.648      866.935
12/09/2014  06:24:00      -98.014      -20.925      -13.664       37.398       17.578        9.647     1398.588      308.997       93.064        0.602        0.090      100.223       14.557        0.021      332.605        1.376      867.003
12/09/2014  06:25:00     -115.218      -32.450      -11.778       36.530       24.877       18.963     1334.405      618.861      359.584        0.839        0.116      119.700       13.356        0.012      332.521        1.237      867.049
12/09/2014  06:26:00      -67.789       -3.575       -7.140       35.035       20.653       12.395     1227.471      426.545      153.636        0.323        0.090       67.884       13.307        0.038      332.580        1.334      867.049
12/09/2014  06:27:00      -50.766       22.463      -11.213       25.613       29.483       13.201      656.004      869.224      174.261        0.245        0.085       55.514        9.320        0.028      332.916        1.891      867.039
12/09/2014  06:28:00      -65.923       67.136      -14.963       27.181       29.333       19.656      738.831      860.414      386.375        0.553        0.099       94.091       18.062        0.037      333.267        2.470      867.019
12/09/2014  06:29:00      -52.322       31.004       -2.846       29.491       31.512       16.857      869.717      993.014      284.169        0.293        0.107       60.818        8.360        0.019      333.228        2.407      866.998
12/09/2014  06:30:00      -75.607       -6.842       -9.586       26.303       34.969       16.174      691.856     1222.826      261.611        0.402        0.109       75.916        2.931        0.001      332.787        1.676      866.979
12/09/2014  06:31:00      -82.045      -20.400      -11.160       19.536       22.357       14.125      381.672      499.827      199.525        0.418        0.054       84.543       11.206        0.018      332.608        1.381      866.968
12/09/2014  06:32:00     -114.622      -10.554      -10.793       56.063       26.714       20.273     3143.095      713.657      410.997        0.882        0.213      115.107       24.861        0.047      332.641        1.436      866.968
12/09/2014  06:33:00     -135.141       -8.179      -16.499       38.292       24.187       22.322     1466.256      585.011      498.281        1.058        0.127      135.388       20.310        0.023      332.820        1.731      866.968
12/09/2014  06:34:00      -97.572       -0.928       -9.247       34.105       32.740       22.723     1163.117     1071.880      516.336        0.618        0.138       97.576       20.829        0.046      332.952        1.948      866.956
12/09/2014  06:35:00      -70.863       33.543       -7.608       28.575       32.603       24.121      816.520     1062.948      581.820        0.433        0.123       78.400       13.018        0.028      333.463        2.794      866.944
12/09/2014  06:36:00      -96.232       38.832       -7.742       34.325       38.038       23.600     1178.182     1446.900      556.956        0.700        0.159      103.772       18.552        0.032      333.675        3.146      866.949
12/09/2014  06:37:00     -138.299       -4.636      -18.061       45.658       38.825       20.924     2084.634     1507.372      437.813        1.175        0.201      138.376       20.434        0.022      333.150        2.278      866.973
12/09/2014  06:38:00     -139.909       -5.961      -10.263       59.194       37.793       26.611     3503.964     1428.274      708.134        1.268        0.282      140.036       30.995        0.049      332.886        1.842      867.010
12/09/2014  06:39:00     -111.062        0.599       -6.138       20.708       25.963       17.232      428.832      674.073      296.938        0.689        0.070      111.064       11.662        0.011      332.814        1.722      867.030
12/09/2014  06:40:00     -119.457        9.909      -21.252       13.385       18.522       14.049      179.157      343.074      197.384        0.777        0.036      119.867        6.084        0.003      333.096        2.188      867.001
12/09/2014  06:41:00     -128.986       33.748      -21.272       18.997       23.909       15.592      360.878      571.630      243.098        0.970        0.059      133.328        9.626        0.005      333.197        2.354      866.943
12/09/2014  06:42:00     -137.151       24.116       -9.912       18.621       22.759       13.465      346.732      517.972      181.299        1.027        0.052      139.255       11.145        0.006      333.166        2.302      866.907
12/09/2014  06:43:00     -163.644        4.470      -18.029       32.137       25.580       20.067     1032.768      654.319      402.700        1.461        0.104      163.705       14.840        0.008      333.202        2.361      866.912
12/09/2014  06:44:00     -180.926       12.795      -18.432       27.565       30.030       16.966      759.805      901.780      287.862        1.759        0.097      181.377       14.488        0.006      333.175        2.317      866.938
12/09/2014  06:45:00     -170.378      -41.810      -19.246       40.727       43.082       21.782     1658.707     1856.022      474.438        1.757        0.199      175.433       22.359        0.016      333.100        2.193      866.961
12/09/2014  06:46:00     -210.188       -4.211      -26.860       28.287       27.210       28.058      800.167      740.365      787.229        2.362        0.116      210.231       18.894        0.008      333.028        2.075      866.985
12/09/2014  06:47:00     -212.754      -50.157      -18.078       42.142       36.973       25.764     1775.981     1367.014      663.766        2.596        0.190      218.587       17.113        0.006      333.040        2.093      867.014
12/09/2014  06:48:00     -146.877      -27.879      -17.937       40.091       39.133       24.223     1607.308     1531.356      586.765        1.320        0.186      149.500       19.142        0.016      333.089        2.176      867.022
12/09/2014  06:49:00      -14.377      -12.714       -3.725       24.120       15.007       13.394      581.771      225.217      179.390        0.068        0.049       19.192       14.703        0.587      333.155        2.284      867.017
12/09/2014  06:50:00      -52.601      -16.939       -1.376       31.881       27.452       19.690     1016.413      753.626      387.679        0.261        0.108       55.261       18.747        0.115      333.167        2.303      867.024
12/09/2014  06:51:00     -123.808      -40.181      -10.324       46.442       22.987       12.991     2156.900      528.392      168.769        0.995        0.143      130.165        7.163        0.003      333.202        2.363      867.059
12/09/2014  06:52:00     -161.604      -95.366       -4.447       40.363       32.403       26.158     1629.157     1049.940      684.226        1.930        0.168      187.645       19.571        0.011      333.235        2.416      867.087
12/09/2014  06:53:00     -120.152      -65.053      -10.257       42.675       35.513       28.203     1821.186     1261.194      795.410        1.132        0.194      136.632       22.572        0.027      333.204        2.364      867.094
12/09/2014  06:54:00     -134.267      -33.918      -21.701       26.640       30.782       16.501      709.669      947.535      272.288        1.079        0.096      138.485       14.478        0.011      333.269        2.473      867.055
12/09/2014  06:55:00     -167.357       21.378      -17.234       43.604       42.837       19.696     1901.307     1834.978      387.927        1.644        0.206      168.717       18.134        0.012      333.369        2.638      866.981
12/09/2014  06:56:00     -170.391       30.539      -11.514       33.517       23.210       19.301     1123.381      538.726      372.544        1.607        0.102      173.106       15.671        0.008      333.551        2.940      866.929
12/09/2014  06:57:00     -156.562      -16.375      -14.839       45.533       30.809       17.690     2073.257      949.172      312.934        1.417        0.167      157.416       21.606        0.019      333.408        2.703      866.933
12/09/2014  06:58:00      -81.984      -63.122        4.286       47.865       27.502       17.474     2291.060      756.359      305.347        0.704        0.168      103.469       14.640        0.020      333.270        2.475      866.959
12/09/2014  06:59:00     -107.415     -123.264        0.425       82.121       66.453       33.274     6743.801     4416.003     1107.147        1.950        0.613      163.500       43.074        0.069      333.156        2.285      866.985
12/09/2014  07:00:00      -88.789      -77.462        2.335       46.475       62.469       32.371     2159.885     3902.424     1047.864        1.050        0.356      117.830       28.134        0.057      333.069        2.144      866.985
12/09/2014  07:01:00     -131.647     -107.024       -9.467       43.916       46.988       28.707     1928.629     2207.919      824.069        1.692        0.248      169.662       23.562        0.019      333.046        2.104      866.993
12/09/2014  07:02:00     -131.359      -94.159        2.657       51.778       47.704       30.170     2681.007     2275.695      910.208        1.600        0.293      161.620       32.246        0.040      333.023        2.067      867.008
12/09/2014  07:03:00     -105.099      -67.404        2.083       40.427       36.895       23.092     1634.337     1361.249      533.219        0.956        0.176      124.856       23.580        0.036      333.023        2.066      867.021
12/09/2014  07:04:00     -115.666      -64.058       -2.855       40.144       33.500       23.818     1611.507     1122.277      567.275        1.039        0.165      132.220       15.576        0.014      333.065        2.137      867.024
12/09/2014  07:05:00      -83.315      -52.775       -4.290       36.285       39.003       22.434     1316.566     1521.224      503.291        0.654        0.167       98.624       14.508        0.022      333.070        2.143      867.023
12/09/2014  07:06:00     -106.176      -85.878        8.326       49.220       34.041       29.343     2422.577     1158.818      861.007        1.158        0.222      136.559       26.541        0.038      333.111        2.213      867.021
12/09/2014  07:07:00     -127.598      -98.649      -12.843       32.112       27.030       22.297     1031.187      730.616      497.171        1.422        0.113      161.285       17.842        0.012      333.101        2.196      867.013
12/09/2014  07:08:00      -99.076      -89.117       -1.199       28.164       29.286       14.878      793.215      857.649      221.366        0.982        0.094      133.259       12.160        0.008      333.114        2.216      867.008
12/09/2014  07:09:00     -104.589      -82.095       -6.270       36.737       38.431       19.837     1349.627     1476.912      393.517        1.047        0.161      132.960       19.865        0.022      333.155        2.285      867.005
12/09/2014  07:10:00     -119.201     -120.249       -4.854       25.111       39.460       19.303      630.567     1557.059      372.607        1.563        0.128      169.318        8.897        0.003      333.171        2.309      866.989
12/09/2014  07:11:00      -75.214      -83.000       -5.023       51.199       52.241       32.079     2621.364     2729.150     1029.044        0.947        0.319      112.009       29.207        0.068      333.196        2.351      866.963
12/09/2014  07:12:00      -39.313      -98.612       -8.125       45.949       62.966       36.053     2111.272     3964.717     1299.789        0.935        0.369      106.159       37.756        0.126      333.336        2.584      866.928
12/09/2014  07:13:00      -23.152      -96.511        4.675       50.804       46.068       27.798     2580.998     2122.244      772.744        0.767        0.274       99.249       20.734        0.044      333.297        2.519      866.883
12/09/2014  07:14:00      -45.667      -76.062        3.285       39.158       44.015       28.779     1533.329     1937.301      828.251        0.609        0.215       88.719       25.519        0.083      333.308        2.538      866.840
12/09/2014  07:15:00      -58.192      -56.571        1.421       42.788       52.621       27.681     1830.785     2768.919      766.259        0.598        0.268       81.158       20.931        0.067      333.245        2.433      866.826
12/09/2014  07:16:00      -16.792      -19.615        8.158       38.227       27.905       23.538     1461.272      778.689      554.046        0.176        0.140       25.821       22.627        0.768      333.206        2.367      866.830
12/09/2014  07:17:00      -39.106      -15.723        8.619       42.115       36.292       22.077     1773.681     1317.141      487.409        0.271        0.179       42.148       18.633        0.195      333.204        2.365      866.830
12/09/2014  07:18:00      -52.471      -18.491        1.371       31.465       23.089       17.206      990.067      533.123      296.060        0.246        0.091       55.634       18.771        0.114      333.133        2.247      866.837
12/09/2014  07:19:00       -0.557       -3.396       13.843       13.360        9.864        9.300      178.502       97.296       86.482        0.028        0.018        3.441       10.254        8.878      333.137        2.256      866.867
12/09/2014  07:20:00       23.725       15.951       10.112       14.852       21.561       19.012      220.571      464.874      361.474        0.098        0.052       28.588        8.981        0.099      333.097        2.189      866.902
12/09/2014  07:21:00       91.856       51.171        0.783       27.690       19.137       19.893      766.715      366.237      395.731        0.629        0.076      105.147       10.663        0.010      333.011        2.047      866.940
12/09/2014  07:22:00       23.242       59.410       47.350       39.765       26.601       22.289     1581.283      707.629      496.802        0.455        0.139       63.795       19.423        0.093      332.856        1.792      866.962
12/09/2014  07:23:00       51.575       61.482       19.666       25.333       22.050       18.525      641.749      486.212      343.172        0.415        0.074       80.249        6.954        0.008      332.661        1.470      866.976
12/09/2014  07:24:00       16.201        8.258       -1.802       15.649       16.611       16.384      244.890      275.926      268.442        0.056        0.039       18.184       12.167        0.448      332.725        1.575      866.975
12/09/2014  07:25:00        3.603        6.800       -1.437        7.257        7.854        4.702       52.665       61.683       22.107        0.010        0.007        7.695        3.364        0.191      332.782        1.669      866.979
12/09/2014  07:26:00       15.140       10.393        0.956       11.033        6.299        6.719      121.727       39.682       45.144        0.027        0.010       18.364        5.943        0.105      332.824        1.739      866.988
12/09/2014  07:27:00       31.224       31.499        5.086        9.834        9.132        8.491       96.707       83.386       72.092        0.112        0.013       44.352        6.287        0.020      332.773        1.655      867.006
12/09/2014  07:28:00       32.291       26.558       -0.144       12.779       15.434       11.923      163.295      238.194      142.167        0.115        0.027       41.810        8.923        0.046      332.865        1.806      867.027
12/09/2014  07:29:00       27.930       19.484       14.291        7.228        7.921        9.121       52.243       62.734       83.189        0.078        0.010       34.055        6.510        0.037      332.898        1.861      867.042
12/09/2014  07:30:00       46.788       38.438       13.011       10.257       13.488       13.665      105.203      181.931      186.733        0.215        0.024       60.552        3.357        0.003      332.800        1.700      867.026
12/09/2014  07:31:00       64.733       35.694        9.202       22.175       17.621       19.693      491.751      310.514      387.824        0.337        0.060       73.922       10.747        0.021      332.777        1.661      866.989
12/09/2014  07:32:00      100.954       56.900       17.379       36.916       29.766       28.958     1362.756      886.016      838.580        0.841        0.154      115.885       17.075        0.022      332.765        1.641      866.955
12/09/2014  07:33:00      113.816       72.490        9.383       31.469       22.648       20.500      990.292      512.923      420.251        1.011        0.096      134.940       12.097        0.008      332.730        1.582      866.961
12/09/2014  07:34:00       80.083       54.758        4.490       28.904       21.507       14.402      835.423      462.559      207.406        0.547        0.075       97.014       12.493        0.017      332.723        1.572      867.015
12/09/2014  07:35:00       34.554       38.187        3.290       21.606       16.409       11.452      466.802      269.245      131.142        0.176        0.043       51.499        7.445        0.021      332.735        1.591      867.091
12/09/2014  07:36:00       19.479       29.543        0.909       16.318       13.775        8.865      266.266      189.740       78.597        0.089        0.027       35.387        6.822        0.037      332.735        1.591      867.139
12/09/2014  07:37:00       17.151       24.511        2.797       17.737       15.948        6.669      314.610      254.333       44.470        0.076        0.031       29.916        5.073        0.029      332.764        1.642      867.173
12/09/2014  07:38:00        4.103       45.213       -8.597       10.375       14.072        6.096      107.650      198.016       37.165        0.124        0.017       45.398        4.960        0.012      332.810        1.717      867.172
12/09/2014  07:39:00        5.548       62.816       -7.599        7.247       13.634        5.847       52.513      185.875       34.190        0.215        0.014       63.061        6.068        0.009      332.777        1.664      867.186
12/09/2014  07:40:00       -0.789       57.329       -7.966       11.355       10.695        7.011      128.936      114.374       49.150        0.182        0.015       57.335        4.227        0.005      332.901        1.868      867.234
12/09/2014  07:41:00      -53.405       32.735       -0.053       23.996       20.183       16.352      575.784      407.348      267.398        0.259        0.063       62.640        6.531        0.011      333.023        2.067      867.311
12/09/2014  07:42:00      -67.754        3.850       -7.235       22.267       22.759       13.740      495.838      517.975      188.786        0.293        0.060       67.864       11.802        0.030      332.981        1.996      867.382
12/09/2014  07:43:00      -61.754      -16.764       -3.832       16.486       17.281       10.593      271.774      298.618      112.202        0.240        0.034       63.989        7.094        0.012      332.907        1.876      867.400
12/09/2014  07:44:00      -82.417       -2.945      -11.397       27.569       17.315       13.053      760.073      299.810      170.387        0.408        0.062       82.469       13.222        0.026      332.943        1.934      867.379
12/09/2014  07:45:00     -114.153        8.329      -14.004       11.740       17.798       12.062      137.835      316.766      145.501        0.695        0.030      114.457        8.159        0.005      332.939        1.928      867.361
12/09/2014  07:46:00      -96.822      -30.747      -14.457       16.889       22.743       12.296      285.237      517.244      151.197        0.574        0.048      101.587        8.945        0.008      332.979        1.995      867.358
12/09/2014  07:47:00      -11.588      -19.867        6.254       17.824       19.501       14.700      317.691      380.278      216.100        0.074        0.046       22.999       10.501        0.208      333.009        2.043      867.350
12/09/2014  07:48:00      -27.516      -13.082        4.237       26.347       19.495       13.759      694.156      380.059      189.300        0.110        0.063       30.467       14.624        0.230      332.978        1.992      867.341
12/09/2014  07:49:00       -6.637        4.776       12.863       23.390        6.242       10.396      547.111       38.968      108.086        0.046        0.035        8.177       14.782        3.268      332.980        1.996      867.349
12/09/2014  07:50:00       19.191       22.029       -3.010       12.818       11.796        8.528      164.293      139.154       72.729        0.062        0.019       29.216        3.032        0.011      333.003        2.033      867.369
12/09/2014  07:51:00       64.143       25.765       12.220       29.885       18.733       22.908      893.122      350.933      524.759        0.335        0.088       69.124        8.408        0.015      332.952        1.950      867.376
12/09/2014  07:52:00      109.434       69.972       13.422       17.016       16.323       21.000      289.543      266.428      440.995        0.902        0.050      129.892        9.373        0.005      332.840        1.764      867.335
12/09/2014  07:53:00      141.741       80.974       10.171       31.509       25.927       31.319      992.798      672.222      980.867        1.470        0.132      163.240       15.373        0.009      332.882        1.834      867.251
12/09/2014  07:54:00      102.628      104.489       67.342       52.656       34.755       38.634     2772.629     1207.906     1492.586        1.573        0.274      146.460       32.659        0.050      332.838        1.760      867.176
12/09/2014  07:55:00      144.825       68.834       53.114       62.231       44.497       40.953     3872.687     1980.027     1677.125        1.803        0.376      160.351       32.714        0.042      332.716        1.558      867.132
12/09/2014  07:56:00      111.783       55.422       47.817       64.183       46.715       44.820     4119.476     2182.262     2008.843        1.308        0.416      124.768       33.307        0.071      332.675        1.492      867.093
12/09/2014  07:57:00      118.004       50.330       36.571       59.217       38.382       30.570     3506.659     1473.178      934.546        1.185        0.296      128.289       23.606        0.034      332.604        1.376      867.087
12/09/2014  07:58:00       99.422       19.431       16.441       48.764       35.182       26.995     2377.927     1237.762      728.729        0.744        0.217      101.303       10.448        0.011      332.603        1.372      867.075
12/09/2014  07:59:00      118.170       36.703       18.942       55.508       40.397       32.479     3081.154     1631.891     1054.901        1.072        0.288      123.739       22.461        0.033      332.615        1.392      867.046
12/09/2014  08:00:00      121.626       58.450       27.817       43.026       37.740       30.839     1851.201     1424.326      951.022        1.160        0.211      134.942       20.382        0.023      332.632        1.422      867.022
12/09/2014  08:01:00      121.360       88.395       23.973       29.302       33.181       32.482      858.584     1100.948     1055.073        1.307        0.151      150.140       19.183        0.016      332.607        1.378      867.031
12/09/2014  08:02:00      105.138       77.295       21.646       41.970       34.988       24.327     1761.504     1224.184      591.780        1.054        0.179      130.493       15.838        0.015      332.595        1.359      867.069
12/09/2014  08:03:00       86.420       54.968       20.928       32.703       30.632       26.329     1069.497      938.305      693.204        0.681        0.135      102.420       15.302        0.022      332.631        1.418      867.116
12/09/2014  08:04:00      122.473       72.082        9.653       36.210       30.713       34.918     1311.152      943.284     1219.284        1.188        0.174      142.111       20.844        0.022      332.644        1.439      867.148
12/09/2014  08:05:00      100.274       65.452       37.799       43.259       33.044       35.685     1871.362     1091.905     1273.439        1.000        0.212      119.745       28.639        0.057      332.691        1.519      867.190
12/09/2014  08:06:00       93.824       61.777       38.215       51.659       30.660       40.384     2668.640      940.021     1630.881        0.966        0.262      112.336       33.922        0.091      332.671        1.484      867.220
12/09/2014  08:07:00      136.022       77.543       19.130       32.088       31.343       28.679     1029.641      982.352      822.463        1.386        0.142      156.573       10.238        0.004      332.619        1.401      867.214
12/09/2014  08:08:00      148.660       87.639       30.620       54.578       38.025       33.848     2978.706     1445.897     1145.706        1.814        0.279      172.570       28.397        0.027      332.625        1.407      867.208
12/09/2014  08:09:00      156.051       87.473       20.466       42.025       39.648       31.492     1766.136     1571.933      991.750        1.838        0.216      178.895       14.237        0.006      332.614        1.390      867.229
12/09/2014  08:10:00       78.795       59.148        7.595       42.397       42.488       40.998     1797.527     1805.198     1680.872        0.752        0.264       98.525       29.332        0.089      332.649        1.449      867.286
12/09/2014  08:11:00       25.942       74.419       -3.229       38.162       41.292       30.456     1456.376     1705.006      927.578        0.515        0.204       78.811       24.706        0.098      332.688        1.515      867.347
12/09/2014  08:12:00       66.192       67.006       -5.099       39.755       30.237       23.048     1580.493      914.283      531.230        0.596        0.151       94.187       18.242        0.038      332.695        1.526      867.370
12/09/2014  08:13:00       91.037       64.955        4.324       48.383       43.515       27.442     2340.958     1893.519      753.081        0.876        0.249      111.834       25.145        0.051      332.705        1.541      867.337
12/09/2014  08:14:00      125.217       68.163        4.286       34.038       32.774       27.277     1158.616     1074.110      744.036        1.166        0.149      142.568        9.743        0.005      332.747        1.610      867.295
12/09/2014  08:15:00      158.795       87.856        9.525       38.828       32.856       32.270     1507.638     1079.532     1041.323        1.833        0.181      181.478       23.012        0.016      332.712        1.550      867.275
12/09/2014  08:16:00       79.964       58.048        1.170       39.356       33.945       28.611     1548.922     1152.288      818.563        0.664        0.176       98.812       18.339        0.034      332.721        1.566      867.275
12/09/2014  08:17:00      110.988       53.786       11.582       45.658       28.214       26.004     2084.681      796.010      676.211        0.945        0.178      123.333       15.331        0.015      332.776        1.659      867.269
12/09/2014  08:18:00      115.687       47.089        0.738       47.649       35.144       28.504     2270.421     1235.131      812.465        0.996        0.216      124.903       16.677        0.018      332.791        1.683      867.237
12/09/2014  08:19:00       95.005       50.636       15.167       29.308       20.392       24.138      858.954      415.825      582.629        0.684        0.093      107.657       12.654        0.014      332.732        1.584      867.216
12/09/2014  08:20:00       41.394       43.089        3.427       24.194       21.442       18.229      585.329      459.774      332.310        0.248        0.069       59.750       11.705        0.038      332.729        1.581      867.215
12/09/2014  08:21:00       26.130       16.318       -6.160       13.955       14.502       13.165      194.734      210.294      173.311        0.078        0.029       30.807        9.929        0.104      332.784        1.671      867.241
12/09/2014  08:22:00       17.826       20.444       -2.966       11.675        8.608        8.869      136.299       74.095       78.651        0.052        0.014       27.125        2.364        0.008      332.798        1.697      867.255
12/09/2014  08:23:00       10.955        5.600        7.153       11.761        9.885        6.347      138.325       97.717       40.282        0.024        0.014       12.303        4.663        0.144      332.913        1.887      867.253
12/09/2014  08:24:00       17.383       32.179       -0.157        9.542        9.907       10.129       91.055       98.150      102.588        0.081        0.015       36.574        3.972        0.012      332.932        1.914      867.243
12/09/2014  08:25:00       14.120       47.679       -1.702       13.934       16.367        9.213      194.166      267.886       84.880        0.151        0.027       49.726        6.594        0.018      332.924        1.904      867.235
12/09/2014  08:26:00       22.758       86.055      -11.535       10.951       11.768        8.200      119.917      138.478       67.245        0.419        0.016       89.013        4.874        0.003      332.937        1.927      867.241
12/09/2014  08:27:00       26.685       53.734       -4.905       18.205       23.790       16.840      331.439      565.969      283.590        0.240        0.059       59.995       14.443        0.058      332.979        1.995      867.235
12/09/2014  08:28:00       59.953       52.963        3.200       34.394       27.765       26.904     1182.958      770.873      723.851        0.454        0.134       79.996       15.659        0.038      332.995        2.021      867.221
12/09/2014  08:29:00       84.752       32.112        7.676       28.961       21.052       26.269      838.730      443.176      690.079        0.512        0.099       90.631       19.022        0.044      333.033        2.083      867.222
12/09/2014  08:30:00       57.582       31.756        7.797       18.779       16.079       16.494      352.638      258.535      272.066        0.263        0.044       65.758       10.202        0.024      333.005        2.037      867.227
12/09/2014  08:31:00       20.681       17.731        2.491        7.016        7.473        7.043       49.228       55.839       49.610        0.045        0.008       27.241        4.756        0.030      332.995        2.023      867.238
12/09/2014  08:32:00       11.205       31.340       -2.985        7.421        9.588        6.901       55.077       91.921       47.621        0.066        0.010       33.282        4.240        0.016      333.060        2.128      867.225
12/09/2014  08:33:00       10.503       30.572       -9.876        7.019        6.747        6.759       49.263       45.518       45.687        0.064        0.007       32.326        4.803        0.022      333.101        2.194      867.205
12/09/2014  08:34:00       27.566        4.393       11.802       11.107        9.180       13.721      123.365       84.270      188.266        0.066        0.020       27.914        6.147        0.048      333.158        2.288      867.199
12/09/2014  08:35:00        1.524       -2.343        9.707       13.909        6.315        7.153      193.449       39.873       51.172        0.019        0.014        2.795        3.956        2.004      333.201        2.361      867.210
12/09/2014  08:36:00      -37.927      -18.767       -2.239       24.089       17.632        8.740      580.297      310.891       76.380        0.138        0.048       42.316        8.589        0.041      333.178        2.322      867.236
12/09/2014  08:37:00      -47.831       -9.715       -2.206       21.284       19.346        9.953      453.027      374.271       99.071        0.166        0.046       48.807        9.443        0.037      333.282        2.495      867.247
12/09/2014  08:38:00      -45.860       41.599       -2.539       20.480       33.132       14.668      419.428     1097.750      215.160        0.279        0.087       61.916       12.502        0.041      333.490        2.838      867.248
12/09/2014  08:39:00      -18.049       50.230        4.706       28.143       33.557       17.682      792.017     1126.078      312.658        0.255        0.112       53.374       11.315        0.045      333.399        2.688      867.262
12/09/2014  08:40:00       19.422       72.603      -12.163       14.114       21.760       12.066      199.203      473.489      145.579        0.331        0.041       75.156       12.126        0.026      333.258        2.453      867.284
12/09/2014  08:41:00       25.454       29.120       -2.224       15.134       25.445       14.387      229.027      647.468      206.980        0.129        0.054       38.677       13.409        0.120      333.242        2.428      867.279
12/09/2014  08:42:00       53.248       21.794        1.341       16.885       13.572       13.348      285.114      184.200      178.160        0.198        0.032       57.536        6.218        0.012      333.266        2.466      867.241
12/09/2014  08:43:00       64.276       62.259        0.407       22.437       17.012       16.940      503.425      289.416      286.978        0.454        0.054       89.484        6.583        0.005      333.254        2.446      867.186
12/09/2014  08:44:00       88.754       46.941        6.019       26.317       19.196       18.267      692.573      368.478      333.691        0.576        0.070      100.403        8.300        0.007      333.252        2.444      867.146
12/09/2014  08:45:00       64.743       50.756       10.662       16.430       18.067       15.347      269.949      326.418      235.539        0.386        0.042       82.267       10.544        0.016      333.248        2.439      867.174
12/09/2014  08:46:00       63.700       47.972        7.240       16.103       16.626       14.477      259.315      276.440      209.576        0.358        0.037       79.743        8.587        0.012      333.197        2.353      867.240
12/09/2014  08:47:00      -13.593       25.494       -1.989       23.263       17.077       12.804      541.151      291.623      163.940        0.092        0.050       28.891       11.490        0.158      333.245        2.432      867.284
12/09/2014  08:48:00      -99.237       28.652       -6.150       25.986       24.798       20.058      675.269      614.955      402.328        0.620        0.085      103.291       13.008        0.016      333.555        2.946      867.313
12/09/2014  08:49:00      -88.119       -4.205      -10.090       21.224       20.876       13.485      450.464      435.798      181.857        0.448        0.053       88.220        7.810        0.008      333.462        2.793      867.299
12/09/2014  08:50:00      -92.249      -40.776      -10.136       27.079       16.303       12.815      733.261      265.800      164.218        0.572        0.058      100.859        8.482        0.007      333.414        2.714      867.269
12/09/2014  08:51:00      -51.929      -14.040      -11.774       15.990       12.467        8.441      255.695      155.438       71.247        0.176        0.024       53.794        5.790        0.012      333.382        2.662      867.220
12/09/2014  08:52:00      -20.771       -2.155       -5.897       11.980        4.806        6.988      143.529       23.093       48.834        0.034        0.011       20.883        5.031        0.058      333.475        2.813      867.159
12/09/2014  08:53:00      -18.188        5.640       -2.271        9.580       10.932        9.506       91.774      119.503       90.360        0.033        0.015       19.042        7.063        0.138      333.474        2.810      867.142
12/09/2014  08:54:00       -2.050       22.999       -3.233       15.491       13.413        9.976      239.984      179.921       99.521        0.053        0.026       23.090        9.893        0.184      333.457        2.782      867.145
12/09/2014  08:55:00       -1.027       55.920       -8.609       10.929        8.423        5.104      119.436       70.947       26.054        0.171        0.011       55.930        3.367        0.004      333.462        2.792      867.166
12/09/2014  08:56:00       15.839       62.738       -7.797       29.490       25.981       25.883      869.660      675.030      669.904        0.323        0.111       64.707       19.666        0.092      333.453        2.777      867.183
12/09/2014  08:57:00       59.913       44.650       -3.193       27.970       19.487       15.545      782.342      379.732      241.636        0.350        0.070       74.721       10.058        0.018      333.455        2.779      867.185
12/09/2014  08:58:00      -10.701        7.388       16.037       14.423       19.424       16.767      208.015      377.301      281.148        0.065        0.043       13.003       12.304        0.895      333.518        2.883      867.191
12/09/2014  08:59:00       -1.807       22.037       10.237       11.593       14.462       22.960      134.407      209.155      527.165        0.073        0.044       22.111       13.547        0.375      333.498        2.852      867.183
12/09/2014  09:00:00      -32.953        1.269       -4.650       24.301        7.615        7.174      590.524       57.984       51.464        0.090        0.035       32.978        6.950        0.044      333.554        2.945      867.191
12/09/2014  09:01:00       -5.584      -41.718      -13.529       25.773       19.720       12.930      664.231      388.863      167.188        0.159        0.061       42.090       12.732        0.092      333.685        3.161      867.189
12/09/2014  09:02:00      -17.880      -17.162        6.069       21.216       18.354       12.926      450.098      336.856      167.079        0.080        0.048       24.784       10.503        0.180      333.802        3.357      867.203
12/09/2014  09:03:00      -29.416      -12.699       10.708       29.389       26.680       18.416      863.697      711.837      339.162        0.153        0.096       32.040       17.926        0.313      333.776        3.312      867.196
12/09/2014  09:04:00      -93.705      -41.698        5.131       44.988       39.088       21.546     2023.939     1527.873      464.238        0.728        0.201      102.564       12.511        0.015      333.718        3.216      867.167
12/09/2014  09:05:00      -30.710      -13.706        9.783       32.916       21.028       16.815     1083.441      442.181      282.758        0.152        0.090       33.629       10.880        0.105      333.737        3.247      867.135
12/09/2014  09:06:00       -8.633      -16.660       16.645       27.071       29.726       25.100      732.855      883.633      630.015        0.144        0.112       18.764       20.562        1.201      333.841        3.421      867.118
12/09/2014  09:07:00        0.530       24.317       31.198       31.283       24.413       21.841      978.651      596.011      477.040        0.181        0.103       24.322       21.070        0.750      333.837        3.415      867.122
12/09/2014  09:08:00      -38.810       -8.927        9.381       22.982       20.540       14.509      528.161      421.873      210.524        0.142        0.058       39.823       14.483        0.132      333.855        3.444      867.135
12/09/2014  09:09:00      -27.769       16.992       28.141       36.228       23.944       19.613     1312.434      573.320      384.654        0.206        0.114       32.556       18.069        0.308      333.901        3.520      867.156
12/09/2014  09:10:00      -21.829        8.445        9.100       28.360       21.808       14.683      804.268      475.581      215.594        0.106        0.075       23.406       12.406        0.281      333.913        3.540      867.171
12/09/2014  09:11:00       24.591        2.699       22.880       17.965       18.626       19.747      322.743      346.944      389.926        0.110        0.053       24.738        9.642        0.152      333.919        3.550      867.166
12/09/2014  09:12:00       13.054       42.426       -5.507       21.216       28.668       12.710      450.136      821.870      161.549        0.172        0.072       44.389       11.892        0.072      333.906        3.528      867.137
12/09/2014  09:13:00       -5.629       34.871       27.897       29.295       57.632       22.822      858.198     3321.403      520.854        0.336        0.235       35.322       16.372        0.215      333.935        3.576      867.108
12/09/2014  09:14:00      -21.355       15.908       32.571       25.652       31.482       21.275      658.018      991.144      452.621        0.194        0.105       26.629       12.014        0.204      334.015        3.708      867.082
12/09/2014  09:15:00       -9.945       30.548       59.060       13.429       27.821       21.387      180.325      774.010      457.409        0.297        0.071       32.126       20.238        0.397      333.939        3.583      867.076
12/09/2014  09:16:00       -5.400       16.355       52.194       14.326       26.943       17.837      205.239      725.943      318.142        0.213        0.062       17.223       17.667        1.052      333.852        3.438      867.084
12/09/2014  09:17:00       36.534       45.096       50.069       42.340       32.174       29.007     1792.702     1035.141      841.401        0.477        0.183       58.038       25.805        0.198      333.646        3.096      867.082
12/09/2014  09:18:00       40.718       45.233        9.904       20.857       30.726       20.776      435.024      944.088      431.660        0.281        0.091       60.860        8.172        0.018      333.578        2.984      867.088
12/09/2014  09:19:00       42.428       37.071       11.587       34.109       19.048       21.004     1163.420      362.813      441.171        0.264        0.098       56.342       15.575        0.076      333.561        2.957      867.104
12/09/2014  09:20:00        6.997        7.978        3.082       14.720       23.682       13.523      216.676      560.824      182.864        0.054        0.048       10.611       11.282        1.130      333.652        3.106      867.144
12/09/2014  09:21:00       13.656       78.850      -15.064       11.085       14.864        8.141      122.873      220.935       66.271        0.352        0.021       80.024        4.287        0.003      333.552        2.942      867.199
12/09/2014  09:22:00       21.468       48.998      -13.157       20.244       21.687       13.090      409.809      470.339      171.359        0.204        0.053       53.495       13.000        0.059      333.600        3.020      867.246
12/09/2014  09:23:00       19.584       57.553       -8.768       20.857       25.095       14.186      435.011      629.762      201.253        0.252        0.063       60.794        8.303        0.019      333.613        3.044      867.285
12/09/2014  09:24:00        4.853       32.726       -2.841       13.384       17.471       11.960      179.135      305.247      143.036        0.086        0.031       33.084        9.315        0.079      333.599        3.020      867.314
12/09/2014  09:25:00        4.684       28.573       -0.373        9.167       18.401        9.412       84.040      338.602       88.595        0.067        0.026       28.954        5.252        0.033      333.632        3.073      867.332
12/09/2014  09:26:00      -23.951        3.054        1.777       33.121       14.147       10.585     1096.985      200.143      112.042        0.100        0.070       24.145       11.336        0.220      333.735        3.246      867.322
12/09/2014  09:27:00      -87.345        6.758       -7.470       30.274       24.008       21.696      916.539      576.369      470.733        0.485        0.098       87.606       16.761        0.037      333.956        3.611      867.303
12/09/2014  09:28:00      -56.842       -1.976       -3.263       37.746       23.596       19.662     1424.742      556.790      386.598        0.281        0.118       56.876       21.772        0.147      334.061        3.786      867.271
12/09/2014  09:29:00      -44.770      -30.303        2.524       29.702       27.625       18.000      882.193      763.148      323.990        0.245        0.098       54.061       16.693        0.095      333.944        3.592      867.240
12/09/2014  09:30:00      -32.298      -54.293        6.887       18.875       14.795       12.119      356.269      218.889      146.866        0.238        0.036       63.173        7.172        0.013      333.917        3.550      867.213
12/09/2014  09:31:00      -48.129       12.663        2.039       20.560       23.585       15.913      422.697      556.232      253.211        0.186        0.062       49.767       12.568        0.064      333.941        3.587      867.206
12/09/2014  09:32:00      -45.992       -0.400        0.517       21.881       23.381       14.322      478.777      546.674      205.133        0.167        0.062       45.993       11.111        0.058      333.933        3.575      867.199
12/09/2014  09:33:00      -37.591        6.359        3.434       18.078       16.231       13.311      326.817      263.456      177.188        0.112        0.038       38.125       12.144        0.101      333.997        3.681      867.192
12/09/2014  09:34:00      -26.619      -12.330        2.735       16.523       18.871       12.652      272.993      356.102      160.072        0.083        0.039       29.336        8.967        0.093      334.040        3.752      867.192
12/09/2014  09:35:00      -19.659      -39.974       10.873       35.571       24.686       23.381     1265.317      609.419      546.663        0.226        0.121       44.546       23.403        0.276      334.077        3.813      867.191
12/09/2014  09:36:00      -31.639      -11.316        6.764       44.780       22.317       23.970     2005.233      498.027      574.542        0.213        0.154       33.602       28.837        0.737      334.167        3.961      867.201
12/09/2014  09:37:00      -43.799      -28.026        4.329       24.470       33.163       18.955      598.795     1099.778      359.277        0.239        0.103       51.998       17.879        0.118      334.061        3.787      867.205
12/09/2014  09:38:00      -44.689      -51.088       -2.571       25.558       25.270       14.175      653.205      638.576      200.930        0.305        0.075       67.875       14.385        0.045      334.026        3.729      867.209
12/09/2014  09:39:00      -86.372      -51.905       -3.552       29.792       27.702       15.799      887.561      767.390      249.599        0.604        0.095      100.768        9.917        0.010      334.036        3.744      867.203
12/09/2014  09:40:00      -72.312      -27.918        1.741       29.691       29.574       17.465      881.577      874.593      305.024        0.404        0.103       77.514       14.628        0.036      334.041        3.752      867.217
12/09/2014  09:41:00      -87.157      -15.266       -5.414       21.788       20.750       16.555      474.705      430.582      274.062        0.452        0.059       88.484       12.023        0.018      334.175        3.974      867.252
12/09/2014  09:42:00      -66.024      -24.443       -2.480       48.308       34.472       17.915     2333.698     1188.344      320.947        0.440        0.192       70.403       22.731        0.104      334.273        4.137      867.309
12/09/2014  09:43:00      -98.171        1.599      -11.050       59.791       29.831       25.054     3575.020      889.861      627.704        0.743        0.255       98.184       28.445        0.084      334.214        4.038      867.345
12/09/2014  09:44:00      -83.530      -12.426       -2.161       39.009       35.927       21.928     1521.663     1290.765      480.855        0.521        0.165       84.449       15.786        0.035      334.193        4.005      867.356
12/09/2014  09:45:00      -95.095       -3.021       -0.054       50.659       31.041       24.612     2566.289      963.529      605.757        0.659        0.207       95.143       21.868        0.053      334.102        3.854      867.337
12/09/2014  09:46:00      -70.905      -57.810        3.195       32.401       18.709       19.196     1049.844      350.035      368.493        0.507        0.088       91.485       14.567        0.025      333.956        3.611      867.307
12/09/2014  09:47:00      -45.108      -46.786      -10.168       12.510       14.770        8.188      156.503      218.159       67.043        0.238        0.022       64.990        6.554        0.010      333.924        3.559      867.298
12/09/2014  09:48:00      -58.893      -18.434       -0.441       29.814       25.151       15.565      888.865      632.596      242.278        0.279        0.088       61.710       12.352        0.040      334.010        3.700      867.290
12/09/2014  09:49:00      -68.012      -37.116       -4.504       30.101       30.252       16.290      906.099      915.178      265.362        0.405        0.104       77.480       15.499        0.040      334.030        3.733      867.291
12/09/2014  09:50:00      -98.180      -65.923      -15.150       43.075       17.504       14.394     1855.419      306.379      207.200        0.829        0.118      118.259       13.164        0.012      334.029        3.734      867.295
12/09/2014  09:51:00      -79.259      -65.343       -9.895       27.253       18.465       15.660      742.706      340.971      245.220        0.599        0.066      102.721       15.577        0.023      334.070        3.799      867.285
12/09/2014  09:52:00      -60.868      -22.389        0.425       27.992       21.137       12.340      783.567      446.775      152.264        0.279        0.069       64.856       14.098        0.047      334.090        3.833      867.252
12/09/2014  09:53:00      -53.479      -30.746        5.495       28.816       20.021       12.839      830.390      400.834      164.835        0.262        0.070       61.687       10.900        0.031      334.183        3.987      867.228
12/09/2014  09:54:00      -21.502      -14.361       -1.762       13.936       17.338       10.619      194.208      300.622      112.767        0.064        0.030       25.857        8.763        0.115      334.221        4.052      867.224
12/09/2014  09:55:00      -31.157      -11.564       -1.491       15.584       17.336       11.200      242.855      300.536      125.436        0.089        0.033       33.234       11.332        0.116      334.274        4.139      867.235
12/09/2014  09:56:00      -29.271      -13.634       -1.393       15.578       14.069       11.089      242.687      197.928      122.971        0.080        0.028       32.290       10.151        0.099      334.412        4.367      867.226
12/09/2014  09:57:00      -12.983       41.878        7.129       18.566       21.169       13.702      344.685      448.145      187.750        0.148        0.049       43.844        3.998        0.008      334.415        4.372      867.223
12/09/2014  09:58:00        0.120       47.190       -6.887       14.010       10.671       13.380      196.278      113.880      179.017        0.138        0.024       47.190        9.148        0.038      334.342        4.251      867.228
12/09/2014  09:59:00       -8.043       37.474       -8.115       12.405       15.861        7.184      153.895      251.582       51.604        0.100        0.023       38.327        4.968        0.017      334.331        4.234      867.245
12/09/2014  10:00:00      -16.067        9.751       -1.219       21.774       22.657       16.584      474.121      513.358      275.040        0.081        0.063       18.794        9.532        0.257      334.626        4.724      867.262
12/09/2014  10:01:00        8.367        2.998       -2.509       20.640       13.269       11.840      426.029      176.068      140.177        0.041        0.037        8.888       13.037        2.152      334.637        4.740      867.257
12/09/2014  10:02:00       38.175       46.454        6.353       23.173       19.763       21.571      536.977      390.574      465.314        0.252        0.070       60.127       19.220        0.102      334.456        4.442      867.245
12/09/2014  10:03:00       13.946       23.560        3.999       15.775       10.573       16.737      248.846      111.787      280.111        0.070        0.032       27.378       12.421        0.206      334.462        4.452      867.231
12/09/2014  10:04:00       -4.202        9.415       25.305       13.267       15.521       13.663      176.002      240.904      186.676        0.067        0.030       10.310        9.979        0.937      334.782        4.982      867.227
12/09/2014  10:05:00       11.483       53.613       -7.477       25.226       16.854        9.944      636.337      284.054       98.885        0.204        0.051       54.830        7.309        0.018      334.473        4.468      867.191
12/09/2014  10:06:00       12.461       44.403       26.514       31.894       37.472       43.444     1017.236     1404.172     1887.362        0.357        0.215       46.118       33.009        0.512      334.599        4.678      867.153
12/09/2014  10:07:00       20.560       54.165       45.649       39.708       38.741       33.598     1576.729     1500.875     1128.794        0.482        0.210       57.936       27.600        0.227      334.517        4.541      867.118
12/09/2014  10:08:00       45.981       34.870       12.048       34.201       17.204       17.125     1169.695      295.994      293.277        0.262        0.088       57.707       10.964        0.036      334.530        4.563      867.098
12/09/2014  10:09:00       39.826       30.763        4.042       27.342       23.164       22.417      747.590      536.571      502.515        0.217        0.089       50.323        7.765        0.024      334.471        4.466      867.091
12/09/2014  10:10:00       21.015       23.524       -3.444       24.262       27.167       16.622      588.658      738.072      276.302        0.130        0.080       31.544        7.042        0.050      334.450        4.432      867.117
12/09/2014  10:11:00        8.391       69.360       -5.212       15.798       24.632       15.154      249.573      606.747      229.656        0.300        0.054       69.866       10.475        0.022      334.406        4.359      867.143
12/09/2014  10:12:00       16.518       68.556      -14.764       19.228       28.099       10.266      369.707      789.530      105.395        0.323        0.063       70.517        9.611        0.019      334.432        4.400      867.177
12/09/2014  10:13:00       15.701      114.948      -18.986       19.139       27.148       15.209      366.303      736.998      231.307        0.758        0.067      116.015       13.921        0.014      334.427        4.392      867.224
12/09/2014  10:14:00      -12.640       72.543       14.760       26.897       43.743       24.634      723.427     1913.484      606.853        0.444        0.162       73.636       24.760        0.113      334.624        4.720      867.300
12/09/2014  10:15:00       -2.618      119.897       -6.529       15.740       22.567       17.220      247.757      509.286      296.533        0.774        0.053      119.926        8.863        0.005      334.533        4.569      867.359
12/09/2014  10:16:00       -0.703       75.867       -5.638       17.436       19.527       17.735      304.021      381.314      314.520        0.339        0.050       75.870       12.445        0.027      334.631        4.732      867.403
12/09/2014  10:17:00        0.448       17.778        4.298        8.296       30.211       17.419       68.827      912.696      303.436        0.081        0.064       17.783       17.763        0.998      334.790        4.996      867.418
12/09/2014  10:18:00       57.513       31.913        2.696       11.504       12.682       13.105      132.342      160.827      171.743        0.240        0.023       65.774        2.799        0.002      334.629        4.728      867.381
12/09/2014  10:19:00       82.864       70.518       19.620       50.984       25.135       29.205     2599.390      631.767      852.942        0.815        0.204      108.808       26.745        0.060      334.688        4.826      867.320
12/09/2014  10:20:00      104.314       65.989       15.888       38.404       30.320       30.621     1474.892      919.322      937.632        0.941        0.167      123.434       23.509        0.036      334.710        4.862      867.265
12/09/2014  10:21:00      114.960       86.683       25.633       41.940       33.605       33.634     1758.961     1129.282     1131.227        1.270        0.201      143.978       27.496        0.036      334.775        4.970      867.198
12/09/2014  10:22:00      123.728       77.806       14.772       52.371       36.801       34.976     2742.772     1354.307     1223.349        1.345        0.266      146.159       30.751        0.044      334.722        4.881      867.154
12/09/2014  10:23:00      125.668       79.750       12.860       28.703       27.895       27.171      823.875      778.157      738.248        1.233        0.117      148.837       10.607        0.005      334.592        4.667      867.160
12/09/2014  10:24:00       74.789       57.041       17.730       28.130       24.040       26.695      791.277      577.906      712.625        0.562        0.104       94.059       11.393        0.015      334.635        4.738      867.157
12/09/2014  10:25:00       22.945       32.770       37.706       20.659       21.067       26.024      426.800      443.829      677.248        0.228        0.077       40.004       11.175        0.078      334.823        5.050      867.158
12/09/2014  10:26:00       63.803       62.809       35.608       68.833       32.684       28.987     4737.940     1068.245      840.241        0.796        0.332       89.531       25.087        0.079      334.782        4.982      867.141
12/09/2014  10:27:00      133.135       54.921       29.974       48.944       35.526       37.185     2395.499     1262.125     1382.738        1.334        0.252      144.018       29.778        0.043      334.621        4.714      867.151
12/09/2014  10:28:00       84.458       57.831       10.160       44.994       31.159       28.493     2024.488      970.893      811.868        0.719        0.190      102.360       23.108        0.051      334.608        4.692      867.162
12/09/2014  10:29:00       94.057       53.696        8.362       32.153       33.856       30.807     1033.824     1146.239      949.068        0.746        0.156      108.306       20.967        0.037      334.723        4.883      867.148
12/09/2014  10:30:00       64.455       61.214       67.482       48.735       45.567       31.384     2375.137     2076.326      984.943        0.894        0.272       88.891       33.157        0.139      334.772        4.966      867.143
12/09/2014  10:31:00       87.761       66.154       60.166       60.317       42.292       27.123     3638.166     1788.612      735.639        1.093        0.308      109.901       18.524        0.028      334.723        4.882      867.158
12/09/2014  10:32:00       79.601       61.426       36.898       29.652       22.784       31.652      879.222      519.112     1001.840        0.694        0.120      100.545       17.692        0.031      334.664        4.786      867.168
12/09/2014  10:33:00       52.668       45.333       14.322       25.014       15.076       18.730      625.720      227.276      350.821        0.312        0.060       69.491       15.771        0.052      334.634        4.736      867.169
12/09/2014  10:34:00       43.128       33.895        7.153       42.947       38.221       24.749     1844.412     1460.882      612.510        0.349        0.196       54.854       23.605        0.185      334.809        5.027      867.150
12/09/2014  10:35:00       38.833       59.802       60.700       56.186       45.804       28.979     3156.837     2098.006      839.779        0.743        0.305       71.304       28.468        0.159      335.038        5.406      867.131
12/09/2014  10:36:00       42.306       40.276       53.172       39.183       30.862       17.630     1535.295      952.438      310.822        0.452        0.140       58.411       22.760        0.152      334.969        5.291      867.141
12/09/2014  10:37:00        2.730      -25.189       20.016       15.966       31.691       18.321      254.928     1004.334      335.674        0.132        0.080       25.336       15.812        0.389      335.198        5.673      867.141
12/09/2014  10:38:00       33.247      -48.274       14.962       30.733       46.702       32.540      944.536     2181.111     1058.832        0.392        0.209       58.615       22.757        0.151      335.159        5.609      867.117
12/09/2014  10:39:00       33.495      -31.188       16.681       34.151       38.545       31.324     1166.259     1485.720      981.213        0.300        0.182       45.767       18.881        0.170      335.171        5.626      867.090
12/09/2014  10:40:00       63.344      -77.156        9.947       37.679       36.970       31.538     1419.719     1366.761      994.616        0.692        0.189       99.827       20.945        0.044      334.973        5.297      867.056
12/09/2014  10:41:00       21.255      -43.113       14.732       31.091       35.671       32.018      966.640     1272.414     1025.174        0.290        0.163       48.067       26.092        0.295      335.208        5.689      867.019
12/09/2014  10:42:00        9.694       50.706       62.614       26.776       54.155       34.807      716.977     2932.766     1211.528        0.572        0.243       51.625       32.357        0.393      335.222        5.713      866.968
12/09/2014  10:43:00       81.212       76.411       65.655       70.051       50.658       49.354     4907.097     2566.230     2435.797        1.332        0.495      111.508       48.073        0.186      335.030        5.392      866.921
12/09/2014  10:44:00      157.054       81.975       51.107       51.290       51.430       40.897     2630.650     2645.058     1672.537        2.047        0.347      177.160       30.027        0.029      334.874        5.133      866.891
12/09/2014  10:45:00       42.950       69.585       76.789       53.920       53.757       52.942     2907.341     2889.809     2802.864        1.059        0.430       81.772       42.584        0.271      335.018        5.374      866.851
12/09/2014  10:46:00       18.471       75.255      104.800       50.868       60.796       42.207     2587.584     3696.109     1781.389        1.252        0.403       77.489       42.043        0.294      335.034        5.401      866.819
12/09/2014  10:47:00       77.223       71.662       39.090       70.713       53.649       55.507     5000.379     2878.174     3081.062        1.179        0.548      105.350       53.853        0.261      335.084        5.485      866.784
12/09/2014  10:48:00       73.635       46.312       19.020       39.219       45.693       32.788     1538.131     2087.824     1075.083        0.631        0.235       86.988       20.049        0.053      335.154        5.598      866.782
12/09/2014  10:49:00       41.605       56.196        0.700       22.400       20.861       22.793      501.755      435.187      519.535        0.317        0.073       69.921        8.175        0.014      335.010        5.360      866.796
12/09/2014  10:50:00       14.246        7.337        7.240       23.134       21.990       19.730      535.170      483.573      389.284        0.086        0.070       16.024       12.237        0.583      335.253        5.764      866.832
12/09/2014  10:51:00       32.286       20.902       27.231       28.958       23.498       25.156      838.544      552.170      632.849        0.212        0.101       38.462       11.593        0.091      335.276        5.802      866.860
12/09/2014  10:52:00        4.443       34.927       46.330       25.320       49.552       43.346      641.121     2455.418     1878.910        0.418        0.249       35.209       38.871        1.219      335.313        5.863      866.881
12/09/2014  10:53:00       35.292      102.658      102.203       36.578       36.896       22.193     1337.958     1361.345      492.545        1.271        0.160      108.555       16.266        0.022      334.949        5.261      866.876
12/09/2014  10:54:00      117.284       83.510       61.134       29.969       28.616       29.989      898.128      818.855      899.315        1.354        0.131      143.977       20.384        0.020      334.859        5.110      866.870
12/09/2014  10:55:00       58.515       55.310       36.759       27.920       20.009       20.547      779.500      400.360      422.163        0.472        0.080       80.518       18.948        0.055      334.923        5.217      866.855
12/09/2014  10:56:00       35.728       54.447       54.849       39.775       38.256       22.660     1582.032     1463.527      513.459        0.540        0.178       65.123       14.015        0.046      335.229        5.725      866.820
12/09/2014  10:57:00       53.702       71.508       47.132       34.045       29.321       28.554     1159.040      859.733      815.334        0.653        0.142       89.427       12.330        0.019      335.264        5.781      866.778
12/09/2014  10:58:00       92.467       67.896       21.570       48.557       34.162       31.102     2357.810     1167.053      967.331        0.906        0.225      114.718       29.529        0.066      335.122        5.546      866.749
12/09/2014  10:59:00      162.278      100.335       11.823       35.503       35.427       31.818     1260.443     1255.099     1012.378        2.003        0.176      190.791       16.482        0.007      334.981        5.312      866.720
12/09/2014  11:00:00      140.444       77.398       11.222       45.793       45.267       36.226     2096.987     2049.129     1312.324        1.565        0.273      160.359       17.148        0.011      335.171        5.626      866.675
12/09/2014  11:01:00       49.511       61.216       53.322       72.907       45.417       50.763     5315.422     2062.680     2576.923        0.950        0.498       78.732       44.356        0.317      335.379        5.971      866.633
12/09/2014  11:02:00      115.123       88.457       15.260       61.796       43.569       40.538     3818.749     1898.265     1643.343        1.433        0.368      145.183       34.619        0.057      335.152        5.597      866.595
12/09/2014  11:03:00      -17.592       67.561       87.861       21.441       47.790       44.343      459.712     2283.906     1966.298        0.865        0.235       69.814       37.779        0.293      335.449        6.090      866.597
12/09/2014  11:04:00        0.674       29.071       10.795       27.381       30.851       36.581      749.713      951.792     1338.147        0.200        0.152       29.079       23.912        0.676      335.472        6.128      866.635
12/09/2014  11:05:00      -13.282      -49.478       -0.817       34.138       39.313       20.472     1165.379     1545.481      419.088        0.288        0.156       51.230        8.861        0.030      335.423        6.047      866.687
12/09/2014  11:06:00        9.608       30.594       -4.667       20.205       38.675       24.445      408.230     1495.785      597.553        0.178        0.125       32.067       22.046        0.473      335.242        5.746      866.720
12/09/2014  11:07:00       27.943       62.701       -4.204       38.889       24.443       16.906     1512.360      597.478      285.816        0.356        0.120       68.646        4.979        0.005      335.240        5.742      866.706
12/09/2014  11:08:00       80.951       50.705        7.637       31.554       35.445       35.019      995.680     1256.352     1226.316        0.633        0.174       95.520       20.925        0.048      335.217        5.703      866.674
12/09/2014  11:09:00       61.436       10.713        7.437       18.054       17.876       20.171      325.940      319.557      406.864        0.250        0.053       62.363       11.449        0.034      335.134        5.566      866.640
12/09/2014  11:10:00       28.792       -5.540        3.387       21.121       14.312       19.849      446.081      204.825      394.002        0.096        0.052       29.321       15.450        0.278      335.193        5.664      866.610
12/09/2014  11:11:00       19.811       12.003       21.893       18.748       22.034       14.102      351.486      485.506      198.862        0.103        0.052       23.164       15.077        0.424      335.295        5.833      866.589
12/09/2014  11:12:00       16.006      -30.300       12.631       19.390       21.879       15.164      375.989      478.686      229.960        0.121        0.054       34.268       15.084        0.194      335.536        6.235      866.584
12/09/2014  11:13:00       -0.685        0.238       18.992        8.760       23.175       11.612       76.731      537.092      134.848        0.055        0.037        0.725       13.924      368.371      335.718        6.540      866.570
12/09/2014  11:14:00       26.238       33.061       33.778       16.949       12.758       20.712      287.283      162.775      428.979        0.190        0.044       42.208       13.325        0.100      335.462        6.111      866.558
12/09/2014  11:15:00       56.475       67.567       51.882       34.846       25.929       31.394     1214.244      672.299      985.596        0.666        0.144       88.061       17.925        0.041      335.418        6.037      866.522
12/09/2014  11:16:00       70.583       80.407       52.190       48.563       35.370       39.933     2358.340     1251.027     1594.634        0.969        0.260      106.992       30.992        0.084      335.485        6.150      866.491
12/09/2014  11:17:00       44.214       77.340       18.940       40.493       32.441       43.285     1639.682     1052.424     1873.580        0.643        0.228       89.086       36.651        0.169      335.590        6.325      866.449
12/09/2014  11:18:00       -0.344       65.313       64.379       22.794       34.457       25.729      519.576     1187.316      661.972        0.539        0.118       65.314       16.640        0.065      335.585        6.317      866.412
12/09/2014  11:19:00       -0.531       38.222       42.918       26.258       38.948       19.558      689.464     1516.955      382.534        0.295        0.129       38.226       13.840        0.131      335.651        6.427      866.392
12/09/2014  11:20:00       18.844       26.731       35.447       19.965       30.384       21.238      398.596      923.211      451.036        0.205        0.089       32.706        8.554        0.068      335.722        6.546      866.407
12/09/2014  11:21:00       52.815       48.390        5.283       33.038       29.430       23.977     1091.484      866.107      574.918        0.385        0.127       71.631       16.823        0.055      335.451        6.092      866.460
12/09/2014  11:22:00       38.304       29.411      -10.838       21.550       28.849       16.534      464.398      832.253      273.358        0.201        0.079       48.293       14.842        0.094      335.383        5.980      866.483
12/09/2014  11:23:00       13.508       -6.803       -4.156       15.129        6.826        4.680      228.878       46.599       21.902        0.027        0.015       15.124        4.580        0.092      335.440        6.074      866.499
12/09/2014  11:24:00       -4.842      -16.420      -11.669        6.893        9.997        7.372       47.511       99.942       54.341        0.032        0.010       17.119        5.940        0.120      335.524        6.215      866.496
12/09/2014  11:25:00        7.842       29.651       -1.082       13.039       19.659       16.098      170.019      386.486      259.139        0.088        0.041       30.670       11.167        0.133      335.530        6.224      866.494
12/09/2014  11:26:00        9.230       16.395       14.732       13.174       10.953        8.828      173.565      119.962       77.928        0.047        0.019       18.814        5.031        0.071      335.637        6.404      866.495
12/09/2014  11:27:00       -0.528        1.586       -2.196       11.699       15.736       13.252      136.863      247.619      175.624        0.028        0.028        1.671       13.514       65.373      335.616        6.369      866.501
12/09/2014  11:28:00        1.810       12.404        1.951        6.149        8.739       10.637       37.815       76.370      113.140        0.019        0.011       12.535        8.399        0.449      335.725        6.550      866.504
12/09/2014  11:29:00      -39.462       10.656       -5.868       21.037       14.215       14.832      442.554      202.059      219.974        0.128        0.043       40.875       14.134        0.120      335.724        6.550      866.481
12/09/2014  11:30:00      -27.515        2.236       -7.317       26.823       13.261       18.946      719.478      175.842      358.956        0.103        0.063       27.605       10.736        0.151      335.754        6.598      866.460
12/09/2014  11:31:00      -39.898        4.442       -8.811       27.900       24.157       11.070      778.398      583.561      122.543        0.159        0.074       40.145        9.534        0.056      335.853        6.765      866.437
12/09/2014  11:32:00      -49.926      -20.128       -6.193       14.743       13.289       11.474      217.348      176.610      131.653        0.173        0.026       53.831        9.338        0.030      335.748        6.589      866.400
12/09/2014  11:33:00      -43.975      -12.545       -7.998       14.836       19.328       10.943      220.102      373.585      119.759        0.143        0.036       45.730       10.020        0.048      335.732        6.562      866.388
12/09/2014  11:34:00       -1.133        6.084        4.533       11.886        7.558       10.120      141.287       57.123      102.410        0.018        0.015        6.189        6.718        1.178      336.070        7.125      866.369
12/09/2014  11:35:00        7.282       19.185       19.534       13.653       14.973       16.109      186.394      224.196      259.504        0.074        0.034       20.521        6.416        0.098      336.211        7.360      866.333
12/09/2014  11:36:00       -0.994        8.170        2.024       14.489       17.378       16.823      209.926      302.001      283.005        0.043        0.040        8.230       11.570        1.976      336.211        7.361      866.329
12/09/2014  11:37:00       -7.377      -40.673       15.407       17.599       30.137       22.414      309.725      908.244      502.377        0.183        0.086       41.336       13.910        0.113      336.184        7.315      866.326
12/09/2014  11:38:00       -1.077       16.740       19.541       15.596       30.819       24.192      243.241      949.824      585.267        0.122        0.089       16.774       17.524        1.091      336.230        7.392      866.325
12/09/2014  11:39:00       18.735       41.880       51.136       30.784       31.025       20.307      947.630      962.523      412.386        0.352        0.116       45.879       12.245        0.071      336.146        7.253      866.314
12/09/2014  11:40:00       -0.249       55.313       74.511       25.532       36.092       27.164      651.880     1302.628      737.861        0.565        0.135       55.313       13.882        0.063      336.116        7.202      866.293
12/09/2014  11:41:00       44.296       79.272       69.328       52.470       34.177       40.400     2753.101     1168.034     1632.191        0.930        0.278       90.808       35.944        0.157      335.956        6.935      866.281
12/09/2014  11:42:00       24.467       68.724       82.039       40.417       38.306       21.609     1633.499     1467.384      466.938        0.781        0.178       72.950       21.711        0.089      335.951        6.926      866.285
12/09/2014  11:43:00       94.335       76.178       54.982       68.637       42.086       47.642     4711.001     1771.199     2269.732        1.324        0.438      121.253       47.711        0.155      335.834        6.732      866.265
12/09/2014  11:44:00       77.346       27.871       39.607       36.719       36.818       30.865     1348.279     1355.590      952.667        0.599        0.183       82.214       19.217        0.055      335.929        6.889      866.250
12/09/2014  11:45:00       14.028       65.057       82.653       37.233       48.050       40.077     1386.265     2308.799     1606.174        0.828        0.265       66.552       31.220        0.220      336.080        7.142      866.241
12/09/2014  11:46:00      125.882      102.579       59.352       46.916       37.538       52.876     2201.086     1409.098     2795.870        1.815        0.320      162.385       41.450        0.065      335.774        6.632      866.242
12/09/2014  11:47:00      129.060       78.845       50.667       38.050       29.346       29.905     1447.811      861.208      894.309        1.432        0.160      151.238       17.909        0.014      335.815        6.700      866.245
12/09/2014  11:48:00        6.892      -33.777        6.266       32.715       45.206       22.644     1070.295     2043.586      512.758        0.243        0.181       34.473       17.782        0.266      336.076        7.135      866.250
12/09/2014  11:49:00       57.329      -48.120       26.942       51.617       79.374       47.910     2664.318     6300.289     2295.414        0.879        0.563       74.848       49.065        0.430      336.187        7.320      866.217
12/09/2014  11:50:00       81.638      -30.823       24.000       57.189       54.046       32.607     3270.590     2920.980     1063.187        0.772        0.363       87.263       39.748        0.207      336.040        7.074      866.202
12/09/2014  11:51:00       56.143     -106.168       -8.563       26.356       32.475       19.722      694.615     1054.645      388.947        0.832        0.107      120.099       16.428        0.019      336.069        7.123      866.204
12/09/2014  11:52:00       60.322      -76.911       10.824       28.122       52.893       34.035      790.843     2797.698     1158.376        0.721        0.237       97.745       38.326        0.154      336.027        7.053      866.204
12/09/2014  11:53:00       65.580       68.818       63.295       37.793       30.969       29.748     1428.298      959.106      884.941        0.816        0.164       95.061       22.353        0.055      336.056        7.103      866.186
12/09/2014  11:54:00       86.470       65.379       40.156       63.087       33.877       29.854     3979.968     1147.619      891.271        0.969        0.301      108.404       29.296        0.073      336.129        7.224      866.173
12/09/2014  11:55:00       27.500       17.795       45.403       48.978       57.960       39.635     2398.879     3359.380     1570.939        0.523        0.366       32.755       38.625        1.390      336.257        7.438      866.157
12/09/2014  11:56:00       90.437     -112.411       -8.419       41.666       42.335       29.705     1736.063     1792.221      882.364        1.265        0.221      144.275       17.313        0.014      336.135        7.232      866.128
12/09/2014  11:57:00       65.249      -24.527       15.223       49.509       41.725       34.457     2451.148     1740.961     1187.306        0.523        0.269       69.706       29.539        0.180      336.151        7.259      866.102
12/09/2014  11:58:00       38.017       -9.946       32.378       36.341       35.681       26.648     1320.682     1273.162      710.138        0.295        0.165       39.297       27.421        0.487      336.206        7.353      866.078
12/09/2014  11:59:00       42.680       23.894       16.463       24.318       30.922       31.745      591.343      956.184     1007.748        0.261        0.128       48.913       21.592        0.195      336.154        7.266      866.066
12/09/2014  12:00:00       80.132       55.505       29.593       45.329       26.791       32.836     2054.722      717.745     1078.235        0.711        0.193       97.478       17.524        0.032      336.139        7.240      866.046
12/09/2014  12:01:00       36.753       45.878       56.073       47.049       28.686       21.935     2213.651      822.876      481.124        0.506        0.176       58.784       22.076        0.141      336.241        7.411      866.054
12/09/2014  12:02:00       50.405       32.843        5.134       26.348       27.604       25.148      694.195      761.966      632.433        0.287        0.104       60.161        6.972        0.013      336.128        7.223      866.103
12/09/2014  12:03:00       23.857       13.380       34.717       28.773       19.794       22.004      827.876      391.814      484.172        0.183        0.085       27.353       13.135        0.231      336.362        7.613      866.168
12/09/2014  12:04:00       64.157       57.524       29.743       30.299       25.183       26.911      918.052      634.167      724.191        0.529        0.114       86.169       23.675        0.075      336.148        7.255      866.216
12/09/2014  12:05:00        9.561        1.834       19.402       26.299       41.778       19.939      691.655     1745.375      397.570        0.165        0.142        9.736       24.186        6.172      336.367        7.620      866.240
12/09/2014  12:06:00       51.616      -34.010       11.049       41.998       29.448       25.622     1763.791      867.181      656.502        0.361        0.164       61.814       19.149        0.096      336.395        7.669      866.228
12/09/2014  12:07:00       23.989      -39.742       23.326       29.429       56.085       36.812      866.067     3145.568     1355.127        0.403        0.268       46.421       33.038        0.507      336.500        7.843      866.187
12/09/2014  12:08:00      -16.132       23.262       57.070       35.371       60.541       38.762     1251.122     3665.231     1502.524        0.524        0.321       28.308       35.340        1.558      336.580        7.978      866.144
12/09/2014  12:09:00       79.327       72.249       59.977       61.120       38.980       40.159     3735.692     1519.448     1612.754        1.099        0.343      107.297       32.352        0.091      336.241        7.410      866.099
12/09/2014  12:10:00       42.047       45.473       43.663       48.876       33.121       32.442     2388.878     1097.025     1052.467        0.514        0.227       61.934       20.148        0.106      336.300        7.509      866.063
12/09/2014  12:11:00        1.035       25.658       41.408       22.410       28.827       22.163      502.206      831.014      491.177        0.210        0.091       25.679       16.904        0.433      336.493        7.831      866.045
12/09/2014  12:12:00       28.965       61.524       65.226       36.877       53.194       41.853     1359.926     2829.647     1751.658        0.741        0.297       68.002       37.947        0.311      336.396        7.670      866.030
12/09/2014  12:13:00       12.589       46.143       53.963       27.798       37.919       28.448      772.753     1437.845      809.270        0.411        0.151       47.830       23.955        0.251      336.358        7.606      866.042
12/09/2014  12:14:00       -9.247      -13.362       10.462       15.215       18.293       22.055      231.487      334.621      486.416        0.071        0.053       16.249       14.645        0.812      336.638        8.076      866.066
12/09/2014  12:15:00        7.201      -65.775      -10.204       49.809       25.026       21.417     2480.910      626.291      458.683        0.402        0.178       66.168       16.938        0.066      336.621        8.046      866.077
12/09/2014  12:16:00        2.290      -37.438        7.103       21.464       48.275       37.412      460.713     2330.486     1399.629        0.282        0.210       37.508       38.997        1.081      336.508        7.857      866.077
12/09/2014  12:17:00      -37.944       10.487       23.041       40.629       27.384       21.545     1650.733      749.901      464.173        0.247        0.143       39.366       23.222        0.348      336.622        8.048      866.061
12/09/2014  12:18:00      -51.941       -5.185        3.285       34.434       29.084       22.999     1185.679      845.891      528.975        0.265        0.128       52.199       24.301        0.217      336.643        8.083      866.071
12/09/2014  12:19:00      -98.471      -60.080        3.440       54.820       35.895       31.952     3005.257     1288.484     1020.903        0.932        0.266      115.352       16.421        0.020      336.570        7.962      866.070
12/09/2014  12:20:00      -57.226      -40.470        4.938       35.706       26.287       17.276     1274.915      691.002      298.461        0.360        0.113       70.091       16.629        0.056      336.439        7.742      866.069
12/09/2014  12:21:00      -62.147      -17.750       -4.138       19.416       18.733       12.662      376.987      350.931      160.334        0.254        0.044       64.633       10.930        0.029      336.350        7.593      866.056
12/09/2014  12:22:00      -15.123       10.618        8.734       22.284       14.052       13.452      496.555      197.448      180.952        0.065        0.044       18.478       12.408        0.451      336.618        8.041      866.057
12/09/2014  12:23:00      -13.963       -0.178       14.694       17.854       17.064       12.786      318.757      291.195      163.470        0.059        0.039       13.964        6.468        0.215      336.769        8.292      866.056
12/09/2014  12:24:00       33.644      -10.638       19.431       36.741       40.836       26.412     1349.899     1667.618      697.592        0.267        0.186       35.286       23.516        0.444      336.641        8.080      866.058
12/09/2014  12:25:00       12.229        6.878       15.380       23.810       35.655       29.210      566.918     1271.250      853.253        0.156        0.135       14.031       20.482        2.131      336.685        8.153      866.046
12/09/2014  12:26:00       15.337       34.299       47.391       21.340       23.199       12.195      455.377      538.202      148.717        0.240        0.057       37.572        7.276        0.038      336.697        8.173      866.048
12/09/2014  12:27:00       50.807      -16.158       14.912       48.914       23.410       21.489     2392.605      548.038      461.793        0.323        0.170       53.315       23.388        0.192      336.652        8.098      866.055
12/09/2014  12:28:00       47.184       34.633       34.664       39.220       48.144       36.492     1538.170     2317.833     1331.702        0.491        0.259       58.530       31.187        0.284      336.612        8.030      866.056
12/09/2014  12:29:00       51.763       61.936       43.119       48.995       30.387       34.616     2400.486      923.356     1198.272        0.645        0.226       80.718       35.292        0.191      336.569        7.961      866.027
12/09/2014  12:30:00       18.160       24.195       55.673       37.838       35.836       30.229     1431.740     1284.230      913.789        0.382        0.181       30.252       23.177        0.587      336.762        8.282      865.986
12/09/2014  12:31:00       41.904       51.296       55.529       34.060       35.249       33.995     1160.056     1242.496     1155.638        0.551        0.178       66.236       24.869        0.141      336.620        8.045      865.962
12/09/2014  12:32:00       29.907       32.185       32.082       33.915       24.947       21.278     1150.207      622.352      452.733        0.259        0.111       43.935       14.237        0.105      336.710        8.195      865.972
12/09/2014  12:33:00       15.810       -4.724       38.839       29.168       45.674       19.204      850.767     2086.147      368.795        0.254        0.165       16.501       16.728        1.028      336.894        8.503      865.963
12/09/2014  12:34:00       22.115        2.092       62.076       40.937       88.585       51.425     1675.815     7847.216     2644.481        0.825        0.608       22.213       59.388        7.148      336.816        8.372      865.937
12/09/2014  12:35:00       30.746       62.488       79.244       49.353       36.901       40.133     2435.690     1361.678     1610.643        0.827        0.270       69.643       36.472        0.274      336.706        8.190      865.923
12/09/2014  12:36:00       59.862      104.198       85.641       53.497       37.848       39.289     2861.981     1432.465     1543.589        1.381        0.292      120.170       35.999        0.090      336.755        8.271      865.895
12/09/2014  12:37:00       81.454       96.913       62.746       30.620       27.921       37.706      937.578      779.568     1421.720        1.155        0.157      126.597       25.734        0.041      336.589        7.994      865.866
12/09/2014  12:38:00       76.279       55.305       35.353       30.914       29.012       34.087      955.656      841.713     1161.909        0.654        0.148       94.218       18.593        0.039      336.642        8.082      865.832
12/09/2014  12:39:00      129.206       69.958       19.785       29.442       29.372       35.887      866.828      862.691     1287.864        1.250        0.151      146.930       25.030        0.029      336.611        8.030      865.812
12/09/2014  12:40:00      134.768       62.967       19.333       55.590       44.872       38.870     3090.243     2013.491     1510.887        1.456        0.331      148.752       30.391        0.042      336.721        8.213      865.772
12/09/2014  12:41:00      103.025       60.426       40.574       48.240       40.891       35.999     2327.094     1672.074     1295.914        1.060        0.265      119.439       29.731        0.062      336.701        8.181      865.739
12/09/2014  12:42:00      116.855       58.419        8.442       47.343       37.942       30.192     2241.364     1439.597      911.569        1.086        0.230      130.644       10.207        0.006      336.669        8.125      865.719
12/09/2014  12:43:00      113.403       77.969        3.502       49.106       25.546       25.280     2411.412      652.608      639.074        1.133        0.185      137.621        9.068        0.004      336.635        8.070      865.711
12/09/2014  12:44:00      104.225       68.759       19.602       49.767       43.800       28.970     2476.705     1918.441      839.286        1.060        0.262      124.862       27.975        0.050      336.678        8.142      865.707
12/09/2014  12:45:00       87.713       50.723       37.008       45.661       40.387       36.989     2084.970     1631.145     1368.193        0.836        0.254      101.323       27.215        0.072      336.777        8.307      865.695
12/09/2014  12:46:00       42.596       71.483       89.788       48.024       41.776       32.358     2306.341     1745.202     1047.041        1.004        0.255       83.212       22.122        0.071      336.849        8.425      865.687
12/09/2014  12:47:00       69.541       56.523       65.430       60.192       43.403       31.228     3623.110     1883.827      975.196        0.940        0.324       89.615       23.630        0.070      336.761        8.280      865.684
12/09/2014  12:48:00      120.069       62.927       22.303       57.070       30.224       38.108     3257.015      913.494     1452.208        1.225        0.281      135.559       34.787        0.066      336.607        8.023      865.683
12/09/2014  12:49:00       84.439       72.144       66.008       38.739       35.667       32.872     1500.676     1272.158     1080.565        1.027        0.193      111.062       21.134        0.036      336.660        8.113      865.669
12/09/2014  12:50:00      102.046       52.667       36.758       39.860       27.866       29.797     1588.832      776.500      887.836        0.890        0.163      114.836       17.226        0.023      336.687        8.158      865.657
12/09/2014  12:51:00       54.022       16.937       25.132       50.951       42.188       36.443     2595.956     1779.858     1328.074        0.477        0.285       56.615       33.079        0.341      336.871        8.462      865.641
12/09/2014  12:52:00       26.857       38.189       34.399       36.714       28.354       35.335     1347.893      803.966     1248.532        0.338        0.170       46.687       22.808        0.239      336.982        8.647      865.614
12/09/2014  12:53:00        4.098       66.096      105.198       32.914       67.142       35.348     1083.363     4508.044     1249.516        1.115        0.342       66.223       41.938        0.401      336.978        8.642      865.567
12/09/2014  12:54:00       65.031       56.417       72.432       76.871       49.068       49.898     5909.183     2407.620     2489.779        1.173        0.540       86.093       51.651        0.360      336.811        8.363      865.541
12/09/2014  12:55:00      124.181       51.712       24.014       69.458       40.619       36.325     4824.468     1649.904     1319.495        1.323        0.390      134.518       25.396        0.036      336.675        8.137      865.521
12/09/2014  12:56:00      117.718       35.752       31.826       73.551       49.452       45.605     5409.734     2445.514     2079.821        1.304        0.497      123.027       34.710        0.080      336.762        8.282      865.487
12/09/2014  12:57:00      113.529      101.685       77.124       63.772       69.993       46.438     4066.919     4898.953     2156.445        2.015        0.556      152.410       40.569        0.071      336.763        8.283      865.456
12/09/2014  12:58:00       48.486       51.839       57.221       48.736       48.343       40.961     2375.209     2337.075     1677.765        0.735        0.320       70.980       32.691        0.212      336.711        8.197      865.440
12/09/2014  12:59:00        2.059      -97.620       10.203       59.095       59.677       39.779     3492.165     3561.355     1582.360        0.914        0.432       97.642       42.166        0.186      336.967        8.623      865.462
12/09/2014  13:00:00       75.008      -71.802        8.349       37.383       45.341       35.249     1397.525     2055.822     1242.497        0.777        0.235      103.835       28.251        0.074      336.842        8.415      865.486
12/09/2014  13:01:00       24.460       40.093       71.278       48.150       45.049       30.215     2318.392     2029.413      912.917        0.627        0.263       46.965       34.368        0.535      336.880        8.479      865.481
12/09/2014  13:02:00       10.493       25.824       83.504       34.157       59.185       28.752     1166.670     3502.873      826.658        0.662        0.275       27.874       28.719        1.062      336.917        8.539      865.454
12/09/2014  13:03:00       85.956      147.951      136.847       73.118       66.560       50.906     5346.253     4430.207     2591.424        3.018        0.618      171.108       41.087        0.058      336.608        8.022      865.405
12/09/2014  13:04:00       59.114       39.463       71.738       59.221       49.245       38.203     3507.086     2425.048     1459.458        0.879        0.370       71.076       33.578        0.223      336.647        8.090      865.404
12/09/2014  13:05:00       13.741      -97.697       23.672       37.793       61.636       33.384     1428.327     3799.043     1114.477        0.832        0.317       98.658       21.953        0.050      336.689        8.160      865.422
12/09/2014  13:06:00       66.014      -50.981       13.337       31.305       58.086       40.217      980.024     3373.951     1617.369        0.655        0.299       83.408       31.571        0.143      336.700        8.180      865.440
12/09/2014  13:07:00       30.957        8.704       55.859       48.801       65.775       44.354     2381.535     4326.365     1967.246        0.641        0.434       32.157       38.983        1.470      336.758        8.275      865.457
12/09/2014  13:08:00      133.804     -116.337      -16.133       33.206       42.720       27.519     1102.608     1825.020      757.269        1.769        0.184      177.307       23.731        0.018      336.511        7.860      865.461
12/09/2014  13:09:00       34.291      -16.447       40.954       47.204       70.738       39.707     2228.240     5003.861     1576.639        0.596        0.440       38.031       47.087        1.533      336.679        8.144      865.439
12/09/2014  13:10:00      120.328      -95.960      -12.473       46.264       64.318       35.761     2140.352     4136.830     1278.834        1.570        0.378      153.906       42.337        0.076      336.581        7.979      865.396
12/09/2014  13:11:00       22.873       -3.358       52.894       40.952       84.792       45.576     1677.038     7189.654     2077.217        0.714        0.547       23.118       49.564        4.597      336.762        8.283      865.341
12/09/2014  13:12:00       95.628     -106.715        8.937       65.442      108.526       56.275     4282.720    11777.819     3166.866        1.992        0.961      143.293       75.138        0.275      336.625        8.052      865.326
12/09/2014  13:13:00      118.714     -163.328      -32.580       47.509       40.852       22.678     2257.094     1668.876      514.274        2.313        0.222      201.913       14.819        0.005      336.579        7.973      865.340
12/09/2014  13:14:00       85.095     -108.936      -22.737       64.900       87.749       52.461     4211.959     7699.812     2752.146        1.714        0.733      138.233       60.315        0.190      336.564        7.949      865.356
12/09/2014  13:15:00       90.189      -41.219        5.057       54.377       52.308       46.592     2956.865     2736.167     2170.847        0.886        0.393       99.161       47.870        0.233      336.593        8.000      865.369
12/09/2014  13:16:00       13.641       -0.396       58.079       34.590       50.700       36.194     1196.435     2570.514     1309.970        0.432        0.254       13.646       27.754        4.136      336.730        8.230      865.353
12/09/2014  13:17:00       20.651       11.189       43.579       34.216       44.770       31.319     1170.741     2004.340      980.886        0.330        0.208       23.487       22.958        0.955      336.746        8.256      865.360
12/09/2014  13:18:00       -1.194       26.130       66.661       32.198       46.317       37.265     1036.739     2145.253     1388.647        0.485        0.229       26.157       38.955        2.218      336.751        8.265      865.395
12/09/2014  13:19:00       55.415      -40.842       -2.748       37.553       57.661       39.578     1410.258     3324.818     1566.455        0.552        0.315       68.840       39.862        0.335      336.657        8.106      865.427
12/09/2014  13:20:00      -17.012      -17.532       27.790       29.834       58.739       28.596      890.047     3450.244      817.713        0.326        0.258       24.429       29.207        1.429      336.750        8.263      865.436
12/09/2014  13:21:00       15.699      -36.688       14.087       42.895       36.068       24.935     1840.009     1300.913      621.755        0.278        0.188       39.906       12.812        0.103      336.745        8.253      865.433
12/09/2014  13:22:00        6.502      -12.151       -2.402       18.679       16.816       16.092      348.909      282.791      258.958        0.054        0.045       13.781       12.766        0.858      336.769        8.295      865.417
12/09/2014  13:23:00        0.143       16.811        9.393       14.777       14.554       15.198      218.359      211.829      230.980        0.052        0.033       16.811        6.632        0.156      336.834        8.403      865.410
12/09/2014  13:24:00      -20.248      -22.932       -7.934       18.615       18.327       16.694      346.500      335.883      278.683        0.098        0.048       30.591        9.516        0.097      336.890        8.495      865.397
12/09/2014  13:25:00      -35.166      -32.718        4.511       24.340       17.250       13.904      592.428      297.561      193.326        0.171        0.054       48.032        5.401        0.013      336.863        8.450      865.381
12/09/2014  13:26:00      -29.676       -6.035        9.446       18.560       14.559       11.231      344.490      211.968      126.143        0.084        0.034       30.284        9.380        0.096      336.899        8.510      865.369
12/09/2014  13:27:00      -21.714        6.112        5.307       22.913       13.390       10.107      525.004      179.295      102.144        0.067        0.040       22.557       11.456        0.258      336.960        8.612      865.365
12/09/2014  13:28:00      -50.890      -26.457       -1.909       19.343       25.130       13.262      374.166      631.512      175.874        0.224        0.059       57.356       11.256        0.039      336.844        8.417      865.367
12/09/2014  13:29:00      -70.282      -15.276       -5.774       31.452       26.978       17.850      989.218      727.807      318.635        0.362        0.102       71.923       18.688        0.068      337.031        8.730      865.358
12/09/2014  13:30:00     -103.183      -46.631       -5.193       45.656       33.132       16.943     2084.433     1097.757      287.053        0.816        0.173      113.230       10.591        0.009      336.862        8.448      865.339
12/09/2014  13:31:00     -113.714       -6.765       -3.680       46.553       40.381       22.934     2167.163     1630.653      525.980        0.866        0.216      113.915       23.575        0.043      336.933        8.566      865.297
12/09/2014  13:32:00     -112.165       -3.159      -13.442       20.701       26.321       19.773      428.552      692.782      390.971        0.714        0.076      112.209       14.683        0.017      336.916        8.539      865.243
12/09/2014  13:33:00      -96.924      -14.644       -3.776       45.015       29.283       21.760     2026.314      857.478      473.502        0.649        0.168       98.024       24.220        0.061      336.837        8.406      865.196
12/09/2014  13:34:00      -76.687      -24.859       -9.314       63.474       35.077       24.360     4028.930     1230.421      593.387        0.622        0.293       80.616       24.589        0.093      337.079        8.812      865.151
12/09/2014  13:35:00      -80.927      -18.154       -3.166       38.574       50.146       22.443     1487.983     2514.639      503.667        0.570        0.225       82.938       18.712        0.051      337.074        8.802      865.145
12/09/2014  13:36:00     -102.518       29.920       -5.726       59.770       40.422       25.456     3572.474     1633.925      647.998        0.864        0.293      106.795       25.244        0.056      337.304        9.188      865.141
12/09/2014  13:37:00     -136.125      -60.080      -23.187       39.489       27.348       22.412     1559.357      747.894      502.295        1.274        0.140      148.794       19.357        0.017      336.874        8.466      865.130
12/09/2014  13:38:00      -67.453      -39.185        6.550       48.736       30.949       16.763     2375.232      957.826      280.985        0.487        0.181       78.009       18.083        0.054      336.935        8.569      865.116
12/09/2014  13:39:00      -56.686      -37.426       10.869       61.766       45.187       25.989     3815.040     2041.900      675.425        0.563        0.327       67.927       23.052        0.115      337.015        8.703      865.098
12/09/2014  13:40:00     -103.083      -52.612       -5.668       55.705       33.795       26.872     3103.034     1142.125      722.120        0.920        0.248      115.733       12.728        0.012      336.974        8.634      865.080
12/09/2014  13:41:00     -102.689      -46.895      -12.904       40.139       39.032       23.629     1611.136     1523.475      558.352        0.830        0.185      112.890       18.178        0.026      336.977        8.639      865.053
12/09/2014  13:42:00     -103.588      -28.980       -6.551       56.383       44.329       24.412     3179.076     1965.073      595.948        0.868        0.287      107.566       25.343        0.056      336.983        8.650      865.036
12/09/2014  13:43:00     -105.703       32.459      -16.791       38.535       39.620       18.644     1484.945     1569.778      347.615        0.795        0.170      110.575        9.356        0.007      337.081        8.812      865.010
12/09/2014  13:44:00      -84.641       20.428      -13.288       42.041       27.990       17.643     1767.442      783.445      311.258        0.531        0.143       87.071        8.379        0.009      337.134        8.904      864.979
12/09/2014  13:45:00      -87.790       19.670      -10.039       27.691       49.720       21.314      766.809     2472.037      454.276        0.594        0.185       89.967       14.800        0.027      337.135        8.904      864.941
12/09/2014  13:46:00      -75.996       -0.253       -9.466       31.681       28.341       21.383     1003.685      803.211      457.216        0.406        0.113       75.997       18.696        0.061      337.231        9.065      864.900
12/09/2014  13:47:00       14.709      -23.817       11.946       30.271       28.966       19.845      916.347      839.023      393.821        0.154        0.107       27.993       17.616        0.396      337.231        9.066      864.860
12/09/2014  13:48:00        0.889      -28.693        5.338       38.886       24.045       22.300     1512.110      578.148      497.276        0.172        0.129       28.707       19.853        0.478      337.212        9.033      864.811
12/09/2014  13:49:00      -68.956      -30.029       -7.167       31.988       35.574       17.259     1023.214     1265.532      297.885        0.415        0.129       75.211       17.314        0.053      336.990        8.660      864.770
12/09/2014  13:50:00       -7.818       -4.433        8.807       18.368       12.676       16.006      337.376      160.683      256.194        0.046        0.038        8.987       13.591        2.287      337.171        8.964      864.725
12/09/2014  13:51:00      -36.562       -9.399       -1.934       26.547       16.618       14.806      704.732      276.147      219.211        0.131        0.060       37.751       17.807        0.223      337.059        8.776      864.682
12/09/2014  13:52:00        9.980        2.703       23.111       22.986       11.619       12.224      528.339      135.010      149.433        0.073        0.041       10.339        9.281        0.806      337.197        9.008      864.647
12/09/2014  13:53:00       10.947       46.478       -0.318       19.325       25.553       16.018      373.471      652.975      256.569        0.178        0.064       47.750       13.857        0.084      337.034        8.736      864.616
12/09/2014  13:54:00        8.243       64.188       -7.282       14.537       11.681       10.489      211.315      136.447      110.026        0.235        0.023       64.715        8.089        0.016      336.977        8.639      864.581
12/09/2014  13:55:00       37.085       43.609       11.346       33.286       20.191       18.814     1107.959      407.678      353.952        0.264        0.093       57.245        8.647        0.023      337.021        8.713      864.548
12/09/2014  13:56:00       38.417       48.837       11.285       29.034       29.104       23.710      842.965      847.070      562.164        0.312        0.113       62.136       12.311        0.039      337.095        8.837      864.526
12/09/2014  13:57:00       60.935       54.623       18.985       23.291       23.501       16.544      542.465      552.284      273.699        0.421        0.068       81.833        9.908        0.015      337.122        8.882      864.523
12/09/2014  13:58:00       51.266       39.786        5.693       20.246       18.033       15.308      409.883      325.187      234.335        0.261        0.048       64.893        7.978        0.015      337.100        8.843      864.520
12/09/2014  13:59:00       53.498       34.715        5.267       28.456       23.245       24.167      809.756      540.324      584.058        0.301        0.097       63.775       14.191        0.050      337.086        8.822      864.541
12/09/2014  14:00:00       54.725       30.666        1.589       27.007       19.951       21.844      729.386      398.052      477.142        0.277        0.080       62.732       10.669        0.029      337.034        8.735      864.582
12/09/2014  14:01:00       34.517       24.989       16.102       32.958       20.456       28.308     1086.203      418.449      801.328        0.219        0.115       42.613       18.520        0.189      337.082        8.815      864.643
12/09/2014  14:02:00       15.308       -0.864        7.062       16.445       13.217       15.181      270.437      174.683      230.456        0.048        0.034       15.332        7.828        0.261      337.116        8.872      864.708
12/09/2014  14:03:00       -1.903        8.083       -4.184        9.512       10.179        7.910       90.486      103.618       62.570        0.017        0.013        8.304        7.067        0.724      337.113        8.867      864.750
12/09/2014  14:04:00       -3.571        2.072        2.991       15.927       10.120        6.967      253.681      102.422       48.533        0.022        0.020        4.129        7.409        3.220      337.096        8.839      864.775
12/09/2014  14:05:00       10.459       -6.928       16.967       37.390       31.050       19.556     1398.037      964.132      382.426        0.159        0.137       12.545       17.852        2.025      337.160        8.947      864.776
12/09/2014  14:06:00        3.605       12.296        5.415       17.948       14.789        8.092      322.129      218.727       65.481        0.040        0.030       12.814        8.647        0.455      337.140        8.913      864.767
12/09/2014  14:07:00      -51.616      -21.750        5.678       52.233       21.905       20.262     2728.251      479.816      410.536        0.339        0.181       56.012       28.077        0.251      337.198        9.010      864.760
12/09/2014  14:08:00      -80.790      -49.562       -1.308       15.922       24.398       16.850      253.511      595.274      283.927        0.506        0.057       94.781        9.579        0.010      337.133        8.902      864.748
12/09/2014  14:09:00      -42.194      -14.278       -3.184       31.591       29.329       13.812      997.979      860.175      190.762        0.202        0.102       44.545       16.121        0.131      337.129        8.894      864.711
12/09/2014  14:10:00      -29.590      -60.858       -3.963       19.383       26.297       14.754      375.690      691.534      217.685        0.294        0.064       67.670       13.234        0.038      337.157        8.939      864.652
12/09/2014  14:11:00       21.815       13.385        6.638       15.667       12.750       13.463      245.455      162.557      181.243        0.064        0.029       25.594        6.410        0.063      337.249        9.097      864.580
12/09/2014  14:12:00       12.806      -55.032      -10.156       54.972       43.681       15.938     3021.913     1908.061      254.023        0.424        0.259       56.502       15.803        0.078      337.202        9.018      864.529
12/09/2014  14:13:00       30.965      -43.128        8.998       23.221       28.623       16.637      539.228      819.284      276.779        0.227        0.082       53.093       14.187        0.071      337.310        9.198      864.494
12/09/2014  14:14:00       15.742       18.953       22.590       29.440       23.375       18.642      866.729      546.401      347.506        0.144        0.088       24.638       16.993        0.476      337.293        9.169      864.487
12/09/2014  14:15:00       -5.469       19.485       25.369       16.764       17.795       12.250      281.036      316.646      150.052        0.090        0.037       20.238       10.401        0.264      337.256        9.109      864.495
12/09/2014  14:16:00       -7.450       18.740        5.586       16.845       13.784       17.984      283.751      190.000      323.426        0.062        0.040       20.167       14.228        0.498      337.247        9.095      864.515
12/09/2014  14:17:00        8.485       33.212      -11.046       19.258       14.533       11.595      370.862      211.216      134.441        0.101        0.036       34.279        8.453        0.061      337.158        8.945      864.548
12/09/2014  14:18:00      -44.387        4.303       -5.049       20.350       12.929        8.780      414.137      167.156       77.096        0.134        0.033       44.595       10.576        0.056      337.211        9.034      864.583
12/09/2014  14:19:00      -28.274       24.321       -0.079       29.236       21.612       12.560      854.724      467.058      157.764        0.143        0.074       37.295       11.077        0.088      337.211        9.033      864.615
12/09/2014  14:20:00      -60.816       46.376       -5.588       35.688       22.480       13.890     1273.660      505.342      192.940        0.393        0.099       76.480        9.233        0.015      337.448        9.428      864.640
12/09/2014  14:21:00      -29.196       44.124       -2.597       27.199       23.417       18.616      739.779      548.351      346.566        0.222        0.082       52.909       13.797        0.068      337.497        9.511      864.681
12/09/2014  14:22:00      -67.825       58.924       -9.909       26.863       33.370       20.786      721.617     1113.576      432.060        0.522        0.113       89.846       12.925        0.021      337.613        9.706      864.711
12/09/2014  14:23:00      -75.504      102.880      -12.817       29.649       32.266       23.952      879.074     1041.080      573.683        0.947        0.125      127.614       17.440        0.019      337.436        9.408      864.740
12/09/2014  14:24:00      -96.014       76.957      -16.931       31.407       37.352       23.647      986.413     1395.183      559.166        0.918        0.147      123.050       15.875        0.017      337.486        9.493      864.773
12/09/2014  14:25:00     -135.629      -38.834      -11.357       47.809       55.550       22.787     2285.746     3085.812      519.228        1.296        0.295      141.079       16.883        0.014      337.444        9.422      864.825
12/09/2014  14:26:00     -114.939      -19.638      -17.755       35.149       26.195       20.247     1235.457      686.169      409.950        0.812        0.117      116.605        8.078        0.005      337.397        9.343      864.871
12/09/2014  14:27:00      -74.568       15.877       -3.107       51.209       35.686       19.889     2622.336     1273.524      395.569        0.506        0.215       76.239       26.162        0.118      337.451        9.433      864.914
12/09/2014  14:28:00     -109.217      -62.817       -0.477       38.858       33.474       22.083     1509.951     1120.511      487.677        0.950        0.156      125.993        6.126        0.002      337.404        9.357      864.934
12/09/2014  14:29:00      -31.513      -29.623        2.340       36.252       22.587       19.278     1314.218      510.183      371.658        0.204        0.110       43.250        6.858        0.025      337.507        9.527      864.936
12/09/2014  14:30:00      -20.349       -5.105        6.856       30.975       17.302       15.024      959.470      299.376      225.726        0.099        0.074       20.980       18.191        0.752      337.589        9.666      864.905
12/09/2014  14:31:00      -44.947       -9.108       -5.021       45.385       51.234       25.163     2059.758     2624.914      633.161        0.372        0.266       45.861       26.470        0.333      337.567        9.628      864.864
12/09/2014  14:32:00      -10.171      -21.221       -2.739       23.628       36.658       16.810      558.287     1343.840      282.572        0.137        0.109       23.533       12.823        0.297      337.441        9.415      864.808
12/09/2014  14:33:00        7.204      -62.274       -2.145        8.349       12.673       10.632       69.710      160.614      113.050        0.214        0.017       62.689        5.576        0.008      337.465        9.455      864.748
12/09/2014  14:34:00       -2.223      -66.568       -9.295       12.170       16.970       10.727      148.104      287.991      115.060        0.254        0.028       66.605        6.590        0.010      337.475        9.474      864.698
12/09/2014  14:35:00      -52.137      -32.396       -5.181       42.508       18.936       12.258     1806.888      358.554      150.250        0.305        0.116       61.382       13.649        0.049      337.506        9.524      864.653
12/09/2014  14:36:00      -29.391      -31.162       16.078       50.742       26.821       20.314     2574.742      719.380      412.651        0.290        0.185       42.836       22.804        0.283      337.648        9.765      864.620
12/09/2014  14:37:00      -61.895      -81.509        4.397       47.917       43.520       26.520     2296.009     1893.973      703.308        0.769        0.245      102.346       25.219        0.061      337.639        9.749      864.619
12/09/2014  14:38:00      -69.418      -74.524        2.678       52.227       45.656       24.482     2727.670     2084.440      599.385        0.789        0.271      101.847       21.107        0.043      337.678        9.813      864.624
12/09/2014  14:39:00      -90.877      -69.171        4.439       70.566       47.730       28.878     4979.541     2278.170      833.960        1.058        0.405      114.207       39.199        0.118      337.699        9.850      864.640
12/09/2014  14:40:00      -45.835      -35.990        1.900       37.893       46.822       24.062     1435.906     2192.326      578.960        0.380        0.210       58.277       22.448        0.148      337.702        9.856      864.660
12/09/2014  14:41:00      -81.452      -50.245        4.534       46.988       27.566       18.933     2207.896      759.881      358.440        0.625        0.166       95.702       20.056        0.044      337.695        9.842      864.688
12/09/2014  14:42:00      -81.163      -77.490       -6.662       38.182       33.853       22.901     1457.890     1146.047      524.465        0.788        0.156      112.215       19.015        0.029      337.645        9.759      864.713
12/09/2014  14:43:00      -65.529      -59.460        3.128       37.993       29.239       20.576     1443.501      854.897      423.389        0.528        0.136       88.485       24.633        0.077      337.703        9.856      864.733
12/09/2014  14:44:00      -77.034      -24.085        2.140       30.122       24.182       20.802      907.335      584.791      432.706        0.422        0.096       80.711       20.291        0.063      337.744        9.925      864.747
12/09/2014  14:45:00     -126.070      -37.602       -5.278       26.684       31.980       20.085      712.023     1022.694      403.426        0.974        0.107      131.558       16.032        0.015      337.709        9.866      864.773
12/09/2014  14:46:00      -97.523      -50.206       -7.954       43.946       28.353       17.296     1931.281      803.909      299.164        0.756        0.152      109.688       12.267        0.013      337.747        9.930      864.804
12/09/2014  14:47:00      -72.919      -67.892        6.423       57.865       44.221       34.406     3348.327     1955.539     1183.780        0.823        0.324       99.632       31.962        0.103      337.767        9.964      864.822
12/09/2014  14:48:00      -81.846      -88.456        4.414       48.920       39.069       24.217     2393.163     1526.386      586.446        0.952        0.225      120.512       29.944        0.062      337.715        9.875      864.845
12/09/2014  14:49:00      -50.744      -87.270        2.511       40.681       33.217       24.618     1654.976     1103.379      606.049        0.678        0.168      100.950       21.584        0.046      337.787        9.996      864.857
12/09/2014  14:50:00      -86.888      -63.534        7.992       49.311       35.325       24.490     2431.616     1247.860      599.738        0.796        0.214      107.639       24.123        0.050      337.761        9.953      864.857
12/09/2014  14:51:00      -85.075      -62.093        3.508       51.849       33.982       17.828     2688.339     1154.788      317.821        0.763        0.208      105.325       17.546        0.028      337.756        9.946      864.862
12/09/2014  14:52:00      -52.938      -16.456        1.573       24.930       21.879       14.445      621.488      478.712      208.670        0.219        0.065       55.436       12.527        0.051      337.790       10.001      864.857
12/09/2014  14:53:00      -32.834      -33.917        2.321       23.323       15.651       16.432      543.968      244.969      270.017        0.165        0.053       47.206       15.920        0.114      337.825       10.060      864.859
12/09/2014  14:54:00        0.103      -34.804       10.924       18.870       18.109       16.202      356.093      327.927      262.490        0.114        0.047       34.805       11.645        0.112      337.880       10.152      864.869
12/09/2014  14:55:00       29.305       41.119       17.184       24.341       20.520       17.081      592.494      421.072      291.745        0.207        0.065       50.494       14.558        0.083      337.861       10.120      864.878
12/09/2014  14:56:00       26.260      105.568      -15.493       14.765       17.666       10.212      218.010      312.088      104.278        0.635        0.032      108.785        3.638        0.001      337.751        9.936      864.878
12/09/2014  14:57:00       28.347       51.821        2.924       15.747       30.739       22.503      247.967      944.899      506.373        0.260        0.085       59.067       19.670        0.111      337.786        9.996      864.889
12/09/2014  14:58:00        8.969       21.291       -6.645       11.450       20.069       10.210      131.097      402.778      104.253        0.061        0.032       23.103        5.602        0.059      337.823       10.057      864.921
12/09/2014  14:59:00       46.336       18.453        1.128       18.317       15.862       10.880      335.494      251.600      118.373        0.160        0.035       49.876       10.280        0.042      337.809       10.033      864.943
12/09/2014  15:00:00       62.695       33.288        4.891       16.191       13.577       14.723      262.155      184.347      216.775        0.286        0.033       70.984       10.278        0.021      337.805       10.028      864.960
12/09/2014  15:01:00       54.074       29.441        3.259       32.185       17.584       16.094     1035.861      309.188      259.032        0.270        0.080       61.569       14.363        0.054      337.808       10.030      864.966
12/09/2014  15:02:00       93.794       40.296        4.896       23.331       16.140       20.188      544.322      260.491      407.541        0.583        0.061      102.084       14.649        0.021      337.775        9.976      864.956
12/09/2014  15:03:00       97.571       60.235       25.625       23.328       19.873       30.665      544.203      394.938      940.366        0.784        0.094      114.666       17.915        0.024      337.803       10.023      864.920
12/09/2014  15:04:00       58.202       59.598       50.994       35.798       39.893       42.385     1281.469     1591.418     1796.470        0.710        0.233       83.303       36.560        0.193      337.810       10.037      864.898
12/09/2014  15:05:00       93.362       80.374       57.828       63.014       42.319       40.331     3970.769     1790.911     1626.612        1.295        0.369      123.193       37.492        0.093      337.779        9.986      864.879
12/09/2014  15:06:00       31.407       48.741       54.038       41.438       34.705       26.644     1717.131     1204.451      709.926        0.496        0.182       57.984       22.917        0.156      337.853       10.107      864.867
12/09/2014  15:07:00       62.782       52.911       32.434       40.098       40.526       37.243     1607.823     1642.329     1387.020        0.621        0.232       82.105       24.780        0.091      337.788        9.998      864.873
12/09/2014  15:08:00      110.316       68.281       16.059       48.791       35.576       34.462     2380.592     1265.638     1187.636        1.096        0.242      129.738       14.113        0.012      337.713        9.872      864.883
12/09/2014  15:09:00      118.146       68.312        9.793       28.175       22.194       26.468      793.845      492.567      700.562        1.035        0.099      136.474       10.691        0.006      337.665        9.794      864.888
12/09/2014  15:10:00      100.401       68.121        6.148       35.500       25.492       30.290     1260.278      649.847      917.487        0.879        0.141      121.330       22.733        0.035      337.683        9.823      864.893
12/09/2014  15:11:00      128.834       81.767       15.165       45.860       26.596       26.871     2103.157      707.361      722.036        1.352        0.177      152.591       21.633        0.020      337.676        9.811      864.899
12/09/2014  15:12:00      106.516       76.309       10.620       50.719       35.919       29.606     2572.443     1290.143      876.513        1.101        0.237      131.029       18.389        0.020      337.665        9.792      864.894
12/09/2014  15:13:00      144.808       66.497        3.475       51.293       44.268       30.707     2631.003     1959.627      942.915        1.547        0.277      159.346       21.022        0.017      337.645        9.758      864.883
12/09/2014  15:14:00       95.260       52.202       17.527       49.271       46.143       30.258     2427.651     2129.217      915.524        0.879        0.274      108.626       28.292        0.068      337.686        9.828      864.871
12/09/2014  15:15:00       63.315       54.280       -0.661       32.979       13.401       18.139     1087.605      179.596      329.034        0.428        0.080       83.397       12.472        0.022      337.667        9.795      864.857
12/09/2014  15:16:00       65.153       35.183       27.969       28.851       29.971       18.702      832.378      898.239      349.751        0.417        0.104       74.046       11.974        0.026      337.669        9.800      864.862
12/09/2014  15:17:00       73.449       49.948       25.882       27.951       20.857       23.366      781.284      435.025      545.966        0.516        0.088       88.823       17.231        0.038      337.678        9.815      864.866
12/09/2014  15:18:00       89.437       33.492       34.082       39.273       32.739       26.248     1542.383     1071.862      688.940        0.679        0.165       95.502       16.343        0.029      337.671        9.805      864.862
12/09/2014  15:19:00      112.242       46.781       20.922       41.790       29.055       29.236     1746.433      844.200      854.757        0.933        0.172      121.601       22.216        0.033      337.652        9.770      864.868
12/09/2014  15:20:00      116.048       37.532       -0.360       49.814       40.043       29.652     2481.444     1603.453      879.241        0.992        0.248      121.967       21.529        0.031      337.642        9.755      864.857
12/09/2014  15:21:00      116.393       31.918       19.437       45.761       46.648       34.309     2094.089     2176.043     1177.090        1.019        0.272      120.690       20.959        0.030      337.633        9.740      864.850
12/09/2014  15:22:00      116.583       67.074       18.614       61.141       47.565       31.870     3738.191     2262.429     1015.699        1.273        0.351      134.501       11.366        0.007      337.584        9.656      864.867
12/09/2014  15:23:00      114.662       75.011       30.201       62.818       36.418       39.641     3946.120     1326.269     1571.370        1.326        0.342      137.018       30.592        0.050      337.524        9.556      864.899
12/09/2014  15:24:00      106.911       69.553       15.766       37.677       27.606       23.610     1419.522      762.098      557.446        0.963        0.137      127.545       20.112        0.025      337.507        9.525      864.925
12/09/2014  15:25:00       67.473       57.852        8.619       26.551       33.205       24.966      704.931     1102.566      623.310        0.520        0.122       88.879        9.681        0.012      337.518        9.547      864.951
12/09/2014  15:26:00       90.605       47.489       15.002       39.441       37.988       25.680     1555.568     1443.103      659.485        0.717        0.183      102.296       12.152        0.014      337.534        9.574      864.973
12/09/2014  15:27:00       55.818       34.841       11.193       28.268       38.428       20.007      799.072     1476.730      400.271        0.356        0.134       65.800       10.098        0.024      337.513        9.538      864.988
12/09/2014  15:28:00       42.920       30.244       21.236       23.266       15.794       19.949      541.323      249.449      397.947        0.220        0.059       52.505        7.949        0.023      337.519        9.547      865.002
12/09/2014  15:29:00       71.489       63.571       43.780       41.348       23.174       23.273     1709.620      537.027      541.638        0.693        0.139       95.666       21.882        0.052      337.512        9.535      865.013
12/09/2014  15:30:00       80.642       49.836       21.765       21.947       21.660       20.664      481.654      469.147      426.999        0.542        0.069       94.798        9.254        0.010      337.477        9.477      865.027
12/09/2014  15:31:00       78.095       46.843       15.891       26.943       20.787       25.146      725.923      432.110      632.333        0.517        0.090       91.067       16.293        0.032      337.468        9.464      865.033
12/09/2014  15:32:00       28.580       55.646       46.381       27.500       24.420       15.937      756.264      596.332      253.983        0.384        0.080       62.556       12.722        0.041      337.519        9.547      865.037
12/09/2014  15:33:00       91.832       62.364       40.941       35.492       26.085       34.653     1259.654      680.452     1200.862        0.857        0.157      111.006       20.014        0.033      337.564        9.624      865.024
12/09/2014  15:34:00       46.963       85.277       58.839       42.866       36.301       28.971     1837.454     1317.744      839.345        0.847        0.200       97.354       24.729        0.065      337.563        9.623      865.013
12/09/2014  15:35:00       32.533       32.098       30.786       25.859       28.089       21.821      668.678      789.019      476.141        0.248        0.097       45.702       12.369        0.073      337.508        9.530      865.015
12/09/2014  15:36:00       28.263       15.125       28.629       22.198       20.990       26.126      492.744      440.574      682.585        0.173        0.081       32.056       14.503        0.205      337.527        9.563      865.015
12/09/2014  15:37:00       59.721       40.752       45.792       35.417       27.933       33.312     1254.385      780.231     1109.691        0.523        0.157       72.300       17.577        0.059      337.487        9.495      865.015
12/09/2014  15:38:00       73.116       38.088       37.257       44.108       35.624       31.760     1945.524     1269.045     1008.681        0.620        0.211       82.442       24.532        0.089      337.500        9.516      865.015
12/09/2014  15:39:00       33.693       47.971       54.548       34.611       32.527       23.878     1197.896     1057.990      570.137        0.462        0.141       58.621       20.782        0.126      337.504        9.521      865.015
12/09/2014  15:40:00       36.124       30.814       32.571       30.951       20.514       19.100      957.952      420.827      364.804        0.253        0.087       47.481       19.277        0.165      337.502        9.518      865.026
12/09/2014  15:41:00       20.033       -0.487       11.391       15.745       29.554       12.478      247.896      873.421      155.694        0.090        0.064       20.039       10.870        0.294      337.512        9.534      865.053
12/09/2014  15:42:00       41.975       -3.492       10.915       20.053       36.264       21.262      402.109     1315.050      452.090        0.203        0.108       42.120       18.547        0.194      337.531        9.567      865.075
12/09/2014  15:43:00       52.363       48.801       33.734       20.670       19.082       19.307      427.254      364.123      372.768        0.371        0.058       71.578       13.249        0.034      337.534        9.575      865.074
12/09/2014  15:44:00       78.109       54.524       36.322       39.758       32.026       35.810     1580.720     1025.678     1282.349        0.714        0.194       95.257       30.230        0.101      337.475        9.476      865.042
12/09/2014  15:45:00      140.980       80.709       28.818       41.969       26.468       38.470     1761.357      700.561     1479.961        1.558        0.197      162.447       28.421        0.031      337.472        9.470      864.993
12/09/2014  15:46:00      103.810       52.623       26.411       46.502       37.254       29.360     2162.422     1387.829      861.983        0.933        0.221      116.386       19.514        0.028      337.460        9.449      864.987
12/09/2014  15:47:00       74.921       39.565       22.274       51.644       26.812       27.551     2667.152      718.901      759.076        0.591        0.207       84.727       20.161        0.057      337.450        9.432      865.011
12/09/2014  15:48:00       46.407       38.528       21.199       29.272       25.832       23.221      856.868      667.295      539.199        0.307        0.103       60.316       18.872        0.098      337.451        9.434      865.038
12/09/2014  15:49:00       52.506       32.487       22.209       20.357       20.008       11.704      414.423      400.311      136.979        0.263        0.048       61.744        9.321        0.023      337.446        9.425      865.056
12/09/2014  15:50:00       41.482      -62.953       -1.627       26.927       31.046       13.889      725.074      963.836      192.913        0.378        0.094       75.391       10.541        0.020      337.526        9.557      865.054
12/09/2014  15:51:00       33.829      -59.348        2.336       27.800       27.941       21.480      772.816      780.675      461.382        0.334        0.101       68.312       22.074        0.104      337.642        9.754      865.048
12/09/2014  15:52:00       28.784       10.357       18.659       24.351       42.005       12.256      592.961     1764.435      150.206        0.190        0.125       30.591        8.174        0.071      337.508        9.528      865.046
12/09/2014  15:53:00       40.356       20.927       11.561       17.718       17.867       17.778      313.910      319.244      316.062        0.157        0.047       45.460       12.840        0.080      337.447        9.427      865.057
12/09/2014  15:54:00       52.641       38.777       25.729        8.973        8.912       12.718       80.517       79.425      161.747        0.263        0.016       65.382        2.483        0.001      337.424        9.388      865.054
12/09/2014  15:55:00       61.466       39.689       17.474        7.340        8.176        8.193       53.881       66.844       67.132        0.292        0.009       73.166        3.391        0.002      337.444        9.423      865.044
12/09/2014  15:56:00       55.608       27.455       14.817       19.470       10.820       15.608      379.070      117.075      243.615        0.240        0.037       62.017        7.469        0.015      337.420        9.383      865.037
12/09/2014  15:57:00       21.847       28.324       37.146       25.857       19.963       18.535      668.591      398.538      343.559        0.203        0.071       35.771       15.859        0.197      337.467        9.461      865.033
12/09/2014  15:58:00       50.987       28.085       21.975       33.396       24.787       25.294     1115.260      614.408      639.792        0.312        0.118       58.210       25.482        0.192      337.463        9.453      865.033
12/09/2014  15:59:00       68.963       35.069       14.809       25.594       17.995       21.986      655.057      323.837      483.375        0.383        0.073       77.367       17.377        0.050      337.444        9.422      865.036
12/09/2014  16:00:00       46.404       34.743       26.630       20.545       14.440       22.665      422.099      208.522      513.715        0.261        0.057       57.969       15.013        0.067      337.462        9.452      865.038
12/09/2014  16:01:00       31.860       47.823       39.891       21.083       20.447       19.012      444.483      418.091      361.471        0.306        0.061       57.464       15.636        0.074      337.478        9.479      865.041
12/09/2014  16:02:00       15.106       10.112       29.261       17.403       39.995       23.131      302.867     1599.572      535.041        0.181        0.122       18.178       25.925        2.034      337.474        9.473      865.037
12/09/2014  16:03:00       26.816      -43.618       17.706       29.900       38.077       29.727      894.025     1449.852      883.721        0.308        0.161       51.202       21.168        0.171      337.491        9.499      865.021
12/09/2014  16:04:00       16.496        1.416       18.201       23.478       22.372       16.124      551.228      500.489      259.991        0.096        0.066       16.557       13.575        0.672      337.427        9.393      865.013
12/09/2014  16:05:00       -0.641       10.420       11.700       23.706       14.261        9.704      561.978      203.374       94.177        0.055        0.043       10.440        7.952        0.580      337.382        9.317      865.016
12/09/2014  16:06:00       37.872       26.134        9.932       10.717        9.410        8.262      114.855       88.545       68.265        0.124        0.014       46.014        5.634        0.015      337.394        9.336      865.011
12/09/2014  16:07:00       43.787       34.298       35.993       15.752       16.194       20.891      248.120      262.253      436.422        0.267        0.047       55.621        8.217        0.022      337.423        9.385      865.002
12/09/2014  16:08:00       44.460       25.768       11.238       17.571        8.750       21.260      308.723       76.565      451.977        0.180        0.042       51.388        8.521        0.027      337.442        9.417      865.016
12/09/2014  16:09:00        4.475        4.011       -5.223       10.755       11.018        7.219      115.678      121.401       52.108        0.018        0.014        6.009        5.128        0.728      337.449        9.429      865.037
12/09/2014  16:10:00       17.849      -17.030       -5.840       16.708       18.560       13.003      279.166      344.477      169.068        0.072        0.040       24.670        8.935        0.131      337.447        9.427      865.064
12/09/2014  16:11:00       12.157       11.609       25.665       13.202       23.616       16.356      174.297      557.710      267.515        0.097        0.050       16.810       17.355        1.066      337.405        9.356      865.059
12/09/2014  16:12:00       -0.562       25.270       43.089       11.061       18.730       11.049      122.348      350.825      122.081        0.155        0.030       25.277       12.535        0.246      337.431        9.400      865.041
12/09/2014  16:13:00        3.934       28.333       37.167       14.165       21.070       15.204      200.654      443.956      231.154        0.154        0.044       28.605        2.670        0.009      337.418        9.377      865.025
12/09/2014  16:14:00       -3.691       16.613       34.526       20.112       23.852       17.214      404.497      568.916      296.332        0.138        0.063       17.018       14.522        0.728      337.458        9.446      865.042
12/09/2014  16:15:00      -24.757       -9.823        7.947       17.784       14.116       10.760      316.272      199.251      115.787        0.070        0.032       26.635        5.875        0.049      337.381        9.317      865.072
12/09/2014  16:16:00       -7.153       -6.208        4.576       13.565       10.460       11.023      184.015      109.408      121.506        0.026        0.021        9.471        7.206        0.579      337.307        9.192      865.091
12/09/2014  16:17:00        8.606      -26.617       -4.960       10.794       10.747       11.549      116.503      115.499      133.389        0.059        0.018       27.974        6.051        0.047      337.405        9.356      865.081
12/09/2014  16:18:00        0.656        8.969       17.641       10.208       20.195       18.540      104.211      407.833      343.714        0.062        0.043        8.993       13.762        2.342      337.393        9.336      865.065
12/09/2014  16:19:00      -15.900       34.116       61.243       17.212       29.162       18.000      296.255      850.401      323.995        0.332        0.074       37.639       19.163        0.259      337.408        9.362      865.035
12/09/2014  16:20:00       32.091       -8.457       29.725       46.329       54.975       37.777     2146.356     3022.224     1427.121        0.429        0.330       33.186       43.140        1.690      337.406        9.359      865.018
12/09/2014  16:21:00       26.939        9.762       35.462       36.051       62.671       39.677     1299.696     3927.661     1574.240        0.444        0.340       28.653       46.872        2.676      337.437        9.411      865.026
12/09/2014  16:22:00       41.617       -6.249       11.366       20.142       41.854       19.978      405.710     1751.730      399.104        0.223        0.128       42.084       24.299        0.333      337.445        9.424      865.065
12/09/2014  16:23:00       65.397       45.268        9.979       22.964       22.710       16.259      527.327      515.731      264.344        0.387        0.065       79.536       11.706        0.022      337.381        9.316      865.088
12/09/2014  16:24:00       60.120       44.227        4.135       24.921       21.739       16.465      621.040      472.578      271.094        0.348        0.068       74.636       10.395        0.019      337.341        9.250      865.103
12/09/2014  16:25:00       95.299       42.376        9.105       29.090       21.484       18.175      846.257      461.549      330.335        0.630        0.082      104.296       13.113        0.016      337.372        9.301      865.106
12/09/2014  16:26:00       88.383       52.691       26.614       33.220       27.884       23.697     1103.571      777.536      561.565        0.687        0.122      102.898       11.373        0.012      337.343        9.253      865.110
12/09/2014  16:27:00       48.942       23.613       16.041       29.275       25.378       22.369      857.014      644.046      500.361        0.261        0.100       54.340       12.369        0.052      337.302        9.185      865.114
12/09/2014  16:28:00       39.975       26.569       23.771       11.916        8.833       10.777      142.003       78.021      116.150        0.160        0.017       47.999        9.243        0.037      337.257        9.109      865.116
12/09/2014  16:29:00       42.336       28.785        6.933        9.709       11.193        9.650       94.269      125.289       93.114        0.149        0.016       51.195        8.007        0.024      337.228        9.062      865.086
12/09/2014  16:30:00       35.288        2.680       -1.439       18.062       17.654       13.727      326.234      311.675      188.419        0.104        0.041       35.389       10.823        0.094      337.246        9.092      865.033
12/09/2014  16:31:00       21.795       17.944       19.578       28.319       23.279       18.016      801.949      541.923      324.562        0.142        0.083       28.231       21.546        0.582      337.259        9.115      864.993
12/09/2014  16:32:00       -8.427       23.386       38.834       16.088       23.438       21.349      258.830      549.350      455.778        0.169        0.063       24.858       14.814        0.355      337.209        9.030      864.973
12/09/2014  16:33:00       51.992      -58.977       -1.795       29.439       48.728       19.452      866.682     2374.436      378.370        0.490        0.181       78.623       22.678        0.083      337.356        9.274      864.969
12/09/2014  16:34:00       42.180     -101.051      -13.169       19.385       26.160       14.361      375.767      684.361      206.240        0.671        0.063      109.501        6.037        0.003      337.468        9.461      864.971
12/09/2014  16:35:00       20.692      -62.664       -7.442       55.770       30.900       17.834     3110.253      954.808      318.069        0.440        0.219       65.992        7.973        0.015      337.416        9.376      864.989
12/09/2014  16:36:00      -32.537      -23.254       -0.877       13.301       12.537        7.568      176.926      157.178       57.278        0.100        0.020       39.992        1.181        0.001      337.094        8.836      865.006
12/09/2014  16:37:00       14.125      -25.224       -7.207       19.169       15.488       10.359      367.446      239.868      107.318        0.080        0.036       28.910        8.705        0.091      337.341        9.249      865.012
12/09/2014  16:38:00       44.952        3.341       13.209       27.425       27.851       25.105      752.120      775.664      630.262        0.218        0.108       45.076       22.026        0.239      337.345        9.256      865.023
12/09/2014  16:39:00      -11.398       47.940       71.830       11.724       28.457       16.335      137.454      809.787      266.836        0.440        0.061       49.277       17.617        0.128      337.294        9.170      865.020
12/09/2014  16:40:00       12.958       37.217       46.205       30.893       35.527       31.411      954.407     1262.174      986.658        0.344        0.160       39.408       30.082        0.583      337.243        9.086      865.034
12/09/2014  16:41:00        9.426       15.355       42.229       21.267       35.929       28.021      452.277     1290.867      785.183        0.232        0.126       18.018       23.856        1.753      337.216        9.040      865.040
12/09/2014  16:42:00       38.506      -36.422        2.332       38.098       47.075       30.491     1451.464     2216.044      929.712        0.371        0.230       53.003       30.010        0.321      337.247        9.094      865.050
12/09/2014  16:43:00       -0.341      -52.948      -12.863       54.157       32.538       16.741     2932.943     1058.738      280.249        0.362        0.214       52.949       16.779        0.100      337.340        9.247      865.068
12/09/2014  16:44:00      -26.092      -29.616       -2.906       17.842       11.116        8.598      318.352      123.554       73.920        0.104        0.026       39.470        6.799        0.030      337.210        9.030      865.053
12/09/2014  16:45:00      -51.883      -16.750       -1.958       11.562       13.372        6.651      133.676      178.818       44.240        0.167        0.018       54.520        4.538        0.007      337.227        9.060      865.043
12/09/2014  16:46:00      -28.832      -12.754        0.724       22.150       12.649        9.493      490.626      159.998       90.126        0.087        0.037       31.527        4.957        0.025      337.152        8.934      865.020
12/09/2014  16:47:00      -14.286      -13.300       -1.958        7.830       18.450        6.517       61.304      340.394       42.466        0.041        0.022       19.518        8.161        0.175      337.243        9.088      864.992
12/09/2014  16:48:00      -20.338       -0.493        0.093       12.910       20.451       11.863      166.658      418.248      140.733        0.057        0.036       20.344       13.570        0.445      337.387        9.327      864.968
12/09/2014  16:49:00      -16.109       11.242       11.452       12.681       15.221       13.413      160.803      231.691      179.921        0.054        0.029       19.644       10.232        0.271      337.267        9.127      864.940
12/09/2014  16:50:00       -3.704       10.712       15.689       19.008       20.600       15.895      361.317      424.370      252.657        0.071        0.052       11.335       11.624        1.052      337.259        9.113      864.925
12/09/2014  16:51:00      -19.750       21.148       35.660       15.563       20.171       15.411      242.202      406.888      237.514        0.150        0.044       28.936       14.804        0.262      337.274        9.137      864.934
12/09/2014  16:52:00      -21.523      -22.482        3.266       23.192       22.373       19.729      537.848      500.532      389.252        0.120        0.071       31.124       17.336        0.310      337.291        9.166      864.941
12/09/2014  16:53:00      -24.952       -8.962       -2.741       12.902        8.423       14.429      166.458       70.954      208.205        0.058        0.022       26.513        4.289        0.026      337.330        9.231      864.971
12/09/2014  16:54:00      -36.972        8.876       -7.849       23.313       27.667       16.521      543.502      765.479      272.940        0.154        0.079       38.023        9.137        0.058      337.343        9.252      865.009
12/09/2014  16:55:00      -50.619      -13.826       -1.973       27.931       31.708       16.884      780.135     1005.421      285.065        0.241        0.104       52.474       11.596        0.049      337.274        9.137      865.043
12/09/2014  16:56:00        0.099      -11.506        6.019       13.622       10.551       12.229      185.560      111.326      149.555        0.031        0.022       11.506        7.847        0.465      337.176        8.977      865.073
12/09/2014  16:57:00        0.820      -19.852       15.332       14.187       14.959        8.671      201.276      223.772       75.179        0.056        0.025       19.869        6.049        0.093      337.100        8.845      865.091
12/09/2014  16:58:00       -5.462       -1.393        7.397       17.130       13.620       10.554      293.446      185.494      111.391        0.034        0.030        5.636        7.913        1.971      337.101        8.848      865.096
12/09/2014  16:59:00      -63.824      -23.030        1.328       33.022       19.139       14.652     1090.428      366.313      214.667        0.314        0.084       67.852       17.302        0.065      337.066        8.789      865.088
12/09/2014  17:00:00      -21.625      -10.412       19.676       35.634       23.165       14.969     1269.779      536.608      224.058        0.150        0.102       24.001       19.871        0.685      336.910        8.529      865.105
12/09/2014  17:01:00       14.042       -5.161       16.797       19.231       26.428       16.762      369.838      698.428      280.956        0.093        0.067       14.960        9.860        0.434      336.919        8.544      865.102
12/09/2014  17:02:00      -25.998      -19.716       15.168       34.461       26.112       19.169     1187.588      681.827      367.458        0.177        0.112       32.629       18.554        0.323      336.923        8.549      865.097
12/09/2014  17:03:00      -72.847      -44.412       -0.550       35.291       23.815       15.687     1245.448      567.145      246.086        0.467        0.103       85.318       14.851        0.030      336.739        8.245      865.103
12/09/2014  17:04:00      -51.932      -26.426        8.074       45.100       27.200       22.569     2034.020      739.824      509.347        0.337        0.164       58.269       21.937        0.142      336.679        8.144      865.113
12/09/2014  17:05:00     -107.653       -0.027       -1.089       48.602       54.632       29.382     2362.181     2984.615      863.296        0.890        0.311      107.653       24.167        0.050      336.815        8.371      865.107
12/09/2014  17:06:00     -148.607       66.260      -18.110       51.529       33.646       28.768     2655.264     1132.024      827.588        1.571        0.231      162.709       25.630        0.025      336.595        8.003      865.107
12/09/2014  17:07:00     -137.510       45.600       -7.689       51.203       39.890       25.986     2621.792     1591.233      675.294        1.297        0.244      144.874       21.744        0.023      336.822        8.381      865.133
12/09/2014  17:08:00     -146.468       40.302       -8.138       47.215       37.163       28.376     2229.288     1381.070      805.199        1.378        0.221      151.911       22.421        0.022      336.876        8.472      865.138
12/09/2014  17:09:00     -103.349       15.602       -4.049       30.453       42.288       25.252      927.408     1788.311      637.649        0.715        0.168      104.520       17.704        0.029      336.934        8.569      865.133
12/09/2014  17:10:00     -117.358       36.386       -7.766       37.016       31.253       21.806     1370.202      976.777      475.497        0.899        0.141      122.869       11.898        0.009      337.034        8.736      865.138
12/09/2014  17:11:00      -42.629       14.383        6.845       46.187       26.197       20.719     2133.212      686.275      429.285        0.266        0.162       44.990       14.701        0.107      336.926        8.555      865.142
12/09/2014  17:12:00      -65.560       16.620       -1.980       41.167       35.521       19.436     1694.729     1261.748      377.756        0.396        0.167       67.634       16.224        0.058      336.892        8.500      865.130
12/09/2014  17:13:00      -21.821        7.415        5.243       34.501       16.811       13.870     1190.319      282.613      192.382        0.111        0.083       23.047       12.549        0.296      336.868        8.459      865.125
12/09/2014  17:14:00      -75.119      -15.579       -1.519       39.443       34.128       22.842     1555.773     1164.739      521.775        0.456        0.162       76.717       19.478        0.064      336.865        8.454      865.126
12/09/2014  17:15:00     -106.013      -18.321       -8.006       37.355       28.475       20.300     1395.410      810.823      412.104        0.713        0.131      107.584       20.768        0.037      336.730        8.229      865.131
12/09/2014  17:16:00     -109.820      -35.247      -10.887       25.716       31.237       18.036      661.311      975.764      325.282        0.769        0.098      115.338       15.533        0.018      336.642        8.082      865.156
12/09/2014  17:17:00     -134.577      -25.884       -8.776       40.514       32.804       25.817     1641.422     1076.110      666.501        1.112        0.169      137.044       22.027        0.026      336.737        8.240      865.186
12/09/2014  17:18:00      -64.119        6.233        8.516       55.608       41.505       29.175     3092.208     1722.676      851.195        0.494        0.283       64.421       29.497        0.210      336.768        8.290      865.210
12/09/2014  17:19:00      -99.873        1.781       -4.616       51.742       38.899       28.601     2677.215     1513.134      818.036        0.750        0.250       99.889       27.348        0.075      337.042        8.749      865.228
12/09/2014  17:20:00      -98.579        1.965       -7.485       47.660       38.042       23.930     2271.441     1447.171      572.668        0.703        0.215       98.599       15.946        0.026      336.711        8.196      865.218
12/09/2014  17:21:00     -123.569      -39.918       -9.048       33.061       39.161       16.555     1093.012     1533.603      274.058        0.992        0.145      129.857       16.619        0.016      336.429        7.725      865.201
12/09/2014  17:22:00     -122.780      -57.413       -8.764       29.426       30.422       18.994      865.904      925.526      360.762        1.030        0.108      135.541       16.935        0.016      336.362        7.613      865.190
12/09/2014  17:23:00     -123.878      -42.489      -14.033       24.843       28.300       16.205      617.154      800.880      262.609        0.951        0.084      130.962        8.776        0.004      336.407        7.688      865.180
12/09/2014  17:24:00     -121.841      -45.747       -1.817       28.543       25.066       17.842      814.679      628.318      318.343        0.935        0.088      130.146       14.186        0.012      336.441        7.744      865.162
12/09/2014  17:25:00     -123.941      -37.967      -12.764       22.813       20.029       15.721      520.445      401.155      247.152        0.907        0.058      129.626       11.304        0.008      336.461        7.778      865.162
12/09/2014  17:26:00     -119.965      -32.496       -4.428       24.474       18.585       16.159      598.967      345.402      261.122        0.834        0.060      124.289        8.780        0.005      336.455        7.769      865.159
12/09/2014  17:27:00     -145.219      -19.349       -8.211       27.324       21.380       21.350      746.579      457.113      455.837        1.159        0.083      146.502       16.294        0.012      336.536        7.903      865.149
12/09/2014  17:28:00     -151.301       -1.576       -9.672       39.149       36.046       25.510     1532.661     1299.308      650.783        1.323        0.174      151.309       25.130        0.028      336.774        8.303      865.145
12/09/2014  17:29:00     -141.261        9.916      -11.765       37.996       41.766       25.533     1443.716     1744.389      651.954        1.201        0.192      141.608       19.460        0.019      337.112        8.868      865.133
12/09/2014  17:30:00     -148.150       13.344       -9.646       41.560       34.176       24.589     1727.265     1167.972      604.638        1.286        0.175      148.750       19.969        0.018      336.928        8.559      865.115
12/09/2014  17:31:00     -181.190       28.817      -11.113       39.829       36.289       20.003     1586.339     1316.901      400.111        1.854        0.165      183.467       12.428        0.005      337.104        8.854      865.101
12/09/2014  17:32:00     -158.664       27.647       -9.883       44.810       32.389       23.325     2007.914     1049.069      544.061        1.482        0.180      161.055       18.554        0.013      336.917        8.541      865.083
12/09/2014  17:33:00      -95.223       18.885       -0.891       50.464       44.532       25.542     2546.586     1983.062      652.407        0.730        0.259       97.078       22.948        0.056      336.966        8.623      865.070
12/09/2014  17:34:00      -85.394       -8.449        1.133       40.338       30.892       20.632     1627.188      954.316      425.690        0.519        0.150       85.811       16.523        0.037      336.812        8.365      865.074
12/09/2014  17:35:00      -89.311      -15.836       -8.230       29.762       30.768       19.721      885.750      946.649      388.907        0.526        0.111       90.704       14.810        0.027      336.884        8.484      865.069
12/09/2014  17:36:00      -94.221      -17.806       -3.926       35.518       38.181       25.350     1261.547     1457.808      642.639        0.629        0.168       95.889       24.340        0.064      336.791        8.330      865.094
12/09/2014  17:37:00     -116.768      -21.987       -7.909       34.382       27.288       24.756     1182.132      744.626      612.851        0.836        0.127      118.819       23.838        0.040      336.531        7.895      865.116
12/09/2014  17:38:00      -76.750      -36.936      -12.976       36.723       20.947       17.190     1348.613      438.766      295.507        0.475        0.104       85.175        9.201        0.012      336.558        7.940      865.138
12/09/2014  17:39:00      -84.215      -18.062       -2.141       21.107       16.914       12.446      445.509      286.099      154.913        0.415        0.044       86.130        8.616        0.010      336.536        7.904      865.154
12/09/2014  17:40:00      -49.580      -34.629       -1.947       26.536       15.300       11.115      704.185      234.085      123.550        0.236        0.053       60.476        9.685        0.026      336.587        7.989      865.168
12/09/2014  17:41:00      -41.339      -29.615       -1.691       16.645       10.857       13.236      277.043      117.877      175.187        0.158        0.029       50.852        7.481        0.022      336.704        8.187      865.162
12/09/2014  17:42:00      -44.548      -26.227       -3.608       20.328       20.779       10.880      413.243      431.768      118.365        0.182        0.048       51.696       10.689        0.043      336.771        8.298      865.156
12/09/2014  17:43:00      -27.160      -22.900        0.141       25.343       16.317       12.099      642.255      266.232      146.374        0.116        0.053       35.526       14.529        0.167      336.723        8.218      865.160
12/09/2014  17:44:00      -37.782       -9.935       -2.717       26.740       15.458       13.798      715.011      238.957      190.392        0.134        0.057       39.066       14.020        0.129      336.714        8.202      865.159
12/09/2014  17:45:00      -24.447        4.760       -3.283       28.907       28.920       12.591      835.626      836.377      158.529        0.123        0.092       24.906       12.664        0.259      336.807        8.358      865.147
12/09/2014  17:46:00      -28.005        2.071        1.360       25.468       26.470       18.710      648.613      700.651      350.066        0.124        0.085       28.082        9.230        0.108      336.773        8.301      865.136
12/09/2014  17:47:00      -48.653       15.582        3.259       50.433       33.963       20.196     2543.484     1153.456      407.869        0.336        0.205       51.087       22.860        0.200      336.965        8.621      865.138
12/09/2014  17:48:00     -137.311       35.106      -14.996       26.443       31.202       22.093      699.226      973.554      488.081        1.124        0.108      141.727       16.873        0.014      336.969        8.626      865.159
12/09/2014  17:49:00     -122.312        4.648      -16.909       18.063       25.520       16.814      326.276      651.285      282.712        0.826        0.063      122.400        8.785        0.005      336.589        7.994      865.182
12/09/2014  17:50:00      -77.006      -36.833        3.388       55.088       37.868       23.171     3034.728     1433.993      536.913        0.615        0.250       85.362       28.010        0.108      336.516        7.870      865.204
12/09/2014  17:51:00     -114.848      -17.321      -14.914       41.604       26.917       23.876     1730.931      724.540      570.070        0.837        0.151      116.146       24.900        0.046      336.623        8.050      865.212
12/09/2014  17:52:00     -108.705       -8.513       -7.051       32.401       42.541       18.847     1049.837     1809.703      355.202        0.758        0.161      109.038       10.423        0.009      336.669        8.127      865.220
12/09/2014  17:53:00     -123.574       -1.866      -15.519       32.157       45.598       26.888     1034.055     2079.165      722.964        0.967        0.192      123.588       23.880        0.037      336.667        8.123      865.220
12/09/2014  17:54:00     -136.472      -32.153      -14.799       25.243       30.709       21.020      637.186      943.034      441.821        1.095        0.101      140.209       13.377        0.009      336.537        7.907      865.217
12/09/2014  17:55:00     -128.827      -10.220      -14.061       36.357       34.906       22.665     1321.866     1218.439      513.684        0.998        0.153      129.232       23.742        0.034      336.579        7.974      865.214
12/09/2014  17:56:00     -148.035      -26.459      -15.005       36.359       36.462       21.648     1321.987     1329.448      468.631        1.298        0.156      150.381       18.606        0.015      336.394        7.664      865.229
12/09/2014  17:57:00     -166.995      -12.530      -19.344       49.644       28.004       27.180     2464.536      784.213      738.758        1.620        0.199      167.465       30.550        0.033      336.335        7.567      865.238
12/09/2014  17:58:00     -161.879      -34.455      -23.984       28.291       31.115       24.413      800.402      968.118      596.011        1.517        0.118      165.505       18.524        0.013      336.337        7.572      865.229
12/09/2014  17:59:00     -156.523      -19.708      -20.854       38.346       24.042       20.963     1470.382      578.034      439.436        1.390        0.124      157.759       21.353        0.018      336.384        7.649      865.221
12/09/2014  18:00:00      -80.103      -39.157        2.706       34.636       37.964       21.777     1199.627     1441.262      474.251        0.554        0.156       89.161       17.264        0.037      336.398        7.674      865.220
12/09/2014  18:01:00     -120.344      -21.686      -14.696       33.221       28.132       21.763     1103.612      791.399      473.622        0.877        0.118      122.282       20.828        0.029      336.530        7.893      865.225
12/09/2014  18:02:00      -80.329      -38.622        0.251       23.788       29.653       13.835      565.856      879.293      191.412        0.479        0.082       89.131       11.260        0.016      336.396        7.669      865.244
12/09/2014  18:03:00      -95.929      -45.071        1.469       31.200       26.908       13.385      973.412      724.036      179.167        0.656        0.094      105.990       11.412        0.012      336.413        7.698      865.264
12/09/2014  18:04:00      -75.553      -41.706       -4.627       25.484       14.142       10.712      649.459      199.995      114.757        0.422        0.048       86.300       10.531        0.015      336.536        7.903      865.285
12/09/2014  18:05:00      -67.390      -42.314       -1.016       32.334       30.481       13.125     1045.481      929.106      172.268        0.424        0.107       79.574       16.792        0.045      336.458        7.773      865.312
12/09/2014  18:06:00      -54.387      -76.182        1.082       32.347       28.266       20.234     1046.299      798.984      409.428        0.551        0.113       93.603       16.536        0.031      336.523        7.883      865.347
12/09/2014  18:07:00      -77.352     -124.503       -3.356       27.920       33.674       17.738      779.525     1133.950      314.629        1.186        0.111      146.575       15.167        0.011      336.533        7.898      865.371
12/09/2014  18:08:00      -50.768      -93.186        6.930       44.080       60.425       26.814     1943.081     3651.208      719.004        0.881        0.316      106.118       25.844        0.059      336.595        8.002      865.385
12/09/2014  18:09:00      -48.304      -70.848        9.656       47.227       42.480       21.600     2230.431     1804.536      466.578        0.597        0.225       85.748       19.098        0.050      336.597        8.005      865.395
12/09/2014  18:10:00      -76.249      -66.264        5.044       44.005       34.562       23.804     1936.423     1194.554      566.607        0.696        0.185      101.019       27.502        0.074      336.571        7.964      865.404
12/09/2014  18:11:00      -83.306      -93.833       -9.760       25.258       30.552       21.998      637.959      933.444      483.904        0.895        0.103      125.477       16.406        0.017      336.577        7.975      865.427
12/09/2014  18:12:00      -95.186      -66.801       -2.203       37.959       34.332       23.051     1440.877     1178.661      531.337        0.834        0.158      116.287       15.675        0.018      336.560        7.946      865.430
12/09/2014  18:13:00      -74.198      -55.498       -6.908       28.300       33.993       15.727      800.918     1155.507      247.336        0.542        0.110       92.657       14.599        0.025      336.544        7.919      865.427
12/09/2014  18:14:00      -33.965      -42.295       -0.692       19.481       19.634       11.078      379.519      385.504      122.721        0.192        0.044       54.245        7.502        0.019      336.571        7.965      865.426
12/09/2014  18:15:00      -46.766      -35.171      -11.606       13.309        7.449        7.587      177.138       55.488       57.570        0.192        0.015       58.515        4.292        0.005      336.549        7.925      865.427
12/09/2014  18:16:00      -41.923      -18.262       -4.800        9.692       15.275        7.887       93.932      233.318       62.206        0.125        0.019       45.728        7.390        0.026      336.555        7.936      865.427
12/09/2014  18:17:00      -93.804      -15.018      -18.157       34.411       20.340       13.616     1184.129      413.721      185.385        0.557        0.089       94.998       12.164        0.016      336.630        8.062      865.435
12/09/2014  18:18:00     -136.657      -14.987      -16.535       12.922       14.290       13.036      166.981      204.203      169.941        0.986        0.027      137.476        9.421        0.005      336.500        7.841      865.450
12/09/2014  18:19:00     -111.120      -32.932       -6.640       15.567       12.711       10.392      242.328      161.574      108.002        0.699        0.026      115.898        5.019        0.002      336.475        7.800      865.461
12/09/2014  18:20:00      -64.664      -34.537       -1.225       20.912       12.800       12.076      437.297      163.836      145.822        0.306        0.037       73.309       12.162        0.028      336.437        7.739      865.466
12/09/2014  18:21:00      -66.200      -31.093        7.164       30.142       24.448       17.018      908.537      597.721      289.619        0.360        0.090       73.138       16.391        0.050      336.431        7.728      865.476
12/09/2014  18:22:00      -58.445      -54.987        2.941       27.876       25.462       15.521      777.091      648.324      240.900        0.406        0.083       80.246       14.535        0.033      336.498        7.840      865.484
12/09/2014  18:23:00      -91.762      -33.695       -0.626       23.896       25.387       13.462      571.034      644.518      181.215        0.548        0.070       97.753       10.015        0.010      336.482        7.814      865.505
12/09/2014  18:24:00      -61.926      -25.633        2.968       21.957       16.316       12.017      482.092      266.217      144.397        0.270        0.045       67.021       11.723        0.031      336.486        7.820      865.514
12/09/2014  18:25:00      -99.630      -17.347      -15.979       21.342       12.220       12.312      455.475      149.321      151.580        0.562        0.038      101.129       10.996        0.012      336.518        7.874      865.529
12/09/2014  18:26:00      -89.045      -24.902      -15.101       15.892       13.033        8.388      252.566      169.861       70.363        0.463        0.025       92.462        5.018        0.003      336.552        7.931      865.535
12/09/2014  18:27:00      -66.659      -23.359       -4.113       11.380       10.920       10.121      129.511      119.254      102.439        0.268        0.018       70.633        4.968        0.005      336.501        7.847      865.543
12/09/2014  18:28:00      -50.860      -22.524       -1.282       17.509        8.201        8.363      306.579       67.250       69.935        0.177        0.022       55.625        6.167        0.012      336.465        7.786      865.542
12/09/2014  18:29:00      -28.728      -23.504       -0.406       14.567       12.900        7.852      212.193      166.401       61.651        0.091        0.022       37.118        5.253        0.020      336.503        7.850      865.539
12/09/2014  18:30:00       -6.566        0.663        5.909        9.482       10.814        8.165       89.899      116.933       66.668        0.018        0.014        6.599        6.889        1.090      336.496        7.837      865.529
12/09/2014  18:31:00        1.168        5.815       -0.659        5.920        5.538        6.427       35.043       30.671       41.312        0.007        0.005        5.931        4.464        0.566      336.536        7.904      865.531
12/09/2014  18:32:00       -3.138        0.124       -0.831        5.909        4.024        4.569       34.920       16.192       20.873        0.004        0.004        3.140        3.356        1.142      336.497        7.840      865.537
12/09/2014  18:33:00      -26.162       -8.606       -3.609        6.653        5.838        3.531       44.258       34.082       12.470        0.043        0.005       27.541        1.211        0.002      336.535        7.902      865.551
12/09/2014  18:34:00       -9.040        4.241       -4.992        8.748        5.095        4.615       76.520       25.962       21.301        0.012        0.006        9.985        1.945        0.038      336.536        7.905      865.559
12/09/2014  18:35:00       33.879       33.937       -0.386       15.312        9.245       11.255      234.470       85.476      126.677        0.137        0.022       47.953        6.467        0.018      336.556        7.938      865.552
12/09/2014  18:36:00       27.990       18.260        7.836       20.530       17.543       12.950      421.494      307.762      167.713        0.104        0.045       33.420        9.359        0.078      336.434        7.735      865.542
12/09/2014  18:37:00       15.694        6.136       -0.646       18.524       25.836       18.386      343.145      667.486      338.036        0.082        0.067       16.850       15.837        0.883      336.324        7.548      865.540
12/09/2014  18:38:00       24.477        1.472       -0.180       23.759       13.324       12.470      564.509      177.518      155.496        0.075        0.045       24.521        8.683        0.125      336.294        7.499      865.550
12/09/2014  18:39:00       13.769       30.856       -7.095       12.071       16.349       10.720      145.708      267.301      114.928        0.086        0.026       33.788       10.844        0.103      336.269        7.457      865.556
12/09/2014  18:40:00       16.805       33.939        0.397       13.530       17.811       10.734      183.061      317.230      115.222        0.102        0.031       37.871        7.481        0.039      336.285        7.483      865.549
12/09/2014  18:41:00       18.872       43.929       -5.209       12.853       17.017        9.996      165.212      289.571       99.918        0.143        0.028       47.811        4.660        0.009      336.356        7.602      865.542
12/09/2014  18:42:00        9.807       42.267       -1.943       15.148       21.526       12.589      229.460      463.365      158.494        0.137        0.043       43.390       12.907        0.088      336.356        7.602      865.541
12/09/2014  18:43:00       17.962       38.786       -6.196       14.993       19.989       11.116      224.783      399.555      123.563        0.131        0.037       42.743        7.207        0.028      336.331        7.561      865.547
12/09/2014  18:44:00        9.131       40.114       -3.391        8.463       16.284        5.472       71.619      265.166       29.943        0.104        0.018       41.140        2.679        0.004      336.352        7.597      865.546
12/09/2014  18:45:00       -6.363       36.810       -2.980        7.552        7.918        5.524       57.028       62.694       30.519        0.078        0.008       37.356        4.660        0.016      336.433        7.730      865.549
12/09/2014  18:46:00       -0.638       22.776        2.469        9.731        5.936        6.782       94.685       35.233       45.992        0.035        0.009       22.784        2.805        0.015      336.453        7.763      865.544
12/09/2014  18:47:00       17.688       11.858        0.048        5.709        7.880        7.012       32.594       62.091       49.162        0.030        0.007       21.295        4.804        0.051      336.433        7.732      865.538
12/09/2014  18:48:00       19.151        8.472       -0.298        4.207        5.270        2.936       17.698       27.776        8.618        0.025        0.003       20.941        1.992        0.009      336.549        7.928      865.549
12/09/2014  18:49:00       18.707        3.692       -2.347        5.015        7.751        2.711       25.150       60.080        7.350        0.023        0.005       19.068        2.434        0.016      336.557        7.940      865.556
12/09/2014  18:50:00       17.230        6.495        2.308        5.287        4.836        5.040       27.949       23.391       25.399        0.021        0.004       18.413        3.162        0.029      336.557        7.941      865.561
12/09/2014  18:51:00       25.980       37.417       -1.863       11.870       18.241        8.612      140.902      332.723       74.173        0.131        0.027       45.552        7.980        0.031      336.478        7.807      865.560
12/09/2014  18:52:00       35.037       49.594      -11.606       21.185       18.786       13.278      448.810      352.899      176.301        0.240        0.049       60.722       10.161        0.028      336.284        7.484      865.554
12/09/2014  18:53:00       35.797       38.174        0.111       28.491       23.883       21.215      811.751      570.408      450.088        0.229        0.092       52.333       12.799        0.060      336.171        7.293      865.559
12/09/2014  18:54:00       34.414       75.438       -6.447       20.274       22.321       20.352      411.046      498.241      414.198        0.412        0.066       82.917       16.884        0.041      336.218        7.371      865.575
12/09/2014  18:55:00       43.078       38.694        3.821       25.452       20.414       18.885      647.784      416.724      356.658        0.239        0.071       57.905       10.419        0.032      336.265        7.451      865.611
12/09/2014  18:56:00       45.563       26.682        8.145       15.306       12.939       11.114      234.279      167.411      123.526        0.169        0.026       52.800        8.673        0.027      336.313        7.531      865.648
12/09/2014  18:57:00       74.014       41.695       13.057       14.852       12.509       11.791      220.568      156.484      139.028        0.395        0.026       84.950        5.376        0.004      336.320        7.544      865.675
12/09/2014  18:58:00       79.922       29.033       14.123       17.938       13.639       17.378      321.757      186.013      301.992        0.412        0.040       85.032       11.106        0.017      336.277        7.471      865.678
12/09/2014  18:59:00       85.248       50.480       24.470       34.482       26.013       31.874     1189.006      676.652     1015.945        0.665        0.144       99.073       23.528        0.056      336.206        7.351      865.673
12/09/2014  19:00:00      104.844       47.509       10.427       40.328       37.335       32.421     1626.315     1393.924     1051.148        0.871        0.204      115.106       24.284        0.045      336.200        7.342      865.658
12/09/2014  19:01:00       86.678       43.949       17.813       47.907       30.277       30.241     2295.047      916.702      914.546        0.694        0.206       97.184       24.790        0.065      336.159        7.272      865.646
12/09/2014  19:02:00       78.308       56.208       16.953       40.330       22.895       25.450     1626.489      524.203      647.728        0.619        0.140       96.393       15.865        0.027      336.111        7.193      865.641
12/09/2014  19:03:00       78.632       52.317       23.925       31.540       26.536       24.731      994.749      704.137      611.607        0.590        0.116       94.447       18.433        0.038      336.108        7.187      865.646
12/09/2014  19:04:00       89.186       57.071       15.981       31.035       23.648       24.817      963.167      559.210      615.897        0.680        0.107      105.883       19.476        0.034      336.091        7.160      865.648
12/09/2014  19:05:00       76.662       44.859       11.998       22.184       22.096       18.661      492.146      488.212      348.221        0.468        0.066       88.823        8.622        0.009      336.075        7.133      865.664
12/09/2014  19:06:00       86.832       48.239       20.216       26.597       24.103       21.980      707.417      580.952      483.127        0.602        0.089       99.332       15.332        0.024      336.060        7.108      865.684
12/09/2014  19:07:00       86.660       41.605        5.868       21.177       18.779       16.428      448.474      352.649      269.894        0.517        0.054       96.130       13.144        0.019      336.055        7.100      865.706
12/09/2014  19:08:00       64.617       56.107       12.837       17.239       16.073       18.255      297.166      258.356      333.247        0.419        0.044       85.577        9.594        0.013      336.073        7.130      865.739
12/09/2014  19:09:00       49.950       32.546        8.905       17.328       14.599       14.489      300.263      213.120      209.919        0.218        0.036       59.618       11.447        0.037      336.086        7.151      865.755
12/09/2014  19:10:00       67.683       44.092        7.320       23.534       19.285       17.185      553.863      371.907      295.334        0.390        0.061       80.778        9.826        0.015      336.131        7.227      865.769
12/09/2014  19:11:00       77.459       43.319       10.452       18.976       15.473       16.236      360.103      239.413      263.592        0.442        0.043       88.749        7.672        0.007      336.127        7.221      865.760
12/09/2014  19:12:00       65.350       40.422       16.052       16.873       16.272       11.937      284.701      264.766      142.489        0.343        0.035       76.841        9.881        0.017      336.127        7.219      865.751
12/09/2014  19:13:00       52.309       35.713       17.240       22.428       14.392       21.455      503.031      207.129      460.337        0.274        0.059       63.338       16.402        0.067      336.159        7.273      865.739
12/09/2014  19:14:00       73.291       58.392       23.006       31.437       30.147       21.362      988.300      908.853      456.349        0.583        0.118       93.708       20.271        0.047      336.150        7.256      865.737
12/09/2014  19:15:00       70.524       45.082       13.103       18.978       17.581       15.457      360.173      309.095      238.923        0.404        0.045       83.702       11.808        0.020      336.140        7.241      865.742
12/09/2014  19:16:00       73.668       47.841       10.759       24.483       20.475       16.059      599.426      419.244      257.906        0.455        0.064       87.839       14.175        0.026      336.155        7.266      865.761
12/09/2014  19:17:00       68.749       47.515       14.594       15.950       19.115       18.118      254.414      365.373      328.252        0.407        0.047       83.570        7.734        0.009      336.197        7.338      865.789
12/09/2014  19:18:00       58.653       35.582        6.863       11.735        9.134       11.172      137.707       83.437      124.820        0.255        0.017       68.602        5.197        0.006      336.259        7.441      865.811
12/09/2014  19:19:00       67.190       41.798       15.046       12.682        9.991        9.241      160.836       99.824       85.389        0.342        0.017       79.130        3.688        0.002      336.292        7.495      865.816
12/09/2014  19:20:00       77.641       54.562       17.046       12.000        8.453        8.679      143.996       71.461       75.333        0.479        0.015       94.896        4.105        0.002      336.323        7.547      865.811
12/09/2014  19:21:00       78.897       54.352       16.803       15.063       13.770       14.900      226.887      189.613      222.018        0.505        0.032       95.806        9.055        0.009      336.297        7.504      865.800
12/09/2014  19:22:00       51.919       38.590        5.658       20.202       17.474       14.033      408.113      305.352      196.923        0.256        0.046       64.690        9.692        0.022      336.281        7.478      865.791
12/09/2014  19:23:00       52.017       34.077        5.979       25.344       16.082       17.082      642.341      258.640      291.795        0.255        0.060       62.186       12.584        0.041      336.291        7.494      865.798
12/09/2014  19:24:00       23.420       30.277       -8.154       20.495       13.627       12.304      420.040      185.704      151.381        0.114        0.038       38.278        9.332        0.059      336.301        7.511      865.811
12/09/2014  19:25:00       36.256       27.410       -5.918       18.725       16.763        9.598      350.615      281.006       92.119        0.141        0.036       45.451        9.632        0.045      336.330        7.559      865.840
12/09/2014  19:26:00       -6.472       42.612       -7.411        9.924       10.756        6.567       98.483      115.698       43.124        0.108        0.013       43.101        4.579        0.011      336.373        7.634      865.858
12/09/2014  19:27:00       10.776       48.296      -12.942       10.988        9.814        6.387      120.729       96.317       40.791        0.144        0.013       49.484        5.010        0.010      336.393        7.665      865.864
12/09/2014  19:28:00       15.261       30.248       -3.726       12.438       17.262        7.123      154.700      297.963       50.730        0.083        0.025       33.880        7.356        0.047      336.381        7.645      865.859
12/09/2014  19:29:00       12.243       32.826       -2.667        7.832       10.317        7.929       61.337      106.445       62.865        0.073        0.012       35.035        2.673        0.006      336.376        7.638      865.856
12/09/2014  19:30:00       16.200       31.142       -1.741       14.245       15.989       10.034      202.917      255.657      100.683        0.090        0.028       35.104        4.703        0.018      336.379        7.639      865.859
12/09/2014  19:31:00       36.507       33.033        6.641       22.507       18.083       19.488      506.563      326.981      379.777        0.184        0.061       49.233       15.850        0.104      336.433        7.731      865.858
12/09/2014  19:32:00       25.110       32.760        3.674       17.387       16.745       15.065      302.322      280.406      226.944        0.126        0.040       41.276       12.624        0.094      336.406        7.685      865.845
12/09/2014  19:33:00       30.582       24.510        3.221       21.235       19.111       13.390      450.905      365.236      179.301        0.127        0.050       39.191        8.642        0.049      336.382        7.647      865.833
12/09/2014  19:34:00       45.817       39.102        9.664       29.908       26.077       20.747      894.493      680.026      430.441        0.286        0.100       60.234       16.246        0.073      336.428        7.723      865.826
12/09/2014  19:35:00       33.161       42.661        4.281       23.969       25.743       20.889      574.520      662.702      436.349        0.231        0.084       54.034       14.224        0.069      336.441        7.744      865.825
12/09/2014  19:36:00        8.378       25.564       -2.441       29.069       20.552       19.102      844.990      422.379      364.888        0.118        0.082       26.902       14.049        0.273      336.446        7.753      865.827
12/09/2014  19:37:00       20.243       25.346       -4.140       21.850       22.855       17.639      477.416      522.330      311.125        0.119        0.066       32.438       13.417        0.171      336.429        7.725      865.827
12/09/2014  19:38:00       17.157       23.853        4.424       16.273       24.693       15.638      264.798      609.730      244.562        0.100        0.056       29.383       13.833        0.222      336.412        7.695      865.814
12/09/2014  19:39:00       33.617       27.243        4.910       23.962       23.356       19.962      574.171      545.518      398.498        0.171        0.076       43.270       14.459        0.112      336.432        7.727      865.795
12/09/2014  19:40:00       30.998       34.336       -1.182       23.307       24.227       15.696      543.197      586.956      246.349        0.176        0.069       46.259       11.055        0.057      336.447        7.754      865.790
12/09/2014  19:41:00       29.777       29.670       -0.443       20.152       26.905       21.546      406.098      723.865      464.237        0.168        0.080       42.036       18.597        0.196      336.500        7.844      865.805
12/09/2014  19:42:00       19.709       26.703        4.486       20.564       18.322       15.383      422.874      335.702      236.647        0.106        0.050       33.189       11.894        0.128      336.525        7.886      865.820
12/09/2014  19:43:00       42.566       33.543       14.522       26.576       16.165       18.151      706.292      261.311      329.460        0.222        0.065       54.194       10.726        0.039      336.506        7.855      865.830
12/09/2014  19:44:00       27.942       54.980      -10.285       22.098       19.594       13.093      488.325      383.911      171.427        0.248        0.052       61.673        5.466        0.008      336.506        7.854      865.829
12/09/2014  19:45:00        8.773       30.606       -6.644       18.907       16.598       11.435      357.482      275.499      130.764        0.091        0.038       31.839       10.275        0.104      336.505        7.849      865.838
12/09/2014  19:46:00       11.407       53.003       -7.839       15.091       16.555        8.892      227.753      274.065       79.076        0.179        0.029       54.217        6.629        0.015      336.619        8.043      865.840
12/09/2014  19:47:00       17.291       54.923       -5.774       12.565       17.647       11.636      157.867      311.403      135.396        0.198        0.030       57.580        8.564        0.022      336.595        8.003      865.818
12/09/2014  19:48:00       60.654       42.273        6.678       21.696       17.750       13.873      470.722      315.051      192.448        0.324        0.049       73.932       10.978        0.022      336.513        7.866      865.786
12/09/2014  19:49:00       51.094       26.175       11.500       29.995       20.798       11.507      899.729      432.550      132.408        0.245        0.073       57.408        9.148        0.025      336.489        7.825      865.760
12/09/2014  19:50:00       21.404        0.809       -2.471       16.002       14.570       13.539      256.071      212.297      183.300        0.056        0.033       21.419        9.691        0.205      336.436        7.736      865.765
12/09/2014  19:51:00      -17.374       11.015       -7.903       20.116        7.861        6.743      404.667       61.791       45.470        0.050        0.026       20.571        4.742        0.053      336.505        7.853      865.787
12/09/2014  19:52:00       -2.249       -0.945       -0.674       17.424       12.489       12.230      303.606      155.972      149.579        0.031        0.030        2.440       11.897       23.780      336.507        7.857      865.808
12/09/2014  19:53:00        7.283       25.347       -5.039       16.822       18.279       14.583      282.979      334.113      212.654        0.078        0.041       26.373        8.739        0.110      336.488        7.824      865.811
12/09/2014  19:54:00       23.451       31.668       11.324       16.420       13.246       14.835      269.623      175.455      220.092        0.117        0.033       39.406       13.472        0.117      336.582        7.979      865.810
12/09/2014  19:55:00       20.809       47.010       -6.932       14.872       22.392       10.359      221.169      501.397      107.311        0.176        0.041       51.409       12.399        0.058      336.533        7.899      865.816
12/09/2014  19:56:00       13.313       37.893       -8.992       10.640        9.887        6.544      113.216       97.762       42.821        0.097        0.013       40.163        5.091        0.016      336.483        7.816      865.844
12/09/2014  19:57:00       11.160       20.609       -3.956        8.935       11.934        7.024       79.829      142.428       49.341        0.042        0.014       23.437        3.357        0.021      336.566        7.957      865.882
12/09/2014  19:58:00       20.675        8.245       -0.328        8.123       11.771       10.120       65.989      138.545      102.421        0.040        0.015       22.258        6.765        0.092      336.536        7.903      865.912
12/09/2014  19:59:00       37.333       19.230        1.163        6.555        5.268        5.757       42.967       27.750       33.149        0.093        0.005       41.994        2.429        0.003      336.513        7.868      865.911
12/09/2014  20:00:00       38.906       17.002        2.990        8.179        7.544        7.454       66.900       56.914       55.567        0.100        0.009       42.459        2.929        0.005      336.492        7.829      865.906
12/09/2014  20:01:00       17.325       23.300       -5.845       10.537        5.169        4.503      111.030       26.722       20.277        0.052        0.008       29.035        5.433        0.035      336.483        7.813      865.901
12/09/2014  20:02:00       -6.157       25.273       -7.430       10.119        7.738        5.477      102.392       59.879       30.003        0.046        0.010       26.012        2.114        0.007      336.611        8.030      865.890
12/09/2014  20:03:00       -2.390        2.474       -6.261        8.102       13.994        6.357       65.647      195.823       40.415        0.018        0.015        3.440        9.019        6.874      336.657        8.106      865.881
12/09/2014  20:04:00      -45.104      -14.851       -5.743       14.775       10.953        7.827      218.315      119.962       61.263        0.134        0.020       47.486        5.334        0.013      336.391        7.662      865.858
12/09/2014  20:05:00       -6.338       -9.049        0.882       29.449       15.906        9.641      867.224      253.009       92.952        0.067        0.061       11.048        6.295        0.325      336.407        7.687      865.826
12/09/2014  20:06:00      -14.967       16.680       -5.228       22.775       21.221       11.236      518.688      450.331      126.243        0.081        0.055       22.410        9.998        0.199      336.517        7.872      865.800
12/09/2014  20:07:00        3.456        5.518        5.475       14.561        7.624       10.729      212.021       58.127      115.119        0.023        0.019        6.511        6.840        1.104      336.454        7.765      865.765
12/09/2014  20:08:00      -21.607       -5.908        0.627       15.490        8.261        7.076      239.930       68.239       50.065        0.043        0.018       22.400        8.178        0.133      336.410        7.694      865.732
12/09/2014  20:09:00      -52.165       -4.223       -7.139       13.333        8.759        9.461      177.781       76.725       89.512        0.157        0.017       52.335        5.332        0.010      336.234        7.399      865.702
12/09/2014  20:10:00      -72.650       -5.004      -15.971       23.138        8.514        8.639      535.374       72.494       74.633        0.312        0.034       72.822        8.891        0.015      336.177        7.305      865.684
12/09/2014  20:11:00      -23.114       -0.206       -1.255       31.726       22.685       15.443     1006.510      514.613      238.501        0.115        0.088       23.115       13.764        0.355      336.282        7.477      865.679
12/09/2014  20:12:00      -24.228       29.536       -1.061       23.750       29.807       16.525      564.049      888.456      273.089        0.159        0.086       38.202        8.537        0.050      336.429        7.725      865.661
12/09/2014  20:13:00      -54.426       46.222      -14.051       29.315       23.542       15.483      859.368      554.239      239.713        0.347        0.083       71.405        7.363        0.011      336.598        8.008      865.649
12/09/2014  20:14:00      -23.205        3.277       -2.333       25.831       20.397       17.465      667.231      416.048      305.036        0.097        0.069       23.435       16.168        0.476      336.599        8.010      865.641
12/09/2014  20:15:00      -44.667       -5.288       -3.423       42.382       26.309       24.406     1796.272      692.167      595.648        0.256        0.154       44.978       25.638        0.325      336.628        8.058      865.643
12/09/2014  20:16:00      -56.799       18.424       -8.269       40.496       45.426       30.709     1639.933     2063.556      943.041        0.414        0.232       59.712       27.356        0.210      336.604        8.017      865.645
12/09/2014  20:17:00     -138.816       68.255      -21.577       55.551       33.799       22.941     3085.931     1142.339      526.275        1.457        0.238      154.689        7.048        0.002      336.313        7.531      865.649
12/09/2014  20:18:00     -141.601       53.475       -8.950       37.484       29.951       22.357     1405.018      897.062      499.835        1.290        0.140      151.362       14.085        0.009      336.457        7.772      865.660
12/09/2014  20:19:00     -113.728       29.256       -5.314       50.310       41.575       27.892     2531.123     1728.510      777.945        0.943        0.252      117.430       30.630        0.068      336.480        7.810      865.663
12/09/2014  20:20:00     -143.136       38.898      -15.643       37.365       33.455       21.794     1396.148     1119.208      474.998        1.262        0.150      148.327       11.103        0.006      336.486        7.820      865.658
12/09/2014  20:21:00     -126.811       37.426      -16.812       39.971       29.300       22.731     1597.666      858.489      516.700        1.037        0.149      132.218       21.071        0.025      336.260        7.445      865.642
12/09/2014  20:22:00      -67.286      -16.263       -0.806       33.040       37.119       18.517     1091.612     1377.833      342.890        0.380        0.141       69.223       13.995        0.041      336.304        7.515      865.624
12/09/2014  20:23:00      -39.016      -15.384       -3.745       21.636       34.838       17.815      468.110     1213.694      317.381        0.189        0.100       41.939       12.257        0.085      336.116        7.201      865.606
12/09/2014  20:24:00      -49.133      -11.290       -1.500       40.749       28.918       18.994     1660.489      836.249      360.769        0.270        0.143       50.414       12.144        0.058      336.091        7.160      865.598
12/09/2014  20:25:00     -123.379      -32.294       -4.564       38.914       31.703       22.837     1514.265     1005.088      521.538        0.966        0.152      127.535       23.347        0.034      335.846        6.751      865.596
12/09/2014  20:26:00      -96.785       -1.562       -0.024       61.887       42.161       28.980     3830.052     1777.584      839.869        0.791        0.322       96.798       36.458        0.142      336.023        7.047      865.598
12/09/2014  20:27:00     -129.682       -6.400      -14.859       31.766       41.404       23.949     1009.071     1714.304      573.578        1.019        0.165      129.840       17.976        0.019      336.159        7.274      865.592
12/09/2014  20:28:00     -137.301       -0.962      -14.413       33.934       30.785       22.144     1151.549      947.713      490.357        1.082        0.129      137.304       18.190        0.018      336.197        7.338      865.567
12/09/2014  20:29:00     -135.195       19.353      -12.044       41.199       43.054       27.575     1697.325     1853.672      760.397        1.155        0.216      136.573       18.624        0.019      336.271        7.460      865.544
12/09/2014  20:30:00     -125.713       14.156       -9.401       47.361       31.738       23.407     2243.039     1007.317      547.873        0.994        0.190      126.507       25.242        0.040      336.163        7.279      865.521
12/09/2014  20:31:00     -132.540      -30.688       -9.249       45.962       36.895       23.496     2112.466     1361.205      552.041        1.131        0.201      136.046       22.331        0.027      335.935        6.899      865.509
12/09/2014  20:32:00      -91.192      -17.912       -9.553       52.083       41.022       24.054     2712.685     1682.771      578.615        0.685        0.249       92.934       24.318        0.068      335.914        6.865      865.497
12/09/2014  20:33:00     -122.451        7.802      -11.145       42.754       37.239       22.867     1827.904     1386.759      522.910        0.946        0.187      122.699       22.705        0.034      336.131        7.228      865.484
12/09/2014  20:34:00     -102.994       -8.923       -8.596       40.352       32.988       22.803     1628.299     1088.204      519.975        0.700        0.162      103.380       22.251        0.046      336.108        7.189      865.468
12/09/2014  20:35:00     -131.130      -27.941       -7.184       33.885       29.911       19.089     1148.176      894.667      364.395        1.022        0.120      134.073       17.777        0.018      335.843        6.748      865.467
12/09/2014  20:36:00     -112.824       -9.308       -8.740       36.506       29.945       29.050     1332.700      896.704      843.922        0.798        0.154      113.207       22.754        0.040      336.019        7.040      865.476
12/09/2014  20:37:00      -91.474      -15.838       -2.996       31.369       27.487       22.692      984.018      755.548      514.910        0.544        0.113       92.835       20.471        0.049      335.958        6.938      865.473
12/09/2014  20:38:00      -96.102      -10.334      -13.873       27.148       20.417       14.519      737.018      416.865      210.799        0.545        0.068       96.656       15.368        0.025      335.771        6.627      865.457
12/09/2014  20:39:00      -80.165      -15.952       -7.020       31.348       28.009       18.837      982.703      784.479      354.848        0.443        0.106       81.737       17.419        0.045      335.798        6.672      865.434
12/09/2014  20:40:00      -25.848       11.920       -3.596       31.666       27.785       15.394     1002.755      771.995      236.963        0.142        0.101       28.464        9.214        0.105      335.963        6.946      865.417
12/09/2014  20:41:00       -9.343       -4.609        1.838       17.712       18.216       10.307      313.713      331.818      106.229        0.043        0.038       10.418        6.854        0.433      335.915        6.866      865.409
12/09/2014  20:42:00       -2.514       -1.712       -6.106       17.325       18.578        8.360      300.157      345.143       69.887        0.038        0.036        3.042        9.086        8.921      335.818        6.705      865.391
12/09/2014  20:43:00      -39.019       -8.424       -4.919       30.154       30.685       15.280      909.236      941.549      233.485        0.185        0.104       39.918       15.343        0.148      335.837        6.738      865.354
12/09/2014  20:44:00      -13.810       -7.707       -7.812       28.475       11.883       10.794      810.822      141.198      116.517        0.069        0.053       15.815        9.925        0.394      335.931        6.893      865.327
12/09/2014  20:45:00      -30.163       -4.018        0.635       25.995       28.372       15.779      675.714      804.972      248.979        0.133        0.086       30.429       15.076        0.245      336.192        7.329      865.298
12/09/2014  20:46:00       20.149        2.186        5.368       23.415       15.002       13.803      548.257      225.059      190.521        0.070        0.048       20.267        9.405        0.215      336.056        7.102      865.267
12/09/2014  20:47:00       30.722        7.273       19.169       11.072        9.767       11.406      122.590       95.393      130.105        0.086        0.017       31.571        6.507        0.042      335.894        6.831      865.230
12/09/2014  20:48:00       11.704       -5.817       -2.743       18.916       12.287        7.830      357.817      150.978       61.316        0.037        0.029       13.070       10.865        0.691      335.863        6.781      865.198
12/09/2014  20:49:00       -9.822      -18.702       -0.388        7.996        9.069        8.158       63.940       82.240       66.546        0.033        0.011       21.125        4.866        0.053      335.951        6.925      865.190
12/09/2014  20:50:00      -55.573      -19.969       -5.365       17.740        9.658        6.056      314.700       93.282       36.671        0.198        0.022       59.052        6.014        0.010      335.643        6.414      865.192
12/09/2014  20:51:00      -80.507      -28.159      -10.777       13.275       10.992        6.351      176.239      120.833       40.331        0.386        0.017       85.289        4.421        0.003      335.672        6.463      865.201
12/09/2014  20:52:00      -94.925      -19.445      -12.238       15.114       13.418       13.425      228.444      180.044      180.230        0.506        0.029       96.896        7.802        0.006      335.772        6.630      865.223
12/09/2014  20:53:00     -108.236      -18.011      -10.735       19.042       12.283       11.690      362.600      150.876      136.665        0.640        0.033      109.724        7.417        0.005      335.738        6.573      865.241
12/09/2014  20:54:00      -86.432      -34.367       -2.970       26.868       13.697       14.238      721.882      187.597      202.730        0.489        0.056       93.014       10.813        0.014      335.612        6.362      865.254
12/09/2014  20:55:00      -72.626      -40.743       -3.041       25.170       17.930       10.739      633.509      321.488      115.319        0.401        0.054       83.274       10.377        0.016      335.553        6.265      865.262
12/09/2014  20:56:00      -61.418      -39.949       -3.752       26.162       22.825       17.842      684.461      520.966      318.335        0.345        0.076       73.268       15.337        0.044      335.547        6.253      865.256
12/09/2014  20:57:00      -71.444      -32.294       -4.747       27.107       13.585       10.724      734.767      184.557      115.009        0.360        0.052       78.403        7.352        0.009      335.508        6.189      865.234
12/09/2014  20:58:00      -67.077      -39.431       -6.423       20.242       15.728       14.042      409.735      247.360      197.182        0.347        0.043       77.808       10.318        0.018      335.525        6.218      865.215
12/09/2014  20:59:00      -97.912      -29.605       -7.002       25.552       17.912       14.359      652.922      320.823      206.191        0.585        0.059      102.290        9.938        0.009      335.620        6.375      865.191
12/09/2014  21:00:00     -128.850      -20.206      -10.483       26.994       18.550       14.362      728.690      344.091      206.263        0.920        0.064      130.425       15.335        0.014      335.636        6.402      865.172
12/09/2014  21:01:00     -116.214      -43.010       -9.909       18.585       23.996       16.857      345.420      575.818      284.144        0.833        0.060      123.917       10.141        0.007      335.546        6.252      865.150
12/09/2014  21:02:00     -102.541      -56.215       -8.138       36.699       34.393       19.280     1346.830     1182.877      371.717        0.832        0.145      116.940       14.529        0.015      335.465        6.117      865.141
12/09/2014  21:03:00      -90.033      -61.652      -10.087       53.102       35.702       21.070     2819.844     1274.643      443.960        0.827        0.227      109.118       20.402        0.035      335.397        6.003      865.139
12/09/2014  21:04:00      -79.924      -43.563      -10.803       45.405       24.016       19.806     2061.641      576.762      392.277        0.572        0.152       91.025       17.211        0.036      335.338        5.904      865.131
12/09/2014  21:05:00     -105.383      -22.348      -20.442       27.299       23.037       20.428      745.258      530.726      417.304        0.686        0.085      107.726       13.453        0.016      335.353        5.929      865.117
12/09/2014  21:06:00      -99.502      -35.069      -20.474       29.975       24.333       23.948      898.508      592.108      573.529        0.681        0.103      105.501       12.811        0.015      335.295        5.833      865.105
12/09/2014  21:07:00      -65.086      -43.956       -6.787       36.564       26.792       22.804     1336.898      717.795      520.003        0.439        0.129       78.539       14.449        0.034      335.289        5.824      865.107
12/09/2014  21:08:00      -78.157      -38.621       -9.460       55.191       25.956       19.540     3046.017      673.735      381.795        0.589        0.205       87.179       25.599        0.086      335.293        5.829      865.113
12/09/2014  21:09:00      -74.804      -70.248       -3.889       42.800       25.752       27.740     1831.865      663.143      769.509        0.690        0.163      102.618       25.301        0.061      335.265        5.782      865.134
12/09/2014  21:10:00     -127.629      -49.435      -10.125       34.008       35.416       21.808     1156.573     1254.300      475.599        1.086        0.144      136.868       18.365        0.018      335.191        5.660      865.150
12/09/2014  21:11:00     -103.239      -16.970       -5.826       52.782       28.372       22.099     2785.941      804.958      488.376        0.753        0.204      104.624       27.367        0.068      335.154        5.598      865.163
12/09/2014  21:12:00     -148.832        2.133      -20.457       44.423       32.947       24.431     1973.443     1085.477      596.860        1.311        0.183      148.847       18.386        0.015      335.444        6.083      865.162
12/09/2014  21:13:00     -154.063       12.411      -21.688       44.773       32.665       26.409     2004.653     1066.986      697.438        1.406        0.188      154.562       26.704        0.030      335.416        6.034      865.158
12/09/2014  21:14:00      -79.394        2.527        2.845       42.240       32.849       19.419     1784.217     1079.068      377.110        0.478        0.162       79.434       15.121        0.036      335.337        5.903      865.163
12/09/2014  21:15:00      -60.137        3.099       -4.290       57.069       41.693       26.593     3256.890     1738.287      707.186        0.467        0.285       60.217       20.479        0.116      335.390        5.991      865.157
12/09/2014  21:16:00     -103.981        3.608       -7.944       26.470       38.619       17.275      700.650     1491.462      298.418        0.669        0.125      104.043       12.580        0.015      335.446        6.085      865.137
12/09/2014  21:17:00      -78.827      -22.803       -7.016       26.289       26.709       18.601      691.129      713.376      345.992        0.427        0.088       82.059       14.906        0.033      335.409        6.023      865.122
12/09/2014  21:18:00      -79.293      -46.852       -4.401       22.359       25.029       16.868      499.938      626.430      284.532        0.496        0.071       92.100        7.000        0.006      335.174        5.632      865.104
12/09/2014  21:19:00     -117.010      -21.413       -8.346       22.758       20.727       13.716      517.908      429.602      188.132        0.768        0.057      118.953        8.540        0.005      335.031        5.396      865.093
12/09/2014  21:20:00     -104.545      -40.614      -13.881       24.535       21.885       14.408      601.947      478.969      207.588        0.703        0.064      112.156       10.969        0.010      335.043        5.415      865.080
12/09/2014  21:21:00      -71.862      -33.858       -5.990       32.970       24.391       16.036     1087.048      594.908      257.149        0.414        0.097       79.439        8.591        0.012      335.049        5.426      865.058
12/09/2014  21:22:00      -66.422      -41.179       -5.906       30.211       16.565       14.004      912.679      274.387      196.111        0.376        0.069       78.151       15.194        0.038      335.108        5.523      865.054
12/09/2014  21:23:00      -40.133      -28.215       -6.155       23.973       22.444       15.502      574.681      503.744      240.298        0.188        0.066       49.058       14.617        0.089      335.092        5.500      865.041
12/09/2014  21:24:00      -59.422      -11.075       -4.256       22.027       12.477       10.799      485.180      155.682      116.625        0.221        0.038       60.445        8.719        0.021      335.118        5.541      865.020
12/09/2014  21:25:00      -54.582       -1.162       -6.721       17.205       11.834        5.894      296.025      140.054       34.736        0.175        0.024       54.594        6.045        0.012      335.210        5.693      865.013
12/09/2014  21:26:00      -27.892      -10.338       -4.879       25.199       27.229        8.762      634.971      741.403       76.765        0.118        0.073       29.746        5.240        0.031      335.575        6.301      865.025
12/09/2014  21:27:00      -83.307      -26.225      -12.040       11.828       17.631        8.487      139.913      310.863       72.024        0.415        0.026       87.337        3.300        0.001      335.059        5.442      865.053
12/09/2014  21:28:00     -112.649      -38.366      -13.902       32.125       28.270       14.531     1032.000      799.195      211.154        0.820        0.102      119.003       14.185        0.014      334.959        5.277      865.080
12/09/2014  21:29:00     -127.694       -7.898       -2.543       57.642       44.442       29.845     3322.544     1975.049      890.705        1.128        0.309      127.938       30.478        0.057      335.051        5.429      865.078
12/09/2014  21:30:00     -172.523       10.024       -8.549       48.759       28.026       26.410     2377.465      785.429      697.493        1.690        0.193      172.814       26.154        0.023      335.259        5.775      865.059
12/09/2014  21:31:00     -153.599        2.669      -11.135       47.576       25.591       23.715     2263.497      654.882      562.412        1.360        0.174      153.622       26.770        0.030      335.289        5.823      865.030
12/09/2014  21:32:00     -138.727       -2.229      -11.004       36.365       25.580       22.973     1322.384      654.357      527.771        1.094        0.125      138.745       22.156        0.026      335.216        5.702      865.010
12/09/2014  21:33:00     -126.045       -5.795       -7.850       41.360       31.577       22.592     1710.643      997.076      510.402        0.960        0.161      126.179       24.169        0.037      335.041        5.412      864.999
12/09/2014  21:34:00     -122.385       -2.428      -13.709       39.418       25.941       26.591     1553.807      672.944      707.062        0.905        0.147      122.409       26.642        0.047      335.270        5.793      864.988
12/09/2014  21:35:00     -108.939      -39.062      -18.824       19.080       22.022       16.087      364.030      484.947      258.785        0.743        0.055      115.731       12.823        0.012      335.051        5.430      864.984
12/09/2014  21:36:00      -96.523      -54.244       -4.932       24.682       23.848       15.626      609.214      568.718      244.184        0.685        0.071      110.721       14.454        0.017      334.997        5.340      864.990
12/09/2014  21:37:00      -86.031      -41.126        1.252       32.829       20.661       14.640     1077.751      426.884      214.344        0.541        0.086       95.356       14.458        0.023      334.999        5.344      864.995
12/09/2014  21:38:00     -130.971      -46.189       -7.336       22.995       22.391       16.598      528.763      501.379      275.494        1.032        0.065      138.877       14.408        0.011      335.064        5.450      864.995
12/09/2014  21:39:00      -98.875      -28.309       -6.189       20.757       11.642        9.813      430.868      135.532       96.287        0.564        0.033      102.848        7.241        0.005      335.049        5.427      864.986
12/09/2014  21:40:00      -56.954      -35.104        2.139       18.714       20.076       10.367      350.215      403.054      107.470        0.267        0.043       66.903        8.516        0.016      335.105        5.520      864.967
12/09/2014  21:41:00      -41.832      -29.003        1.538       22.456       18.185       14.504      504.290      330.682      210.378        0.182        0.052       50.903       12.898        0.064      335.127        5.554      864.948
12/09/2014  21:42:00      -69.641      -40.044       -0.476       18.585       18.997       12.607      345.412      360.880      158.930        0.366        0.043       80.333        9.101        0.013      335.215        5.701      864.917
12/09/2014  21:43:00      -82.058      -38.060       -4.275       12.551       13.896        8.482      157.523      193.090       71.940        0.431        0.021       90.455        6.126        0.005      335.278        5.805      864.892
12/09/2014  21:44:00     -101.223      -45.033       -7.003       16.099       16.522        8.968      259.172      272.987       80.417        0.647        0.031      110.788        1.367        0.000      335.159        5.606      864.874
12/09/2014  21:45:00      -97.752      -25.757       -7.547       29.912       20.707       16.298      894.738      428.795      265.633        0.593        0.079      101.088       14.810        0.021      335.050        5.427      864.873
12/09/2014  21:46:00     -100.426      -36.043        0.032       32.538       22.638       18.299     1058.701      512.493      334.842        0.664        0.095      106.698       20.179        0.036      334.905        5.185      864.881
12/09/2014  21:47:00     -114.010      -21.682       -4.382       27.017       26.923       16.968      729.926      724.859      287.928        0.761        0.087      116.053       14.657        0.016      334.874        5.134      864.876
12/09/2014  21:48:00      -50.674       -7.771       -3.986       43.700       22.978       15.329     1909.717      527.976      234.982        0.266        0.134       51.266       14.995        0.086      335.024        5.383      864.868
12/09/2014  21:49:00      -44.954       -9.723        6.344       29.164       33.054       21.482      850.513     1092.595      461.488        0.228        0.120       45.993       18.732        0.166      335.142        5.579      864.861
12/09/2014  21:50:00      -70.041       -6.913      -12.104       26.153       18.701       11.148      684.001      349.711      124.288        0.313        0.058       70.382        9.147        0.017      335.180        5.643      864.859
12/09/2014  21:51:00      -54.815      -11.383       -5.560       25.911       25.663       14.933      671.369      658.587      223.006        0.236        0.078       55.984       14.098        0.063      335.321        5.876      864.849
12/09/2014  21:52:00      -55.058      -15.440       -5.886       16.054       23.077       10.976      257.739      532.567      120.469        0.211        0.046       57.181        7.612        0.018      335.220        5.708      864.843
12/09/2014  21:53:00      -86.067      -28.696       -6.680       15.860       21.640       13.338      251.527      468.293      177.911        0.459        0.045       90.725       10.267        0.013      335.145        5.584      864.837
12/09/2014  21:54:00      -98.114      -34.087       -9.928       16.454       12.748       12.958      270.729      162.500      167.904        0.574        0.030      103.866       10.926        0.011      335.108        5.524      864.844
12/09/2014  21:55:00      -92.945      -20.039       -5.076       23.644       15.390       12.976      559.054      236.864      168.364        0.502        0.048       95.081       10.370        0.012      334.962        5.281      864.868
12/09/2014  21:56:00      -84.877      -28.573       -0.442       30.479       14.055       11.936      928.972      197.548      142.462        0.464        0.063       89.558       13.918        0.024      334.906        5.187      864.892
12/09/2014  21:57:00      -94.386      -21.863       -2.386       29.827       15.788       16.652      889.631      249.263      277.304        0.540        0.071       96.885       18.493        0.036      334.899        5.177      864.915
12/09/2014  21:58:00     -112.046        1.257      -10.614       41.359       27.710       24.372     1710.597      767.849      594.010        0.787        0.154      112.053       26.758        0.057      335.167        5.621      864.929
12/09/2014  21:59:00     -132.969       -3.963      -15.667       32.853       26.092       22.238     1079.313      680.800      494.539        1.010        0.113      133.028       21.167        0.025      335.033        5.398      864.944
12/09/2014  22:00:00     -115.500        8.062      -10.281       48.633       38.482       30.483     2365.173     1480.864      929.237        0.914        0.239      115.781       29.137        0.063      335.262        5.777      864.973
12/09/2014  22:01:00     -103.792       -7.302       -3.937       42.114       33.688       30.257     1773.553     1134.892      915.497        0.733        0.191      104.049       26.463        0.065      335.220        5.709      864.991
12/09/2014  22:02:00     -146.965        6.311      -12.383       49.274       25.969       27.607     2427.958      674.368      762.138        1.283        0.193      147.100       25.920        0.031      335.130        5.559      865.002
12/09/2014  22:03:00     -121.080      -14.543      -17.693       30.269       29.255       18.083      916.217      855.841      326.988        0.864        0.105      121.951       15.479        0.016      334.872        5.132      864.993
12/09/2014  22:04:00      -50.525      -30.950        0.638       37.029       25.903       19.455     1371.168      670.991      378.496        0.297        0.121       59.251       20.190        0.116      334.811        5.030      864.981
12/09/2014  22:05:00      -87.015      -22.643       -4.588       32.822       25.202       16.289     1077.257      635.139      265.331        0.504        0.099       89.913       12.710        0.020      334.789        4.994      864.970
12/09/2014  22:06:00      -85.254      -26.897       -8.854       16.137       14.052       11.147      260.398      197.450      124.257        0.433        0.029       89.396        5.591        0.004      334.827        5.057      864.968
12/09/2014  22:07:00      -61.255      -14.082       -6.198       11.580       11.801       11.265      134.102      139.266      126.910        0.219        0.020       62.853        9.104        0.021      334.790        4.996      864.956
12/09/2014  22:08:00      -84.869      -26.540      -14.725        9.645        7.147        9.422       93.032       51.079       88.767        0.418        0.012       88.922        7.044        0.006      334.930        5.227      864.946
12/09/2014  22:09:00      -60.735      -34.732       -4.408       16.814       11.451        8.443      282.716      131.120       71.283        0.270        0.024       69.964        2.967        0.002      334.935        5.236      864.940
12/09/2014  22:10:00      -87.837      -17.341      -11.311        9.874        6.841        7.274       97.488       46.797       52.917        0.417        0.010       89.532        4.125        0.002      334.943        5.250      864.943
12/09/2014  22:11:00      -90.988      -14.229      -15.965       13.215        4.873        4.826      174.629       23.743       23.294        0.448        0.011       92.094        3.614        0.002      334.991        5.330      864.952
12/09/2014  22:12:00      -55.421      -26.594       -6.470       10.716        6.169        4.574      114.842       38.059       20.925        0.200        0.009       61.471        4.935        0.006      335.050        5.431      864.952
12/09/2014  22:13:00      -17.124      -22.716        1.236       16.039        9.123        7.209      257.265       83.230       51.976        0.060        0.020       28.447        7.735        0.074      335.066        5.453      864.949
12/09/2014  22:14:00       -8.041      -19.507        0.299       10.112       12.980        8.356      102.245      168.483       69.830        0.039        0.017       21.099        7.392        0.123      335.056        5.436      864.932
12/09/2014  22:15:00       -1.163       -3.908       -5.919       11.985        4.728        4.359      143.645       22.354       19.000        0.012        0.009        4.078        2.336        0.328      335.017        5.373      864.915
12/09/2014  22:16:00        3.099        5.893        1.370        9.501        8.252       11.871       90.263       68.099      140.927        0.017        0.015        6.658        8.801        1.747      335.056        5.437      864.902
12/09/2014  22:17:00        2.731        1.446        2.802        5.026        4.522        6.858       25.258       20.450       47.037        0.006        0.005        3.090        2.207        0.510      334.900        5.176      864.895
12/09/2014  22:18:00      -16.810        2.201        0.977        6.509        3.420        2.733       42.373       11.699        7.471        0.017        0.003       16.953        2.891        0.029      334.931        5.230      864.886
12/09/2014  22:19:00      -32.869        9.028       -3.929        6.286       12.559        4.960       39.509      157.729       24.599        0.070        0.011       34.086        3.664        0.012      335.066        5.452      864.865
12/09/2014  22:20:00      -16.778        0.565       -1.898       13.963       13.268        4.025      194.961      176.052       16.199        0.034        0.019       16.787        2.482        0.022      335.083        5.481      864.851
12/09/2014  22:21:00       30.437       17.360        1.954       21.440       14.160        4.394      459.682      200.494       19.305        0.096        0.034       35.040        5.849        0.028      335.021        5.379      864.842
12/09/2014  22:22:00       32.204       40.851       -0.525       19.527       15.765       12.046      381.293      248.531      145.114        0.174        0.039       52.018       10.684        0.042      334.871        5.131      864.845
12/09/2014  22:23:00       35.105       41.276       -9.219        8.306       12.114        9.655       68.990      146.740       93.221        0.166        0.015       54.185        5.806        0.011      334.796        5.004      864.858
12/09/2014  22:24:00       16.324       28.122       -5.082       11.620       19.736        9.668      135.022      389.524       93.462        0.085        0.031       32.517        4.344        0.018      334.795        5.004      864.862
12/09/2014  22:25:00        1.177       50.268        3.703        5.195        5.375        5.750       26.986       28.886       33.061        0.132        0.004       50.282        3.381        0.005      334.964        5.286      864.871
12/09/2014  22:26:00       25.133       16.151        3.144       18.994       15.489       10.763      360.779      239.908      115.839        0.081        0.036       29.875       11.504        0.148      334.668        4.792      864.869
12/09/2014  22:27:00       37.973       21.491        2.690        9.225        9.506        9.274       85.097       90.361       86.014        0.109        0.013       43.633        5.153        0.014      334.628        4.725      864.864
12/09/2014  22:28:00        8.909       12.690        5.256       12.606        9.049        7.208      158.910       81.876       51.958        0.028        0.015       15.505        5.798        0.140      334.580        4.646      864.864
12/09/2014  22:29:00        0.505       16.650       16.818        8.244        8.894        5.414       67.961       79.107       29.307        0.037        0.009       16.658        3.400        0.042      334.543        4.584      864.861
12/09/2014  22:30:00       10.394       11.076       15.374        9.168        9.965        8.322       84.057       99.300       69.250        0.036        0.013       15.189        6.984        0.211      334.496        4.508      864.851
12/09/2014  22:31:00      -15.902        2.672       -1.630       12.000        5.268        5.752      144.010       27.749       33.086        0.023        0.010       16.125        5.282        0.107      334.596        4.671      864.827
12/09/2014  22:32:00       -5.244       -4.806       -0.331       12.759        4.673        3.590      162.803       21.838       12.886        0.012        0.010        7.113        5.152        0.525      334.695        4.839      864.795
12/09/2014  22:33:00       58.452       39.173       11.392       14.776       17.562       14.833      218.325      308.414      220.018        0.291        0.037       70.364        9.910        0.020      334.664        4.786      864.777
12/09/2014  22:34:00       84.608       43.709        8.588       19.029       13.786       13.462      362.100      190.060      181.231        0.494        0.037       95.232       10.154        0.011      334.600        4.678      864.748
12/09/2014  22:35:00      108.541       57.988        9.637       17.006       15.382       12.806      289.209      236.592      164.005        0.796        0.034      123.060        5.191        0.002      334.670        4.795      864.725
12/09/2014  22:36:00      108.345       55.346        8.708       17.636       17.423       15.000      311.017      303.547      225.013        0.786        0.042      121.663        8.617        0.005      334.711        4.861      864.716
12/09/2014  22:37:00      119.923       60.890        2.916       27.791       19.055       19.023      772.317      363.083      361.864        0.980        0.075      134.496       14.240        0.011      334.713        4.868      864.721
12/09/2014  22:38:00      122.182       57.784        0.436       34.119       29.020       22.449     1164.099      842.163      503.971        1.039        0.126      135.157       17.278        0.016      334.687        4.824      864.728
12/09/2014  22:39:00      137.004       54.446        8.394       54.160       35.116       28.138     2933.282     1233.163      791.730        1.338        0.248      147.426       20.764        0.020      334.695        4.837      864.725
12/09/2014  22:40:00      150.321       72.804       10.801       38.573       29.701       26.449     1487.872      882.153      699.533        1.554        0.153      167.023       20.559        0.015      334.656        4.772      864.711
12/09/2014  22:41:00      149.929       67.825       13.250       34.819       33.016       23.980     1212.351     1090.058      575.062        1.507        0.144      164.556       13.704        0.007      334.620        4.712      864.699
12/09/2014  22:42:00      139.821       77.076       23.587       39.673       38.115       30.667     1573.944     1452.751      940.459        1.501        0.198      159.658       26.987        0.029      334.618        4.708      864.686
12/09/2014  22:43:00      104.408       60.369       25.532       37.917       29.953       24.823     1437.696      897.161      616.197        0.907        0.148      120.605       14.432        0.014      334.525        4.554      864.679
12/09/2014  22:44:00      113.171       77.003       28.404       23.804       21.365       18.557      566.614      456.484      344.345        1.046        0.068      136.884       12.650        0.009      334.494        4.504      864.668
12/09/2014  22:45:00       83.818       57.288        7.088       29.905       20.632       20.628      894.336      425.692      425.501        0.605        0.087      101.525        7.895        0.006      334.441        4.415      864.672
12/09/2014  22:46:00       54.116       51.028        9.059       31.834       17.425       22.331     1013.387      303.644      498.656        0.371        0.091       74.380       11.988        0.026      334.442        4.418      864.671
12/09/2014  22:47:00      103.802       60.263       19.047       25.824       28.121       26.118      666.876      790.812      682.136        0.845        0.107      120.027       15.452        0.017      334.528        4.559      864.681
12/09/2014  22:48:00       63.281       53.439       13.778       32.897       27.870       17.235     1082.189      776.760      297.058        0.460        0.108       82.826       11.429        0.019      334.497        4.511      864.689
12/09/2014  22:49:00       45.029       61.894       -5.032       24.943       22.742       23.341      622.171      517.189      544.780        0.378        0.084       76.541       13.829        0.033      334.478        4.477      864.694
12/09/2014  22:50:00       26.865       32.883       -3.592       30.067       22.820       15.685      904.042      520.772      246.034        0.174        0.084       42.462       15.633        0.136      334.500        4.513      864.698
12/09/2014  22:51:00       29.287       24.842       -1.777       18.974       16.227       13.180      360.021      263.301      173.705        0.114        0.040       38.403        8.454        0.048      334.565        4.620      864.691
12/09/2014  22:52:00       33.762       23.827        8.790       15.774       12.475       20.509      248.816      155.620      420.638        0.130        0.041       41.323       11.989        0.084      334.537        4.574      864.686
12/09/2014  22:53:00       39.600        1.247        6.871       16.944       14.415       10.940      287.113      207.798      119.673        0.112        0.031       39.620        4.223        0.011      334.621        4.713      864.695
12/09/2014  22:54:00       38.164      -30.193       -0.203       17.228       20.847       14.340      296.820      434.581      205.648        0.165        0.047       48.663       13.046        0.072      334.709        4.860      864.695
12/09/2014  22:55:00      -24.405      -22.378        3.961       31.489       14.613       13.086      991.547      213.547      171.252        0.124        0.069       33.111       14.521        0.192      334.595        4.670      864.705
12/09/2014  22:56:00      -56.175      -24.891       -4.121       16.023       19.368        6.903      256.743      375.115       47.651        0.224        0.034       61.443        4.938        0.006      334.566        4.623      864.688
12/09/2014  22:57:00       -8.799      -11.816        3.580       13.665        9.129        8.169      186.729       83.339       66.739        0.028        0.017       14.733        4.448        0.091      334.565        4.621      864.660
12/09/2014  22:58:00      -37.307      -14.945       -3.491       23.678        8.826       14.068      560.639       77.898      197.921        0.123        0.042       40.190       15.377        0.146      334.594        4.668      864.626
12/09/2014  22:59:00      -44.994      -12.279       -4.884       20.244       15.985       11.527      409.801      255.522      132.865        0.150        0.040       46.640       10.807        0.054      334.802        5.016      864.596
12/09/2014  23:00:00      -47.271      -24.436       -4.944        8.057       10.675        6.358       64.910      113.965       40.424        0.154        0.011       53.214        3.391        0.004      334.759        4.944      864.571
12/09/2014  23:01:00      -39.439      -23.729       -4.721       12.716       16.069        7.287      161.699      258.203       53.107        0.131        0.024       46.027        2.840        0.004      334.776        4.972      864.542
12/09/2014  23:02:00      -54.126      -19.516       -4.235       12.968       12.114        9.892      168.176      146.739       97.845        0.187        0.021       57.536        3.508        0.004      334.876        5.138      864.510
12/09/2014  23:03:00      -26.056      -10.548       -3.849       15.208        8.634        5.995      231.271       74.549       35.937        0.057        0.017       28.110        6.585        0.055      334.806        5.022      864.479
12/09/2014  23:04:00       -8.499       -8.909       -2.455        6.859        4.245        3.840       47.048       18.022       14.742        0.012        0.004       12.312        3.010        0.060      334.828        5.058      864.456
12/09/2014  23:05:00      -31.850      -19.826       -6.823       10.776       10.849        5.841      116.116      117.703       34.112        0.086        0.013       37.516        4.336        0.013      334.868        5.125      864.431
12/09/2014  23:06:00      -44.963      -34.527       -8.795       11.464       10.346        8.973      131.430      107.040       80.517        0.181        0.016       56.690        3.109        0.003      334.720        4.881      864.413
12/09/2014  23:07:00      -73.839      -21.498       -7.962       17.216        9.278        8.035      296.396       86.082       64.567        0.321        0.022       76.905        7.122        0.009      334.563        4.619      864.401
12/09/2014  23:08:00      -95.753      -35.117       -8.760       18.118       17.523       11.652      328.256      307.066      135.762        0.562        0.039      101.990        9.103        0.008      334.440        4.413      864.378
12/09/2014  23:09:00     -103.245      -25.015      -14.251       26.887       18.403       16.563      722.931      338.687      274.346        0.641        0.067      106.232       14.095        0.018      334.270        4.133      864.356
12/09/2014  23:10:00      -43.424       -0.984        2.651       46.812       27.522       19.737     2191.337      757.438      389.533        0.262        0.167       43.435       21.660        0.249      334.485        4.489      864.329
12/09/2014  23:11:00      -35.849      -10.550       -1.204       33.466       21.443       18.991     1119.940      459.795      360.659        0.167        0.097       37.369       17.382        0.216      334.749        4.927      864.289
12/09/2014  23:12:00      -60.427       -4.444       -3.318       41.482       34.483       21.623     1720.718     1189.057      467.550        0.353        0.169       60.591       22.558        0.139      334.728        4.892      864.242
12/09/2014  23:13:00      -73.688       -7.248        1.014       42.366       25.080       25.630     1794.886      628.994      656.898        0.428        0.154       74.044       25.072        0.115      334.848        5.091      864.189
12/09/2014  23:14:00      -56.901        5.667       -1.164       40.643       30.258       24.740     1651.826      915.543      612.049        0.322        0.159       57.183       26.475        0.214      334.812        5.030      864.154
12/09/2014  23:15:00      -54.669        9.268       -2.976       34.672       25.994       17.423     1202.139      675.710      303.555        0.263        0.109       55.449       16.655        0.090      334.977        5.308      864.128
12/09/2014  23:16:00      -62.866       19.009       -1.550       24.376       19.962       15.397      594.207      398.488      237.079        0.277        0.061       65.677       10.208        0.024      335.063        5.448      864.118
12/09/2014  23:17:00      -98.515       41.257      -20.208       21.715       18.789       16.124      471.539      353.025      259.968        0.645        0.054      106.806        7.233        0.005      335.008        5.357      864.121
12/09/2014  23:18:00     -102.701       37.297      -18.802       29.216       19.397       14.200      853.546      376.246      201.643        0.686        0.072      109.264       14.677        0.018      334.933        5.232      864.118
12/09/2014  23:19:00      -86.767       36.578      -21.340       27.015       21.939       17.983      729.806      481.336      323.399        0.543        0.077       94.162       12.976        0.019      334.941        5.247      864.121
12/09/2014  23:20:00      -96.341       18.676      -17.076       24.414       24.059       16.556      596.021      578.835      274.088        0.569        0.072       98.134       10.724        0.012      335.143        5.580      864.123
12/09/2014  23:21:00      -97.973       -6.100      -14.784       37.403       34.587       19.367     1398.997     1196.261      375.064        0.641        0.149       98.163       15.324        0.024      334.853        5.101      864.127
12/09/2014  23:22:00      -71.485       42.764      -16.392       31.010       35.744       27.551      961.619     1277.658      759.049        0.510        0.150       83.300       15.771        0.036      334.702        4.850      864.137
12/09/2014  23:23:00      -60.480       42.583       -2.682       31.190       28.742       23.282      972.810      826.118      542.055        0.391        0.117       73.967       12.101        0.027      334.813        5.032      864.142
12/09/2014  23:24:00      -68.939       43.841       -3.579       27.928       26.625       20.210      779.954      708.878      408.434        0.429        0.095       81.698       16.302        0.040      334.937        5.239      864.126
12/09/2014  23:25:00      -50.624       -8.574       -2.988       24.478       21.151       15.681      599.165      447.367      245.905        0.197        0.065       51.345       13.700        0.071      334.656        4.772      864.114
12/09/2014  23:26:00      -63.274      -27.420       -7.959       15.654       24.160       11.199      245.062      583.694      125.427        0.289        0.048       68.960        8.766        0.016      334.384        4.321      864.103
12/09/2014  23:27:00      -66.349      -31.751      -15.003       14.896       11.817       12.172      221.905      139.630      148.166        0.307        0.025       73.555        6.536        0.008      334.303        4.186      864.106
12/09/2014  23:28:00      -78.383      -33.088      -17.069       17.297       17.484       12.617      299.172      305.700      159.186        0.415        0.038       85.081        7.607        0.008      334.212        4.036      864.113
12/09/2014  23:29:00      -74.417      -34.153      -12.676       15.324       16.788       15.193      234.839      281.842      230.837        0.381        0.037       81.879        6.441        0.006      334.189        3.999      864.126
12/09/2014  23:30:00      -71.617      -12.780        0.497       29.965       30.617       19.589      897.872      937.431      383.719        0.376        0.111       72.748       16.969        0.054      334.212        4.035      864.131
12/09/2014  23:31:00      -82.449       19.507      -15.287       44.756       30.824       24.495     2003.085      950.126      599.999        0.548        0.178       84.726       23.195        0.075      334.692        4.832      864.124
12/09/2014  23:32:00     -115.816       31.568      -16.528       41.094       33.882       25.158     1688.708     1147.986      632.919        0.908        0.173      120.041       17.397        0.021      334.691        4.830      864.132
12/09/2014  23:33:00     -120.307       14.978      -11.836       54.423       33.955       27.031     2961.833     1152.922      730.649        0.984        0.242      121.236       28.318        0.055      334.720        4.879      864.151
12/09/2014  23:34:00     -143.199       15.497      -13.858       41.393       35.479       27.769     1713.374     1258.781      771.120        1.234        0.187      144.035       21.006        0.021      334.667        4.791      864.166
12/09/2014  23:35:00     -161.262       25.784      -12.680       38.827       32.471       23.765     1507.573     1054.355      564.788        1.498        0.156      163.311       19.883        0.015      334.478        4.477      864.194
12/09/2014  23:36:00     -178.681       48.972      -13.944       30.607       26.758       17.696      936.762      715.964      313.159        1.824        0.098      185.270       12.517        0.005      334.450        4.432      864.218
12/09/2014  23:37:00     -183.201       55.227      -17.572       37.050       32.189       21.116     1372.684     1036.105      445.905        1.989        0.143      191.345       16.181        0.007      334.513        4.534      864.238
12/09/2014  23:38:00     -192.274       48.648      -15.759       37.394       28.162       20.993     1398.301      793.098      440.704        2.111        0.132      198.333       17.596        0.008      334.504        4.519      864.259
12/09/2014  23:39:00     -193.973       47.791      -22.660       30.404       31.862       19.974      924.406     1015.196      398.964        2.138        0.117      199.773        9.858        0.002      334.525        4.553      864.289
12/09/2014  23:40:00     -202.813       45.868      -18.130       26.631       28.610       18.699      709.225      818.557      349.649        2.272        0.094      207.935       13.421        0.004      334.318        4.209      864.311
12/09/2014  23:41:00     -164.598        7.376      -20.150       39.137       47.626       24.175     1531.686     2268.242      584.414        1.597        0.219      164.763       22.068        0.018      334.305        4.189      864.331
12/09/2014  23:42:00     -153.789       23.215      -20.545       41.311       40.512       23.482     1706.613     1641.208      551.393        1.425        0.195      155.532       16.178        0.011      334.423        4.385      864.347
12/09/2014  23:43:00     -153.947       33.861       -7.858       35.268       33.698       23.486     1243.826     1135.546      551.605        1.392        0.147      157.627        8.825        0.003      334.541        4.581      864.350
12/09/2014  23:44:00     -152.402       56.270       -6.815       41.433       35.301       24.824     1716.675     1246.187      616.239        1.501        0.179      162.458       20.360        0.016      334.744        4.917      864.333
12/09/2014  23:45:00     -141.380       60.229      -15.705       40.384       32.922       29.098     1630.892     1083.832      846.716        1.371        0.178      153.674       19.592        0.016      335.089        5.491      864.299
12/09/2014  23:46:00      -80.884       -4.297       -1.828       38.321       33.581       23.619     1468.491     1127.696      557.839        0.486        0.158       80.998       23.787        0.086      334.583        4.653      864.261
12/09/2014  23:47:00      -70.350        9.952       -4.919       28.499       24.317       20.096      812.195      591.323      403.858        0.344        0.090       71.050       14.519        0.042      334.999        5.343      864.221
12/09/2014  23:48:00      -80.361      -12.537      -12.655       20.914       26.060       16.033      437.385      679.141      257.057        0.407        0.069       81.333        7.760        0.009      334.758        4.942      864.187
12/09/2014  23:49:00     -113.118      -36.692      -13.127       20.885       24.250       14.232      436.184      588.045      202.552        0.777        0.061      118.920        7.476        0.004      334.354        4.271      864.149
12/09/2014  23:50:00     -101.770      -17.116      -13.837       27.744       24.147       13.164      769.725      583.073      173.301        0.618        0.076      103.199        9.829        0.009      334.314        4.206      864.108
12/09/2014  23:51:00     -104.959      -22.864      -15.360       40.891       26.328       19.611     1672.050      693.141      384.573        0.726        0.137      107.420       20.173        0.035      334.381        4.315      864.072
12/09/2014  23:52:00     -128.494      -15.252      -16.298       36.653       30.837       19.537     1343.439      950.902      381.714        0.984        0.134      129.396       18.406        0.020      334.541        4.581      864.036
12/09/2014  23:53:00     -128.593      -20.789       -9.300       39.075       32.931       23.881     1526.878     1084.474      570.283        1.012        0.159      130.263       22.433        0.030      334.500        4.514      864.009
12/09/2014  23:54:00     -108.668      -12.654       -7.264       43.306       38.320       30.103     1875.391     1468.416      906.203        0.813        0.213      109.402       28.442        0.068      334.538        4.576      863.974
12/09/2014  23:55:00      -98.299       42.315      -17.288       43.713       35.644       25.310     1910.840     1270.495      640.598        0.779        0.191      107.020       20.842        0.038      334.771        4.964      863.942
12/09/2014  23:56:00     -121.214       43.574      -10.974       47.973       30.863       26.320     2301.438      952.535      692.725        1.033        0.197      128.808       20.006        0.024      334.808        5.024      863.922
12/09/2014  23:57:00     -127.440       46.384       -9.914       47.926       30.842       27.317     2296.884      951.233      746.207        1.124        0.200      135.619       24.235        0.032      334.770        4.962      863.899
12/09/2014  23:58:00     -144.463       27.959      -17.647       49.262       37.573       26.510     2426.696     1411.735      702.771        1.325        0.227      147.144       20.770        0.020      334.759        4.944      863.881
12/09/2014  23:59:00      -67.165        6.067       -9.649       44.527       32.644       25.197     1982.690     1065.649      634.900        0.416        0.184       67.438       23.516        0.122      334.698        4.844      863.870
